[[{"header":{"parameterUnit":"m.s-1","parameterCategory":1,"la1":30.6,"la2":29.2853,"lo1":-89.7004,"lo2":-87.6739,"dy":0.0162,"dx":0.0183,"nx":112,"ny":82,"refTime":"2024-03-22T06:00:00:Z","depth":0,"parameterNumber":2,"parameterNumberName":"U-component_of_WINDS"},"data":[0.0,0.0,0.0,0.0,0.0,0.0,0.0,0.0,0.0,0.0,0.0,0.0,0.0,0.0,0.0,0.0,0.0,0.0,0.0,0.0,0.0,0.0,0.0,0.0,0.0,0.0,0.0,0.0,0.0,0.0,0.0,0.0,0.0,0.0,0.0,0.0,0.0,0.0,0.0,0.0,0.0,0.0,0.0,0.0,0.0,0.0,0.0,0.0,0.0,0.0,0.0,0.0,0.0,0.0,0.0,0.0,0.0,0.0,0.0,0.0,0.0,0.0,0.0,0.0,0.0,0.0,0.0,0.0,0.0,0.0,0.0,0.0,0.0,0.0,0.0,0.0,0.0,0.0,0.0,0.0,0.0,0.0,0.0,0.0,0.0,0.0,0.0,0.0,0.0,0.0,4.5423,4.5423,4.5423,4.5423,4.5423,4.5423,4.5423,4.5423,0.0,0.0,0.0,0.0,0.0,0.0,0.0,0.0,0.0,0.0,0.0,0.0,0.0,0.0,0.0,0.0,0.0,0.0,0.0,0.0,0.0,0.0,0.0,0.0,0.0,0.0,0.0,0.0,0.0,0.0,0.0,0.0,0.0,0.0,0.0,0.0,0.0,0.0,0.0,0.0,0.0,0.0,0.0,0.0,0.0,0.0,0.0,0.0,0.0,0.0,0.0,0.0,0.0,0.0,0.0,0.0,0.0,0.0,0.0,0.0,0.0,0.0,0.0,0.0,0.0,0.0,0.0,0.0,0.0,0.0,0.0,0.0,0.0,0.0,0.0,0.0,0.0,0.0,0.0,0.0,0.0,0.0,0.0,0.0,0.0,0.0,0.0,0.0,0.0,0.0,0.0,0.0,0.0,0.0,0.0,0.0,0.0,0.0,0.0,0.0,0.0,0.0,0.0,0.0,4.5423,4.5423,4.5423,4.5423,4.5423,4.5423,4.5423,4.5423,0.0,0.0,0.0,0.0,0.0,0.0,0.0,0.0,0.0,0.0,0.0,0.0,0.0,0.0,0.0,0.0,0.0,0.0,0.0,0.0,0.0,0.0,0.0,0.0,0.0,0.0,0.0,0.0,0.0,0.0,0.0,0.0,0.0,0.0,0.0,0.0,0.0,0.0,0.0,0.0,0.0,0.0,0.0,0.0,0.0,0.0,0.0,0.0,0.0,0.0,0.0,0.0,0.0,0.0,0.0,0.0,0.0,0.0,0.0,0.0,0.0,0.0,0.0,0.0,0.0,0.0,0.0,0.0,0.0,0.0,0.0,0.0,0.0,0.0,0.0,0.0,0.0,0.0,0.0,0.0,0.0,0.0,0.0,0.0,0.0,0.0,0.0,0.0,0.0,0.0,0.0,0.0,0.0,0.0,0.0,0.0,0.0,0.0,0.0,0.0,0.0,0.0,0.0,4.5459,4.5423,4.5423,4.5423,4.5423,4.5423,4.5423,4.5423,4.5423,4.5423,0.0,0.0,0.0,0.0,0.0,0.0,0.0,0.0,0.0,0.0,0.0,0.0,0.0,0.0,0.0,0.0,0.0,0.0,0.0,0.0,0.0,0.0,0.0,0.0,0.0,0.0,0.0,0.0,0.0,0.0,0.0,0.0,0.0,0.0,0.0,0.0,0.0,0.0,0.0,0.0,0.0,0.0,0.0,0.0,0.0,0.0,0.0,0.0,0.0,0.0,0.0,0.0,0.0,0.0,0.0,0.0,0.0,0.0,0.0,0.0,0.0,0.0,0.0,0.0,0.0,0.0,0.0,0.0,0.0,0.0,0.0,0.0,0.0,0.0,0.0,0.0,0.0,0.0,0.0,0.0,0.0,0.0,0.0,0.0,0.0,0.0,0.0,0.0,0.0,0.0,0.0,0.0,0.0,0.0,0.0,0.0,0.0,0.0,0.0,0.0,0.0,0.0,4.5511,4.5423,4.5423,4.5423,4.5423,4.5423,4.5423,4.5423,4.5423,4.5423,0.0,0.0,0.0,0.0,0.0,0.0,0.0,0.0,0.0,0.0,0.0,0.0,0.0,0.0,0.0,0.0,0.0,0.0,0.0,0.0,0.0,0.0,0.0,0.0,0.0,0.0,0.0,0.0,0.0,0.0,0.0,0.0,0.0,0.0,0.0,0.0,0.0,0.0,0.0,0.0,0.0,0.0,0.0,0.0,0.0,0.0,0.0,0.0,0.0,0.0,0.0,0.0,0.0,0.0,0.0,0.0,0.0,0.0,0.0,0.0,0.0,0.0,0.0,0.0,0.0,0.0,0.0,0.0,0.0,0.0,0.0,0.0,0.0,0.0,0.0,0.0,0.0,0.0,0.0,0.0,0.0,0.0,0.0,0.0,0.0,0.0,0.0,0.0,0.0,0.0,0.0,0.0,0.0,0.0,0.0,0.0,0.0,0.0,0.0,0.0,0.0,0.0,4.5423,4.5423,4.5423,4.5423,4.5423,4.5423,4.5423,4.5423,4.5423,4.5423,0.0,0.0,0.0,0.0,0.0,0.0,0.0,0.0,0.0,0.0,0.0,0.0,0.0,0.0,0.0,0.0,0.0,0.0,0.0,0.0,0.0,0.0,0.0,0.0,0.0,0.0,0.0,0.0,0.0,0.0,0.0,0.0,0.0,0.0,0.0,0.0,0.0,0.0,0.0,0.0,0.0,0.0,0.0,0.0,0.0,0.0,0.0,0.0,0.0,0.0,0.0,0.0,0.0,0.0,0.0,0.0,0.0,0.0,0.0,0.0,0.0,0.0,0.0,0.0,0.0,0.0,0.0,0.0,0.0,0.0,0.0,0.0,0.0,0.0,0.0,0.0,0.0,0.0,0.0,0.0,0.0,0.0,0.0,0.0,0.0,0.0,0.0,0.0,0.0,0.0,0.0,0.0,0.0,0.0,0.0,0.0,0.0,0.0,0.0,0.0,0.0,0.0,4.5511,4.5423,4.5423,4.5423,4.5423,4.5423,4.5423,4.5423,4.5423,0.0,0.0,0.0,0.0,0.0,0.0,0.0,0.0,0.0,0.0,0.0,0.0,0.0,0.0,0.0,0.0,0.0,0.0,0.0,0.0,0.0,0.0,0.0,0.0,0.0,0.0,0.0,0.0,0.0,0.0,0.0,0.0,0.0,0.0,0.0,0.0,0.0,0.0,0.0,0.0,0.0,0.0,0.0,0.0,0.0,0.0,0.0,0.0,0.0,0.0,0.0,0.0,0.0,0.0,0.0,0.0,0.0,0.0,0.0,0.0,0.0,0.0,0.0,0.0,0.0,0.0,0.0,0.0,0.0,0.0,0.0,0.0,0.0,0.0,0.0,0.0,0.0,0.0,0.0,0.0,0.0,0.0,0.0,0.0,0.0,0.0,0.0,0.0,0.0,0.0,0.0,0.0,0.0,0.0,0.0,0.0,0.0,0.0,0.0,0.0,0.0,0.0,4.5701,4.5511,4.5423,4.5423,4.5423,4.5423,4.5423,4.5423,4.5423,4.5423,0.0,0.0,0.0,0.0,0.0,0.0,0.0,0.0,0.0,0.0,0.0,0.0,0.0,0.0,0.0,0.0,0.0,0.0,0.0,0.0,0.0,0.0,0.0,0.0,0.0,0.0,0.0,0.0,0.0,0.0,0.0,0.0,0.0,0.0,0.0,0.0,0.0,0.0,0.0,0.0,0.0,0.0,0.0,0.0,0.0,0.0,0.0,0.0,0.0,0.0,0.0,0.0,0.0,0.0,0.0,0.0,0.0,0.0,0.0,0.0,0.0,0.0,0.0,0.0,0.0,0.0,0.0,0.0,0.0,0.0,0.0,0.0,0.0,0.0,0.0,0.0,0.0,0.0,0.0,0.0,0.0,0.0,0.0,0.0,0.0,0.0,0.0,0.0,0.0,0.0,0.0,0.0,0.0,0.0,0.0,0.0,0.0,0.0,0.0,0.0,0.0,0.0,4.5423,4.5423,4.5423,4.5371,4.5371,4.5371,4.5371,4.5371,4.5371,0.0,0.0,0.0,0.0,0.0,0.0,0.0,0.0,0.0,0.0,0.0,0.0,0.0,0.0,0.0,0.0,0.0,0.0,0.0,0.0,0.0,0.0,0.0,0.0,0.0,0.0,0.0,0.0,0.0,0.0,0.0,0.0,0.0,0.0,0.0,0.0,0.0,0.0,0.0,0.0,0.0,0.0,0.0,0.0,0.0,0.0,0.0,0.0,0.0,0.0,0.0,0.0,0.0,0.0,0.0,0.0,0.0,0.0,0.0,0.0,0.0,0.0,0.0,0.0,0.0,0.0,0.0,0.0,0.0,0.0,0.0,0.0,0.0,0.0,0.0,0.0,0.0,0.0,0.0,0.0,0.0,0.0,0.0,0.0,0.0,0.0,0.0,0.0,0.0,0.0,0.0,0.0,0.0,0.0,0.0,0.0,0.0,0.0,0.0,0.0,0.0,0.0,0.0,4.5476,4.5423,4.5247,4.4944,4.4889,4.478,4.4429,4.4429,4.4541,4.4889,0.0,0.0,0.0,0.0,0.0,0.0,0.0,0.0,0.0,0.0,0.0,0.0,0.0,0.0,0.0,0.0,0.0,0.0,0.0,0.0,0.0,0.0,0.0,0.0,0.0,0.0,0.0,0.0,0.0,0.0,0.0,0.0,0.0,0.0,0.0,0.0,0.0,0.0,0.0,0.0,0.0,0.0,0.0,0.0,0.0,0.0,0.0,0.0,0.0,0.0,0.0,0.0,0.0,0.0,0.0,0.0,0.0,0.0,0.0,0.0,0.0,0.0,0.0,0.0,0.0,0.0,0.0,0.0,0.0,0.0,0.0,0.0,0.0,0.0,0.0,0.0,0.0,0.0,0.0,0.0,0.0,0.0,0.0,0.0,0.0,0.0,0.0,0.0,0.0,0.0,0.0,0.0,0.0,0.0,0.0,0.0,0.0,0.0,0.0,0.0,0.0,0.0,4.5181,4.4871,4.4588,4.4354,4.4109,4.3931,4.3654,4.3853,4.4145,4.4412,0.0,0.0,0.0,0.0,0.0,0.0,0.0,0.0,0.0,0.0,0.0,0.0,0.0,0.0,0.0,0.0,0.0,0.0,0.0,0.0,0.0,0.0,0.0,0.0,0.0,0.0,0.0,0.0,0.0,0.0,0.0,0.0,0.0,0.0,0.0,0.0,0.0,0.0,0.0,0.0,0.0,0.0,0.0,0.0,0.0,0.0,0.0,0.0,0.0,0.0,0.0,0.0,0.0,0.0,0.0,0.0,0.0,0.0,0.0,0.0,0.0,0.0,0.0,0.0,0.0,0.0,0.0,0.0,0.0,0.0,0.0,0.0,0.0,0.0,0.0,0.0,0.0,0.0,0.0,0.0,0.0,0.0,0.0,0.0,0.0,0.0,0.0,0.0,0.0,0.0,0.0,0.0,0.0,0.0,0.0,0.0,0.0,0.0,0.0,0.0,0.0,0.0,4.453,4.3941,4.3552,4.3481,4.3085,4.2807,4.2766,4.3394,4.3806,4.3823,0.0,0.0,0.0,0.0,0.0,0.0,0.0,0.0,0.0,0.0,0.0,0.0,0.0,0.0,0.0,0.0,0.0,0.0,0.0,0.0,0.0,0.0,0.0,0.0,0.0,0.0,0.0,0.0,0.0,0.0,0.0,0.0,0.0,0.0,0.0,0.0,0.0,0.0,0.0,0.0,0.0,0.0,0.0,0.0,0.0,0.0,0.0,0.0,0.0,0.0,0.0,0.0,0.0,0.0,0.0,0.0,0.0,0.0,0.0,0.0,4.6151,4.659,0.0,0.0,0.0,0.0,0.0,0.0,0.0,0.0,0.0,0.0,0.0,0.0,0.0,0.0,0.0,0.0,0.0,0.0,0.0,0.0,0.0,0.0,0.0,0.0,0.0,0.0,0.0,0.0,0.0,0.0,0.0,0.0,0.0,0.0,0.0,0.0,0.0,0.0,0.0,0.0,4.3083,4.2822,4.2509,4.1812,4.1657,4.1432,4.1079,4.1711,4.2304,4.2626,4.3146,0.0,0.0,0.0,0.0,0.0,0.0,0.0,0.0,0.0,0.0,0.0,0.0,0.0,0.0,0.0,0.0,0.0,0.0,0.0,0.0,0.0,0.0,0.0,0.0,0.0,0.0,0.0,0.0,0.0,0.0,0.0,0.0,0.0,0.0,0.0,0.0,0.0,0.0,0.0,0.0,0.0,0.0,0.0,0.0,0.0,0.0,0.0,0.0,0.0,0.0,0.0,0.0,0.0,0.0,0.0,0.0,0.0,0.0,0.0,4.5373,4.5648,0.0,0.0,0.0,0.0,0.0,0.0,0.0,0.0,0.0,0.0,0.0,0.0,0.0,0.0,0.0,0.0,0.0,0.0,0.0,0.0,0.0,0.0,0.0,0.0,0.0,0.0,0.0,0.0,0.0,0.0,0.0,0.0,0.0,0.0,0.0,0.0,0.0,0.0,0.0,0.0,4.2236,4.1682,4.1147,4.0735,4.0492,4.0311,4.0054,4.0658,4.1367,4.1961,4.2298,0.0,0.0,0.0,0.0,0.0,0.0,0.0,0.0,0.0,0.0,0.0,0.0,0.0,0.0,0.0,0.0,0.0,0.0,0.0,0.0,0.0,0.0,0.0,0.0,0.0,0.0,0.0,0.0,0.0,0.0,0.0,0.0,0.0,0.0,0.0,0.0,0.0,0.0,0.0,0.0,0.0,0.0,0.0,0.0,0.0,0.0,0.0,0.0,0.0,0.0,0.0,0.0,0.0,4.398,4.398,4.4406,4.4175,4.4095,4.4095,4.4311,4.4517,4.4698,4.511,0.0,0.0,0.0,0.0,0.0,0.0,0.0,0.0,0.0,0.0,0.0,0.0,0.0,0.0,0.0,0.0,0.0,0.0,0.0,0.0,0.0,0.0,4.4448,4.4104,4.3983,4.4192,4.4852,0.0,0.0,0.0,0.0,0.0,0.0,0.0,0.0,0.0,0.0,0.0,4.1358,4.0476,3.9847,3.9804,3.9511,3.9308,3.9308,3.9919,4.0573,4.1203,4.145,4.1866,0.0,0.0,0.0,0.0,0.0,0.0,0.0,0.0,0.0,0.0,0.0,0.0,0.0,0.0,0.0,0.0,0.0,0.0,0.0,0.0,0.0,0.0,0.0,0.0,0.0,0.0,0.0,0.0,0.0,0.0,0.0,0.0,4.5988,4.5511,0.0,0.0,0.0,0.0,0.0,0.0,0.0,0.0,0.0,0.0,0.0,0.0,0.0,4.4378,4.4128,4.3647,4.3469,4.3512,4.3019,4.2789,4.2896,4.2851,4.2851,4.2851,4.2834,0.0,4.4112,4.4434,0.0,0.0,0.0,0.0,0.0,0.0,0.0,0.0,0.0,0.0,0.0,0.0,0.0,0.0,0.0,0.0,0.0,0.0,0.0,0.0,0.0,0.0,4.4061,4.4011,4.4011,4.3872,4.3435,4.3748,4.4162,4.4162,4.3903,4.3767,0.0,0.0,0.0,0.0,0.0,0.0,3.9487,3.9214,3.9007,3.8683,3.8578,3.8561,3.8561,3.9186,3.9674,3.974,4.0926,4.1659,4.1723,4.2298,0.0,0.0,0.0,0.0,0.0,0.0,0.0,0.0,0.0,0.0,0.0,0.0,0.0,0.0,0.0,0.0,0.0,0.0,0.0,0.0,0.0,0.0,0.0,0.0,0.0,0.0,0.0,0.0,0.0,4.5137,4.4614,4.4383,4.4366,4.4348,0.0,0.0,0.0,0.0,0.0,0.0,0.0,0.0,0.0,4.2836,4.2702,4.2434,4.2045,4.1825,4.1705,4.1705,4.1541,4.1436,4.1436,4.1436,4.1436,4.1436,4.1436,4.1645,4.2111,4.3315,4.3963,4.4345,0.0,0.0,0.0,0.0,4.4969,4.455,4.4255,4.4085,4.3946,4.3946,0.0,0.0,0.0,0.0,0.0,0.0,0.0,4.4,4.3231,4.3034,4.2881,4.2179,4.202,4.1934,4.1665,4.1853,4.22,4.2725,4.2675,4.2526,4.2395,4.1911,0.0,0.0,0.0,3.9677,3.9079,3.878,3.8594,3.8408,3.8391,3.8391,3.8391,3.8715,3.9088,3.9478,4.0408,4.1172,4.1594,4.2266,4.2634,0.0,0.0,0.0,0.0,0.0,0.0,0.0,0.0,0.0,0.0,0.0,0.0,0.0,0.0,0.0,0.0,0.0,0.0,0.0,0.0,0.0,0.0,0.0,0.0,0.0,0.0,0.0,0.0,4.4017,4.3506,4.3506,4.3493,4.3512,0.0,0.0,0.0,0.0,0.0,0.0,4.2125,4.1861,4.1603,4.1342,4.1091,4.0834,4.048,4.0496,4.0496,4.0496,4.0496,4.0496,4.0496,4.0496,4.0496,4.0496,4.0496,4.0496,4.0637,4.2037,4.2805,4.3124,4.3524,4.377,4.3919,4.3956,4.377,4.3354,4.3007,4.273,4.2583,4.2583,4.26,4.2632,4.2991,0.0,0.0,0.0,0.0,4.2916,4.2072,4.1841,4.1593,4.0739,4.0488,4.0456,4.0267,4.0258,4.0508,4.1367,4.1407,4.1172,4.0893,4.0671,0.0,3.9832,3.9491,3.917,3.8902,3.8594,3.8391,3.8391,3.8391,3.8391,3.8391,3.8391,3.861,3.917,3.987,4.0596,4.126,4.1963,4.2442,4.2634,0.0,0.0,0.0,0.0,0.0,0.0,0.0,0.0,0.0,0.0,0.0,0.0,0.0,0.0,0.0,0.0,0.0,0.0,0.0,0.0,0.0,0.0,0.0,0.0,0.0,0.0,0.0,0.0,0.0,4.3506,4.288,0.0,0.0,0.0,0.0,4.05,4.0631,4.0677,4.0541,4.0348,4.0303,4.0524,4.054,4.054,4.0496,4.0496,4.0496,4.0496,4.0496,4.0496,4.0496,4.0496,4.0496,4.0496,4.0496,4.0496,4.0496,4.0621,4.089,4.1337,4.1627,4.1571,4.1378,4.1683,4.1288,4.0713,4.0653,4.0653,4.0653,4.0653,4.0631,4.0627,4.067,4.0703,0.0,0.0,4.0703,4.0625,4.0623,4.0572,4.0572,4.0491,4.0508,4.032,3.9707,3.956,3.9748,4.0442,4.0082,3.9707,4.009,0.0,3.9063,3.9047,3.9023,3.8902,3.8456,3.8408,3.8391,3.8391,3.8391,3.8391,3.8391,3.8391,3.8408,3.844,3.9137,3.9859,4.0498,4.1276,4.1931,4.2555,4.2634,0.0,0.0,0.0,0.0,0.0,0.0,0.0,0.0,0.0,0.0,0.0,0.0,0.0,0.0,0.0,0.0,0.0,0.0,0.0,0.0,0.0,0.0,0.0,0.0,0.0,0.0,0.0,0.0,4.2027,4.1436,0.0,4.1116,4.0796,4.0334,3.9766,3.9645,3.9465,3.9259,3.9086,3.9105,3.9251,3.9194,3.9153,3.9153,3.9153,3.9153,3.9153,3.9153,3.9153,3.9153,3.9153,3.9153,3.9153,3.9153,3.8888,3.8519,3.8519,3.9403,4.0776,4.0876,4.0818,4.0776,4.0876,4.0701,4.0496,4.0496,4.0496,4.0404,4.0031,3.9572,3.9266,3.9723,3.987,3.9946,4.0355,4.0495,4.043,3.9962,3.987,3.9731,3.9275,3.9137,3.9088,3.8813,3.878,3.8885,3.9105,3.895,3.8813,3.8967,3.878,3.8594,3.8594,3.8594,3.8561,3.8408,3.8391,3.8391,3.8391,3.8391,3.8391,3.8391,3.8391,3.8391,3.8391,3.9105,3.9797,4.0463,4.1187,4.1914,4.2555,4.2634,4.2634,0.0,0.0,0.0,0.0,0.0,0.0,0.0,0.0,0.0,0.0,0.0,0.0,0.0,0.0,0.0,0.0,0.0,0.0,0.0,0.0,0.0,0.0,0.0,0.0,0.0,4.1459,4.0943,4.0943,4.0466,4.0203,4.0334,4.0153,3.9817,3.9242,3.9169,3.9023,3.8655,3.856,3.852,3.8616,3.8464,3.8391,3.8391,3.8391,3.8391,3.8391,3.8148,3.8091,3.8033,3.7828,3.7711,3.7711,3.7711,3.746,3.7087,3.7087,3.7862,3.9125,3.9125,3.9125,3.9125,3.9125,3.9125,3.9125,3.909,3.9118,3.9054,3.8626,3.8153,3.7885,3.8339,3.8473,3.8561,3.8983,3.9291,3.934,3.8918,3.895,3.8983,3.8545,3.8391,3.8391,3.8391,3.8391,3.8391,3.8391,3.8391,3.8391,3.8391,3.8391,3.8391,3.8391,3.8391,3.8391,3.8391,3.8391,3.8391,3.8391,3.8391,3.8391,3.8391,3.8391,3.8391,3.8391,3.8885,3.9527,4.0466,4.0764,4.1451,4.2555,4.249,4.2346,4.2266,0.0,0.0,0.0,0.0,0.0,0.0,0.0,0.0,0.0,0.0,0.0,0.0,0.0,0.0,0.0,0.0,0.0,0.0,0.0,0.0,0.0,0.0,0.0,4.0449,4.04,4.04,4.04,4.0204,4.0003,3.9783,3.9935,3.9713,3.886,3.9169,3.9222,3.8805,3.8672,3.8616,3.8632,3.8448,3.8391,3.8391,3.8391,3.8391,3.8335,3.7727,3.7417,3.7342,3.6692,3.6368,3.6368,3.6384,3.6368,3.6368,3.6368,3.6368,3.6322,3.6384,3.6384,3.6368,3.6368,3.6384,3.6415,3.6397,3.6409,3.6344,3.6353,3.6365,3.6353,3.6366,3.6382,3.6372,3.6388,3.6876,3.7367,3.7375,3.785,3.8359,3.8375,3.8375,3.8375,3.8391,3.8391,3.8391,3.8391,3.8391,3.8391,3.8391,3.8391,3.8391,3.8391,3.8391,0.0,3.8391,3.8391,3.8391,3.8391,3.8391,3.8391,3.8391,3.8391,3.8391,3.8391,3.8391,3.8999,4.0449,3.9866,4.0514,4.2539,4.2282,4.1947,4.1612,0.0,0.0,0.0,0.0,0.0,0.0,0.0,0.0,0.0,0.0,0.0,0.0,0.0,0.0,0.0,0.0,0.0,0.0,0.0,0.0,0.0,4.0285,4.0351,4.0659,4.0351,4.0103,4.0103,3.9627,3.9276,3.9222,3.9169,3.9061,3.8805,3.8898,3.8952,3.8969,3.8727,3.8672,3.8766,3.8504,3.8391,3.8391,3.8391,3.8164,3.7653,3.7476,3.7163,3.6692,3.649,3.6412,3.6412,3.6415,3.6153,3.5676,3.5676,3.5371,3.5023,3.6009,3.6384,3.6412,3.6412,3.6399,3.6368,3.6415,3.6053,3.5697,3.5654,3.5337,3.5026,3.5503,3.5681,3.5774,3.6254,3.6535,3.6672,3.6685,3.6805,3.7038,3.7544,3.7681,3.7834,3.827,3.8391,3.8391,3.8391,3.8391,3.8391,3.8391,3.8391,3.8391,3.8391,3.8391,3.8391,3.8391,3.8391,3.8391,3.8391,3.8391,3.8391,3.8391,3.8391,3.8391,3.8391,3.8391,3.8999,4.0449,4.0353,4.0959,4.2555,4.2282,4.1933,0.0,0.0,0.0,0.0,0.0,0.0,0.0,0.0,0.0,0.0,0.0,0.0,0.0,0.0,0.0,0.0,0.0,0.0,0.0,0.0,0.0,0.0,3.9817,3.9833,4.0137,3.9885,3.9679,3.9679,3.9345,3.9148,3.9148,3.904,3.904,3.904,3.904,3.904,3.9148,3.8821,3.8711,3.8805,3.856,3.8391,3.8391,3.8391,3.8091,3.7417,3.7097,3.6628,3.5995,3.5715,3.5543,3.5558,3.5582,3.5329,3.4991,3.4991,3.4765,3.4481,0.0,0.0,0.0,0.0,3.557,3.5578,3.5578,3.5316,3.4958,3.4958,3.4718,3.4457,3.4864,3.5005,3.5049,3.5472,3.5784,3.5948,3.6013,3.6199,3.6522,3.6877,3.6963,3.711,3.7496,3.7544,3.7665,3.7915,3.8004,0.0,3.8359,3.8391,3.8391,3.8391,3.8391,3.8391,3.8391,3.8391,3.8391,3.8391,3.8391,3.8391,3.8391,3.8391,0.0,0.0,0.0,3.9332,4.0469,4.1061,0.0,0.0,0.0,4.1931,4.1635,4.1279,0.0,0.0,4.0524,4.0524,0.0,0.0,0.0,0.0,0.0,0.0,0.0,0.0,0.0,0.0,0.0,0.0,0.0,0.0,0.0,0.0,3.954,3.9272,3.9272,3.9272,3.9272,3.9272,3.9272,3.9272,3.9272,3.9272,3.9272,3.9272,3.9272,3.9272,3.9272,3.8985,0.0,0.0,0.0,3.8375,3.827,3.827,3.7905,3.7196,3.6591,3.5937,3.5235,3.4677,3.4414,3.4414,3.4414,3.4414,3.4414,3.4414,3.4414,3.4414,3.4414,3.4414,3.4414,3.4414,3.4414,3.4414,3.4414,0.0,0.0,3.4414,3.4414,3.4414,3.4414,3.4414,3.4414,3.4414,3.485,3.5316,3.5316,3.5701,3.617,3.6283,3.6258,3.6301,3.6406,3.6421,3.659,3.716,3.731,3.7496,3.8068,3.827,3.8391,3.8391,3.8391,3.8391,3.8391,3.8391,3.8391,3.8391,3.8391,0.0,3.8391,3.8391,3.8424,3.8545,3.9276,4.0011,4.0625,4.1898,4.2314,4.1723,4.1914,4.1917,4.1616,4.1202,4.0878,4.0524,4.0524,4.0439,0.0,0.0,0.0,0.0,0.0,0.0,0.0,0.0,0.0,0.0,0.0,0.0,0.0,0.0,0.0,3.9398,3.9379,3.9272,3.9272,3.9272,3.9272,3.9272,3.9272,3.9272,3.9272,3.9272,3.9272,3.9272,3.9272,3.9272,3.9272,3.8985,3.8772,3.8778,3.8528,3.8157,3.7633,3.756,3.6965,3.5812,3.5643,0.0,3.4558,3.4467,3.4414,3.4414,3.4414,3.4414,3.4414,3.4414,3.4414,3.4414,3.4414,3.4414,3.4414,3.4414,3.4414,3.4414,3.4414,3.4414,3.4414,3.4414,3.4414,3.4414,3.4414,3.4414,0.0,3.4414,3.4457,3.4583,3.4583,3.4709,3.4908,3.5486,3.5563,3.5744,3.627,3.6396,3.6426,3.6567,3.6566,3.6637,3.6773,3.7681,3.8391,3.8391,3.8391,3.8391,3.8391,3.8391,3.8391,3.8391,3.8391,3.8391,3.8391,3.8391,3.8626,3.9275,4.0513,4.1271,4.1356,4.2155,4.2522,4.2442,4.1931,4.1645,4.1582,4.0909,4.057,4.0524,4.0524,4.0247,0.0,0.0,0.0,0.0,0.0,0.0,0.0,0.0,0.0,0.0,0.0,3.8672,3.886,0.0,3.9094,3.9272,3.9272,3.9272,3.9272,3.9272,3.9272,3.9272,3.9272,3.9272,3.9272,3.9272,3.9272,3.9272,3.9272,3.9272,3.9272,3.9056,3.886,3.881,3.8576,3.8343,3.7883,3.7597,3.6877,3.5895,3.5559,3.5046,3.4414,3.4414,3.4414,3.4414,3.4414,3.4414,3.4414,3.4414,3.4414,3.4414,3.4414,3.4414,3.4414,3.4414,3.4414,3.4414,3.4414,3.4414,3.4414,3.4414,3.4414,3.4414,3.4414,3.4414,3.4414,3.4414,3.4414,3.4414,3.4414,3.4414,3.4457,3.485,3.4893,3.5005,3.5345,3.5375,3.5501,3.5828,3.5914,3.6045,3.6368,3.694,3.751,3.7866,3.8206,3.8391,3.8391,3.8391,3.8391,3.8391,3.8391,3.8391,3.8391,3.8748,3.9397,4.048,4.1174,4.1739,4.209,4.2442,4.2634,4.2634,4.2106,4.1789,4.162,4.1059,4.0716,4.0524,4.0524,4.0217,0.0,0.0,0.0,0.0,0.0,0.0,0.0,3.8391,3.8391,3.8391,3.852,3.8616,3.875,3.8914,3.904,3.9272,3.9272,3.9272,3.9272,3.9272,3.9272,3.9272,3.9272,3.9272,3.9272,3.9272,3.9272,3.9272,3.9272,3.9272,3.9272,3.9094,3.8952,3.8827,3.8697,3.8545,3.827,3.7608,3.6923,3.6272,3.555,3.4941,3.4414,3.4414,3.4414,3.4414,3.4414,3.4414,3.4414,3.4414,3.4414,3.4414,3.4414,3.4414,3.4414,3.4414,3.4414,3.4414,3.4414,3.4414,3.4414,3.4414,3.4414,3.4414,3.4414,3.4414,3.4414,3.4414,3.4414,3.4414,3.4414,3.4414,3.4414,3.4414,3.4414,3.4414,3.4414,3.4414,3.4569,3.5078,3.5204,3.536,3.594,3.6126,3.6496,3.7249,3.7867,3.8238,3.8391,3.8391,3.8391,3.8391,3.8391,3.844,3.8594,3.9422,4.0394,4.1546,4.1723,4.2058,4.2555,4.2634,4.2634,4.2634,4.2233,4.1884,4.1635,4.1163,4.0763,4.0363,4.0363,4.004,3.8391,3.8391,3.8391,3.8391,3.8391,3.8391,0.0,3.8391,3.8391,3.8391,3.8391,3.8504,3.875,3.8805,3.8914,3.9272,3.9272,3.9272,3.9272,3.9272,3.9272,3.9272,3.9272,3.9272,3.9272,3.9272,3.9272,3.9272,3.9272,3.9272,3.9272,3.9102,3.8966,3.8966,3.8841,3.8456,3.7867,3.7058,3.6352,3.5659,3.4913,3.447,3.4414,3.4414,3.4414,3.4414,3.4414,3.4414,3.4414,3.4414,3.4414,3.4414,3.4414,3.4414,3.4414,3.4414,3.4414,3.4414,3.4414,3.4414,3.4414,3.4414,3.4414,3.4414,3.4414,3.4414,3.4414,3.4414,3.4414,3.4414,3.4414,3.4414,3.4414,3.4414,3.4414,3.4414,3.4414,3.4414,3.4428,3.4472,3.454,3.4554,3.4598,3.5146,3.5919,3.7202,3.748,3.7713,3.8343,3.8391,3.8391,3.8391,3.8391,3.8642,3.9324,4.0582,4.1418,4.1564,4.2138,4.2506,4.2634,4.2634,4.2634,4.2634,4.1963,4.166,4.1635,4.0909,4.0263,3.9818,3.9818,3.9482,3.8391,3.8391,3.8391,3.8391,3.8391,3.8391,3.8391,3.8391,3.8391,3.8391,3.8448,3.856,3.875,3.886,3.8969,3.9272,3.9272,3.9272,3.9272,3.9272,3.9272,3.9272,3.9272,3.9272,3.9272,3.9272,3.9272,3.9272,3.9272,3.9272,3.9272,3.9222,3.9139,3.9003,3.892,3.8761,3.8406,3.7193,3.6444,3.6156,3.5005,3.4414,3.4414,3.4414,3.4414,3.4414,3.4414,3.4414,3.4414,3.4414,3.4414,3.4414,3.4414,3.4414,3.4414,3.4414,3.4414,3.4414,3.4414,3.4414,3.4414,3.4414,3.4414,3.4414,3.4414,3.4414,3.4414,3.4414,3.4414,3.4414,3.4414,3.4414,3.4414,3.4414,3.4414,3.4414,3.4414,3.4414,3.4414,3.4414,3.4414,3.4414,3.4414,3.4612,3.5126,3.6082,3.6892,3.7649,3.8343,3.8391,3.8561,3.8983,3.9373,3.9886,4.0691,4.1255,4.1755,4.2138,4.2458,4.2634,4.2634,4.2634,4.2634,4.2634,4.1931,4.1579,4.1635,4.0893,4.0378,4.0132,3.9856,3.9358,3.8391,3.8391,3.8391,3.8391,3.8391,3.8391,3.8391,3.8391,3.8391,3.8391,3.8448,3.8616,3.875,3.886,3.9023,3.9272,3.9272,3.9272,3.9272,3.9272,3.9272,3.9272,3.9272,3.9272,3.9272,3.9272,3.9272,3.9272,3.9272,3.9272,3.9272,3.9272,3.9222,3.9069,3.9069,3.9036,3.897,3.749,3.6722,3.6626,3.519,3.4443,3.4414,3.4414,3.4414,3.4414,3.4414,3.4414,3.4414,3.4414,3.4414,3.4414,3.4414,3.4414,3.4414,3.4414,3.4414,3.4414,3.4414,3.4414,3.4414,3.4414,3.4414,3.4414,3.4414,3.4414,3.4414,3.4414,3.4414,3.4414,3.4414,3.4414,3.4414,3.4414,3.4414,3.4414,3.4414,3.4414,3.4414,3.4414,3.4414,3.4414,3.4414,3.4414,3.4709,3.553,3.6674,3.7658,3.8351,3.8748,3.9211,3.9713,4.0375,4.1016,4.1546,4.1755,4.209,4.2555,4.2634,4.2634,4.2634,4.2634,4.2634,4.2634,4.1931,4.1579,4.1635,4.0893,4.0363,4.0056,3.9624,3.9033,3.8391,3.8391,3.8391,3.8391,3.8391,3.8391,3.8391,3.8391,3.8391,3.8391,3.8391,3.8504,3.875,3.8805,3.8914,3.9272,3.9272,3.9272,3.9272,3.9272,3.9272,3.9272,3.9272,3.9272,3.9272,3.9272,3.9272,3.9272,3.9272,3.9272,3.9272,3.9272,3.9272,3.9272,3.9272,3.9272,3.9255,3.7843,3.7012,3.6783,3.536,3.4583,3.4414,3.4414,3.4414,3.4414,3.4414,3.4414,3.4414,3.4414,3.4414,3.4414,3.4414,3.4414,3.4414,3.4414,3.4414,3.4414,3.4414,3.4414,3.4414,3.4414,3.4414,3.4414,3.4414,3.4414,3.4414,3.4414,3.4414,3.4414,3.4414,3.4414,3.4414,3.4414,3.4414,3.4414,3.4414,3.4414,3.4414,3.4414,3.4414,3.4414,3.4414,3.4414,3.4864,3.6156,3.7008,3.7751,3.8431,3.9649,4.0433,4.0495,4.1148,4.1594,4.1626,4.2233,4.2555,4.2634,4.2634,4.2634,4.2634,4.2634,4.2634,4.2634,4.1931,4.1579,4.1635,4.0893,3.9895,3.8825,3.8856,3.8192,3.8391,3.8391,3.8391,3.8391,3.8391,3.8391,3.8391,3.8391,3.8391,3.8391,3.8448,3.8616,3.875,3.886,3.9023,3.9272,3.9272,3.9272,3.9272,3.9272,3.9272,3.9272,3.9272,3.9272,3.9272,3.9272,3.9272,3.9272,3.9272,3.9272,3.9272,3.9272,3.9272,3.9272,3.9272,3.9272,3.9272,3.8278,3.7524,3.698,3.5518,3.4767,3.4738,3.4738,3.4738,3.4738,3.4612,3.4598,3.4583,3.4443,3.4414,3.4414,3.4414,3.4414,3.4414,3.4414,3.4414,3.4414,3.4414,3.4414,3.4414,3.4414,3.4414,3.4414,3.4414,3.4414,3.4414,3.4414,3.4414,3.4414,3.4414,3.4414,3.4414,3.4414,3.4414,3.4414,3.4414,3.4414,3.4554,3.5005,3.5049,3.519,3.5628,3.6096,3.6854,3.8273,3.8686,3.9093,3.9726,4.0655,4.1233,4.1228,4.1866,4.2266,4.2266,4.2907,4.3325,4.3325,4.376,4.4082,4.4082,4.4082,4.3856,4.3325,4.2891,4.2445,4.1906,4.1472,4.0732,3.9718,3.9297,3.8562,3.8391,3.8391,3.8391,3.8391,3.8391,3.8391,3.8391,3.8391,3.8391,3.8391,3.852,3.8616,3.875,3.8914,3.9094,3.9272,3.9272,3.9272,3.9272,3.9272,3.9272,3.9272,3.9272,3.9272,3.9272,3.9272,3.9272,3.9272,3.9272,3.9272,3.9272,3.9272,3.9272,3.9272,3.9272,3.9272,3.9272,3.8529,3.7841,3.7105,3.5836,3.5281,3.5281,3.5016,3.4875,3.4875,3.4831,3.4756,3.4753,3.4583,3.454,3.4472,3.4428,3.4414,3.4414,3.4414,3.4414,3.4414,3.4414,3.4414,3.4428,3.4709,3.4753,3.4767,3.5019,3.5063,3.5063,3.5063,3.5063,3.5063,3.5063,3.5063,3.5063,3.5063,3.5063,3.5063,3.5063,3.5063,3.5204,3.5642,3.5751,3.5807,3.6237,3.709,3.824,3.9677,4.0102,4.0404,4.0862,4.1516,4.1947,4.1947,4.2555,4.2956,4.2956,4.3679,4.4103,4.4107,4.4561,4.4805,4.4805,4.4805,4.4578,4.4123,4.3781,4.3218,4.2461,4.2173,4.1402,4.0215,4.0174,3.9489,3.8391,3.8391,3.8391,3.8391,3.8391,3.8391,3.8391,3.8391,3.8391,3.8408,3.8504,3.8672,3.8805,3.8914,3.9094,3.9272,3.9272,3.9272,3.9272,3.9272,3.9272,3.9272,3.9272,3.9272,3.9272,3.9272,3.9272,3.9272,3.9272,3.9272,3.9272,3.9272,3.9272,3.9272,3.9272,3.9272,3.9272,3.8649,3.793,3.7143,3.6334,3.5959,3.5969,3.5335,3.5026,3.5011,3.4996,3.4942,3.4932,3.4791,3.4695,3.4709,3.4472,3.4428,3.4428,3.4443,3.4443,3.4443,3.4457,3.4457,3.4569,3.5219,3.5448,3.5551,3.6147,3.6319,3.6319,3.6319,3.6319,3.6319,3.6319,3.6319,3.6319,3.6319,3.6319,3.6319,3.6319,3.6319,3.6319,3.6333,3.6431,3.6447,3.6536,3.7669,3.9062,4.0514,4.126,4.1675,4.1675,4.2233,4.2634,4.2666,4.3293,4.3744,4.3746,4.4409,4.4854,4.4825,4.4873,4.4873,4.4873,4.4857,4.4756,4.4724,4.4448,4.3924,4.315,4.2923,4.1914,4.0341,4.1404,4.0816,3.8391,3.8391,3.8391,3.8391,3.8391,3.8391,3.8391,3.8391,3.8464,3.852,3.8672,3.8805,3.8914,3.9094,3.9218,3.9272,3.9272,3.9272,3.9272,3.9272,3.9272,3.9272,3.9272,3.9272,3.9272,3.9272,3.9272,3.9272,3.9272,3.9272,3.9272,3.9272,3.9272,3.9272,3.9272,3.9272,3.9272,3.8649,3.821,3.7988,3.7311,3.7002,3.6995,3.6823,3.6481,3.5999,3.5874,3.5624,3.5103,3.4934,3.4868,3.4864,3.4767,3.4753,3.485,3.5175,3.5316,3.5345,3.5672,3.5516,3.5219,3.5843,3.605,3.6112,3.6257,3.6286,3.6286,3.6286,3.6286,3.6286,3.6286,3.6286,3.6286,3.6286,3.6286,3.6286,3.6286,3.6286,3.6445,3.6939,3.7839,3.8702,3.9229,4.0115,4.0991,4.1931,4.2266,4.233,4.233,4.249,4.2842,4.3342,4.3567,4.3928,4.4503,4.5153,4.5524,4.5544,4.5544,4.5544,4.5544,4.5085,4.4527,4.3955,4.3874,4.3492,4.273,4.3251,4.2875,4.1787,4.2595,4.2011,3.8391,3.8391,3.8391,3.8391,3.8391,3.8408,3.8448,3.852,3.8504,3.8655,3.8805,3.8914,3.8969,3.9148,3.9272,3.9272,3.9272,3.9272,3.9272,3.9272,3.9272,3.9272,3.9272,3.9272,3.9272,3.9272,3.9272,3.9272,3.9272,3.9272,3.9272,3.9272,3.9272,3.9272,3.9272,3.9272,3.9272,3.8954,3.8768,3.8698,3.8093,3.7809,3.7796,3.7503,3.7163,3.6794,3.6453,3.6265,3.614,3.5659,3.5493,3.5489,3.5363,3.5348,3.5363,3.5533,3.5756,3.6098,3.6572,3.6543,3.627,3.6602,3.6736,3.6764,3.7057,3.71,3.71,3.71,3.71,3.71,3.71,3.71,3.71,3.71,3.71,3.71,3.71,3.7359,3.7827,3.8514,3.8987,3.9627,4.0716,4.1243,4.1773,4.2522,4.2634,4.27,4.304,4.3073,4.3218,4.3632,4.4237,4.4768,4.5202,4.5906,4.6152,4.5805,4.5789,4.5669,4.534,4.5014,4.477,4.4623,4.4623,4.4411,4.4005,4.4445,4.4121,4.3183,4.4054,4.3384,3.8391,3.8464,3.8448,3.8448,3.8448,3.8504,3.8616,3.8616,3.8655,3.8805,3.8914,3.9023,3.9023,3.9202,3.9272,3.9272,3.9272,3.9272,3.9272,3.9272,3.9272,3.9272,3.9272,3.9272,3.9272,3.9272,3.9272,3.9272,3.9272,3.9272,3.9272,3.9272,3.9272,3.9272,3.9272,3.9272,3.9272,3.9272,3.9272,3.9272,3.8698,3.843,3.843,3.7892,3.7588,3.7481,3.6874,3.6929,3.7373,3.6651,3.6377,3.6329,3.6269,3.628,3.6215,3.6094,3.6461,3.6925,3.735,3.7408,3.7394,3.7394,3.7394,3.7526,3.804,3.8202,3.8202,3.8202,3.8202,3.8202,3.8202,3.8202,3.8202,3.8202,3.8294,3.8339,3.8188,3.8805,3.9542,4.027,3.9963,3.9987,4.131,4.1597,4.1868,4.2492,4.2715,4.2959,4.3638,4.3669,4.375,4.3974,4.5093,4.5826,4.5778,4.6371,4.6419,4.5713,4.5568,4.5273,4.4844,4.4729,4.4973,4.5656,4.5645,4.5647,4.5647,4.576,4.5342,4.4511,4.5511,4.4904,3.852,3.8576,3.8616,3.8711,3.875,3.875,3.875,3.875,3.8805,3.8914,3.8969,3.9023,3.9218,3.9272,3.9272,3.9272,3.9272,3.9272,3.9272,3.9272,3.9272,3.9272,3.9272,3.9272,3.9272,3.9272,3.9272,3.9272,3.9272,3.9272,3.9272,3.9272,3.9272,3.9272,3.9272,3.9272,3.9272,3.9272,3.9272,3.9272,3.9189,3.9156,3.9139,3.902,3.8665,3.8142,3.8013,3.7769,3.7376,3.7271,3.7173,3.7239,3.7826,3.8027,3.8085,3.8451,3.8516,3.8512,3.835,3.8188,3.804,3.804,3.804,3.8055,3.8188,3.8202,3.8202,3.8202,3.8202,3.8202,3.8202,3.8202,3.8202,3.8202,3.869,3.8927,3.8324,3.8767,3.95,4.0263,4.0811,4.1182,4.148,4.2029,4.2429,4.2571,4.3136,4.3573,4.3702,4.3718,4.417,4.5291,4.5656,4.5782,4.583,4.5945,4.5716,4.498,4.4415,4.4266,4.4779,4.418,4.4197,4.4973,4.4965,4.5002,4.5002,4.5508,4.5717,4.556,4.6366,4.6168,3.9473,3.9295,3.9169,3.9206,3.9007,3.8805,3.8914,3.8914,3.8969,3.9148,3.9148,3.9202,3.9272,3.9272,3.9272,3.9272,3.9272,3.9272,3.9272,3.9272,3.9272,3.9272,3.9272,3.9272,3.9272,3.9272,3.9272,3.9272,3.9272,3.9272,3.9272,3.9272,3.9272,3.9272,3.9272,3.9272,3.9272,3.9272,3.9272,3.9272,3.9272,3.9272,3.9272,3.9272,3.9139,3.8801,3.8447,3.8316,3.8382,3.803,3.7875,3.7953,3.8698,3.8953,3.9031,3.9544,3.9902,4.0036,3.9833,3.9673,3.9585,3.9631,3.8942,3.8202,3.8202,3.8202,3.8202,3.8202,3.8202,3.8202,3.8202,3.8202,3.8323,3.8649,3.9365,3.9879,3.9884,3.9859,4.0209,4.1311,4.1525,4.1591,4.2013,4.2365,4.2634,4.2634,4.3249,4.3719,4.3719,4.4075,4.4543,4.5195,4.5597,4.5627,4.5292,4.531,4.5114,4.4787,4.4497,4.4415,4.4804,4.4464,4.4608,4.5308,4.5311,4.5527,4.5922,4.6217,4.6383,4.6383,4.6779,4.6447,4.0331,4.0119,3.98,3.9851,3.9454,3.9098,3.9312,3.9329,3.9276,3.9398,3.9435,3.9435,3.9325,3.9272,3.9272,3.9272,3.9272,3.9272,3.9272,3.9272,3.9272,3.9272,3.9272,3.9272,3.9272,3.9272,3.9272,3.9272,3.9272,3.9272,3.9272,3.9272,3.9272,3.9272,3.9272,3.9272,3.9272,3.9272,3.9272,3.9272,3.9272,3.9272,3.9272,3.9272,3.9272,3.9255,3.8768,3.8817,3.9239,3.8698,3.8616,3.8834,3.9544,3.9911,4.0119,4.0529,4.1008,4.137,4.1064,4.0908,4.0873,4.0891,3.9862,3.862,3.8708,3.8694,3.862,3.8752,3.8811,3.8738,3.8752,3.8752,3.8928,3.9637,4.0117,4.0622,4.1525,4.1178,4.1044,4.2349,4.2142,4.1948,4.2492,4.2634,4.2634,4.2634,4.3249,4.3719,4.3719,4.448,4.4967,4.4838,4.5422,4.555,4.4852,4.4935,4.4967,4.4787,4.4787,4.4852,4.4982,4.4986,4.5351,4.6003,4.6019,4.635,4.6876,4.6876,4.6876,4.6876,4.6876,4.6581,4.0511,4.0528,4.0546,4.0659,4.0302,4.0003,4.0497,4.0252,3.9902,3.9902,3.9968,3.9817,3.9398,3.9272,3.9272,3.9272,3.9272,3.9272,3.9272,3.9272,3.9272,3.9272,3.9272,3.9272,3.9272,3.9272,3.9272,3.9272,3.9272,3.9272,3.9272,3.9272,3.9272,3.9272,3.9272,3.9272,3.9272,3.9272,3.9272,3.9272,3.9272,3.9272,3.9272,3.9272,3.9272,3.9272,3.9222,3.9239,3.9272,3.9222,3.9594,4.0267,4.0968,4.1629,4.2239,4.2304,4.2327,4.2129,4.1417,4.1048,4.0885,4.0896,4.0375,3.9887,4.0497,4.0245,3.9874,4.0507,4.0613,4.0628,4.047,4.047,4.0607,4.1162,4.0826,4.0774,4.2222,4.1948,4.1672,4.2429,4.2571,4.2492,4.2571,4.2634,4.2634,4.2634,4.3249,4.3719,4.3719,4.4885,4.5467,4.4836,4.5386,4.5532,4.4852,4.5388,4.5469,4.4836,4.4787,4.5046,4.5664,4.5729,4.6034,4.6795,4.6811,4.6844,4.6876,4.6876,4.6876,4.6876,4.6876,4.686,4.1622,4.1383,4.1139,4.1202,4.0832,4.0563,4.0754,4.0642,4.05,4.0506,4.0489,4.0425,4.0227,4.0188,4.0204,4.0238,4.0238,4.0308,4.0374,4.0374,4.0358,4.0238,4.0238,4.0238,4.0204,4.0188,4.0188,4.0188,4.0188,4.0188,4.0188,3.9611,3.9272,3.9272,3.9272,3.9272,3.9272,3.9272,3.9272,3.9272,3.9272,3.9272,3.9272,3.9272,3.9272,3.9272,3.9272,3.9272,3.9272,3.9272,3.9721,4.0459,4.1161,4.1841,4.2588,4.3036,4.3119,4.3053,4.2779,4.2604,4.2545,4.2537,4.2092,4.1417,4.1028,4.0722,4.0576,4.0831,4.0883,4.0899,4.0847,4.108,4.1377,4.1459,4.1591,4.1868,4.2492,4.2349,4.2222,4.2555,4.2634,4.2634,4.2634,4.2634,4.2634,4.2634,4.3622,4.4204,4.3767,4.4933,4.5548,4.4868,4.5403,4.5532,4.4852,4.503,4.5257,4.5386,4.5403,4.571,4.6459,4.6491,4.6637,4.6876,4.6876,4.6876,4.6876,4.6876,4.6876,4.6876,4.6876,4.6876,4.2287,4.2002,4.1727,4.1727,4.1356,4.1036,4.122,4.11,4.0982,4.103,4.1056,4.1003,4.0841,4.0849,4.0914,4.0948,4.0945,4.0991,4.106,4.1126,4.1043,4.0974,4.0979,4.0931,4.0863,4.0796,4.0779,4.0779,4.0779,4.0779,4.0779,4.0119,3.9648,3.9511,3.9528,3.9425,3.9272,3.9272,3.9272,3.9272,3.9272,3.9272,3.9272,3.9272,3.9272,3.9272,3.9272,3.9272,3.9342,3.9561,4.0038,4.0734,4.1461,4.219,4.2878,4.3436,4.3628,4.3628,4.3628,4.3628,4.3628,4.3628,4.3295,4.2772,4.1917,4.1577,4.1446,4.1642,4.1642,4.1642,4.1642,4.1885,4.2126,4.1933,4.2285,4.2696,4.2634,4.2634,4.2634,4.2634,4.2634,4.2634,4.2696,4.2875,4.3021,4.3021,4.4123,4.4724,4.4091,4.5145,4.5763,4.521,4.5861,4.5991,4.5144,4.5289,4.5613,4.6099,4.6131,4.6358,4.686,4.6876,4.6876,4.6876,4.6876,4.6876,4.6876,4.6876,4.6876,4.6876,4.6876,4.6876,4.2287,4.2287,4.2287,4.2287,4.1899,4.1622,4.2145,4.1858,4.1495,4.1495,4.1594,4.1516,4.1,4.0995,4.1103,4.1103,4.1121,4.1119,4.1119,4.1119,4.1119,4.1119,4.1074,4.1067,4.0902,4.0849,4.0813,4.0813,4.0813,4.0813,4.0813,4.0772,4.0558,4.0004,3.9984,3.9781,3.9272,3.9272,3.9272,3.9272,3.9272,3.9272,3.9272,3.9272,3.9272,3.9272,3.9272,3.9272,3.9375,4.0121,4.079,4.1461,4.2206,4.2911,4.3611,4.3628,4.3628,4.3628,4.3628,4.3628,4.3628,4.3628,4.3628,4.3568,4.3568,4.3113,4.271,4.3372,4.3509,4.3372,4.3372,4.3235,4.3052,4.2899,4.2899,4.2837,4.2634,4.2634,4.2634,4.2634,4.2634,4.2634,4.2837,4.3502,4.3974,4.3974,4.4705,4.5163,4.4853,4.5734,4.6307,4.6092,4.6945,4.7025,4.5856,4.6455,4.686,4.6876,4.6876,4.6876,4.6876,4.6876,4.6876,4.6876,4.6876,4.6876,4.6876,4.6876,4.6876,4.6876,4.6876,4.6876,4.2287,4.2287,4.2287,4.2287,4.2187,4.2086,4.2287,4.2163,4.2072,4.2143,4.2199,4.2187,4.2065,4.2078,4.2145,4.2273,4.226,4.2282,4.2318,4.2318,4.23,4.2264,4.2186,4.2099,4.2073,4.2032,4.1996,4.1979,4.1961,4.1925,4.1813,4.1813,4.1439,4.0575,4.0527,4.0511,4.0341,4.0341,4.0341,4.0341,3.9951,3.9781,3.9781,3.9441,3.9272,3.9272,3.9272,3.9272,3.9355,4.009,4.0802,4.1461,4.2222,4.2927,4.3628,4.3628,4.3628,4.3628,4.3628,4.3628,4.3628,4.3628,4.3628,4.3628,4.3628,4.3432,4.3312,4.3552,4.3568,4.3509,4.3432,4.3372,4.3251,4.3052,4.3068,4.299,4.2837,4.2837,4.2759,4.2634,4.3102,4.3585,4.3649,4.4362,4.49,4.49,4.557,4.6045,4.5914,4.6617,4.7126,4.7059,4.7339,4.7304,4.6789,4.6968,4.703,4.6892,4.6876,4.6876,4.6876,4.6876,4.6876,4.6876,4.6876,4.6876,4.6876,4.6876,4.6876,4.6876,4.6876,4.6876,4.2328,4.2287,4.2287,4.2287,4.2323,4.2399,4.2399,4.2417,4.2453,4.2507,4.2575,4.2649,4.2662,4.2719,4.2755,4.2828,4.2846,4.2846,4.2882,4.2882,4.2864,4.2846,4.2755,4.2678,4.2699,4.2641,4.2588,4.253,4.2535,4.2489,4.2399,4.2399,4.205,4.1416,4.118,4.0974,4.0788,4.0788,4.0788,4.0788,4.0483,4.0273,4.0308,4.0001,3.9847,3.9831,3.9628,3.9731,0.0,4.0524,4.1206,4.1874,4.2637,4.3211,4.3628,4.3628,4.3628,4.3628,4.3628,4.3628,4.3628,4.3628,4.3628,4.3628,4.3628,4.3628,4.3628,4.3628,4.3628,4.3568,4.3509,4.3509,4.3432,4.3251,4.3235,4.3174,4.3007,4.3157,4.3353,4.3228,4.3877,4.4509,4.4589,4.5306,4.583,4.5814,4.6454,4.6931,4.6798,4.7325,4.7671,4.7604,4.7671,4.7604,4.7386,4.7235,4.7183,4.703,4.6945,4.6876,4.6876,4.6876,4.6876,4.6876,4.6876,4.6876,4.6876,4.6876,4.6876,4.6876,4.6876,4.6876,0.0,4.2346,4.2328,4.2305,4.2417,4.2507,4.2507,4.2542,0.0,4.2601,4.2724,4.281,4.281,4.2846,4.2882,4.2882,4.2936,4.2992,4.29,4.2882,4.2882,4.2882,4.2846,4.281,4.281,4.2701,4.2609,4.2609,4.2606,4.2565,4.2494,4.2489,4.2453,4.2287,4.1813,4.1339,4.0925,4.0925,4.0925,4.0925,4.0849,4.0837,4.086,4.0843,4.0826,4.0757,4.0282,4.0431,4.11,4.1387,4.1858,4.2588,4.3294,4.3628,4.3628,4.3628,4.3628,4.3628,4.3628,4.3628,4.3628,4.3628,4.3628,4.3628,4.3628,4.3628,4.3628,4.3628,4.3628,4.3628,4.3628,4.3628,4.3568,4.3432,4.3482,4.3454,4.3239,4.3768,4.4276,4.4276,4.4865,4.5437,4.5662,4.6335,4.6797,4.6699,4.7423,4.7869,4.7554,4.7803,4.7935,4.777,4.7853,4.7919,4.7704,4.7437,4.7251,4.7183,4.703,4.6876,4.6876,4.6876,4.6876,4.6876,4.6876,4.6876,4.6876,4.6876,4.6876,4.6876,4.6876,4.6876,4.2976,0.0,4.2521,4.2548,4.2542,4.256,0.0,4.2578,4.2647,4.2727,4.277,4.2828,4.2864,4.2882,4.2882,4.2882,4.3411,4.3612,4.301,4.2882,4.2882,4.2882,4.2882,4.2864,4.2864,4.2846,4.281,4.2774,4.2752,4.2675,4.2531,4.2508,4.2453,4.2287,4.218,4.205,4.1961,4.1961,4.1961,4.1943,4.1522,4.1332,4.1323,4.0981,4.0815,4.0797,4.0666,4.0789,4.1171,4.1783,4.2206,4.2588,4.3294,4.3628,4.3628,4.3628,4.3628,4.3628,4.3628,4.3628,4.3628,4.3628,4.3628,4.3628,4.3628,4.3628,4.3628,4.3628,4.3628,4.3628,4.3628,4.3628,4.3568,4.3568,4.3982,4.4379,4.4212,4.4726,4.5253,4.5046,4.5764,4.6419,4.6419,4.7143,4.7687,4.7671,4.7885,4.7935,4.7869,4.7935,4.8001,4.7935,4.8001,4.8001,4.7935,4.7604,4.7335,4.7183,4.703,4.6876,4.6876,4.6876,4.6876,4.6876,4.6876,4.6876,4.6876,4.6876,4.6876,4.6876,4.6876,4.6876,4.3539,4.3141,4.2839,4.2821,4.2893,4.2951,4.3134,4.3174,4.3195,4.33,4.3302,4.3284,4.3137,4.3266,4.3266,4.2936,4.3868,4.4416,4.3831,4.3266,4.2882,4.2882,4.2882,4.2882,4.2882,4.2882,4.2864,4.2846,4.2846,4.2792,4.2627,4.2566,4.2489,4.2417,4.2305,4.2287,4.2287,4.2287,4.2287,4.2287,4.1996,4.1889,4.1872,4.1576,4.1487,4.1522,4.1609,4.195,4.2362,4.2898,4.3394,4.3842,4.4243,4.4202,4.4006,4.4006,4.3848,4.3628,4.3628,4.3628,4.3628,4.3628,4.3628,4.3628,4.3628,4.3628,4.3628,4.3628,4.3628,4.3628,4.3628,4.3628,4.3711,4.4026,4.4406,4.4787,4.5012,4.5673,4.6185,4.6057,4.6715,4.7291,4.7291,4.7687,4.8001,4.8001,4.8001,4.8001,4.8001,4.8001,4.8001,4.8001,4.8001,4.8001,4.8001,4.7737,4.7521,4.7454,4.7167,4.703,4.703,4.6961,4.6876,4.6876,4.6876,4.6876,4.6876,4.6876,4.6876,4.6876,4.6876,4.6876,4.3991,4.3616,4.3302,4.322,4.3322,4.3464,4.3743,4.3852,4.3888,4.3888,4.3888,4.3815,4.3523,4.3707,4.3705,4.3159,4.4144,4.4967,4.4801,4.3757,4.3047,4.3047,4.3029,4.301,4.3047,4.3029,4.301,4.3047,4.3029,4.2936,4.2864,4.2717,4.2588,4.2489,4.2399,4.2305,4.2287,4.2287,4.2287,4.2287,4.2287,4.2287,4.2287,4.2287,4.2287,4.2341,4.2688,4.3177,4.3832,4.4199,4.4694,4.5299,4.5286,4.5001,4.4597,4.4597,4.4276,4.3831,4.3789,4.373,4.373,4.3628,4.3628,4.3628,4.3628,4.3628,4.3628,4.3628,4.3628,4.3628,4.3628,4.3711,4.3943,4.4539,4.4854,4.5202,4.5814,4.6543,4.7073,4.7073,4.757,4.8001,4.8001,4.8001,4.8001,4.8115,4.8049,4.8066,4.8115,4.8066,4.8001,4.8001,4.8049,4.8115,4.8115,4.7951,4.7886,4.7886,4.7504,4.7251,4.7183,4.703,4.6961,4.6876,4.6876,4.6876,4.6876,4.6876,4.6876,4.6876,4.6876,4.6876,4.4421,4.4275,4.4139,4.3871,4.3781,4.3818,4.3871,4.389,4.389,4.389,4.389,4.3871,4.3834,4.3855,4.3868,4.3774,4.3942,4.4339,4.4949,4.4287,4.3739,4.3739,4.3483,4.3429,4.3703,4.3465,4.3429,4.3721,4.3465,4.3302,4.3248,4.2935,4.2688,4.2489,4.2471,4.2417,4.2287,4.2287,4.2287,4.2287,4.2287,4.2287,4.2287,4.2287,4.2287,4.2358,4.305,4.355,4.3849,4.4562,4.5055,4.5299,4.5286,4.525,4.5161,4.5161,4.5108,4.4984,4.4541,4.4333,4.4293,4.3789,4.3628,4.3628,4.3628,4.3628,4.3628,4.3628,4.3628,4.3628,4.3628,4.4075,4.4556,4.4655,4.5649,4.6576,4.6709,4.7305,4.7835,4.7835,4.7918,4.8001,4.8001,4.8001,4.8163,4.8668,4.8339,4.8163,4.8731,4.8339,4.8001,4.8001,4.845,4.8776,4.8776,4.8714,4.8714,4.8714,4.7951,4.7403,4.7183,4.7183,4.7098,4.6876,4.6876,4.6876,4.6876,4.6876,4.6876,4.6876,4.6876,4.6876,4.47,4.4662,4.4638,4.4483,4.4298,4.4221,4.4397,4.4435,4.4435,4.4435,4.4435,4.4397,4.4202,4.4327,4.4587,4.5067,4.484,4.4783,4.5361,4.4519,4.3881,4.3881,4.3751,4.374,4.3906,4.3775,4.3732,4.3881,4.3751,4.367,4.3631,4.3429,4.3226,4.2922,4.2831,4.2655,4.2417,4.2323,4.2287,4.2287,4.2287,4.2287,4.2287,4.2287,4.2519,4.3005,4.3749,4.4387,4.4944,4.5753,4.6129,4.6217,4.6196,4.6052,4.5751,4.5425,4.5303,4.525,4.5001,4.4964,4.491,4.4635,4.4524,4.4468,4.4162,4.4259,4.4468,4.4162,4.3848,4.3711,4.4092,4.444,4.4887,4.5698,4.6411,4.7007,4.7404,4.7769,4.8115,4.845,4.8513,4.8513,4.8513,4.8731,4.8961,4.8883,4.8961,4.8961,4.8883,4.8668,4.8513,4.8513,4.8714,4.9067,4.9351,4.9411,4.9231,4.8759,4.8353,4.8161,4.8366,4.795,4.7638,4.7556,4.7134,4.6876,4.6876,4.6876,4.6876,4.6876,4.6876,4.6876,4.4895,4.4895,4.4895,4.4895,4.47,4.4567,4.4838,4.4895,4.4895,4.4895,4.4895,4.4819,4.4549,4.4743,4.5122,4.5805,4.5464,4.5223,4.5469,4.4724,4.4126,4.4126,4.407,4.4044,4.4147,4.4064,4.4051,4.4126,4.407,4.4035,4.4023,4.3899,4.3681,4.3408,4.3206,4.2974,4.2708,4.2489,4.2382,4.2287,4.2287,4.2287,4.2287,4.2489,4.2992,4.3807,4.476,4.5596,4.6415,4.7201,4.7533,4.7533,4.7533,4.7281,4.6843,4.6217,4.5995,4.5909,4.5632,4.5528,4.5477,4.5372,4.5303,4.5197,4.4801,4.4947,4.5197,4.4801,4.4508,4.4374,4.478,4.4926,4.5329,4.6749,4.7245,4.7528,4.8111,4.8339,4.8513,4.8838,4.8989,4.911,4.911,4.9512,4.9705,4.9368,4.9588,4.9705,4.9368,4.9188,4.911,4.911,4.9248,4.9529,4.9993,5.005,4.9763,4.9171,4.8989,4.9033,4.9359,4.8771,4.843,4.8303,4.7556,4.7134,4.7098,4.6945,4.6876,4.6876,4.6876,4.6876,4.4895,4.4895,4.4895,4.4895,4.4876,4.4876,4.4895,4.4895,4.4895,4.4895,4.4895,4.4895,4.4876,4.4876,4.4921,4.4987,4.494,4.4933,4.4952,4.4876,4.4838,4.4838,4.4549,4.4486,4.4815,4.4537,4.4492,4.48,4.453,4.4348,4.4373,4.4065,4.3851,4.3775,4.356,4.3418,4.3327,4.291,4.2542,4.2287,4.2287,4.2287,4.2305,4.3054,4.3797,4.4615,4.6183,4.7281,4.8068,4.8835,4.9139,4.9139,4.9139,4.9109,4.9019,4.8241,4.7974,4.782,4.6579,4.6137,4.602,4.5477,4.5303,4.5303,4.525,4.525,4.5303,4.525,4.5767,4.6172,4.5659,4.5611,4.6084,4.7433,4.8264,4.8771,4.8821,4.9291,4.9529,4.9006,4.9351,4.9746,4.9746,4.9746,4.9993,5.0567,5.0181,4.9993,5.0567,5.0124,4.9746,4.9746,5.031,5.0694,5.0749,5.0749,5.0694,5.064,5.0067,4.9688,4.9588,4.9529,4.9291,4.8821,4.8303,4.7885,4.7638,4.715,4.6876,4.6876,4.6876,4.6876,4.4895,4.4895,4.4895,4.4895,4.4895,4.4895,4.4895,4.4895,4.4895,4.4895,4.4895,4.4895,4.4895,4.5336,4.552,4.4985,4.5344,4.5507,4.4971,4.4895,4.4895,4.4895,4.48,4.4762,4.4895,4.48,4.4762,4.4895,4.4781,4.47,4.47,4.4586,4.4416,4.4183,4.4055,4.3825,4.3446,4.3082,4.3014,4.3274,4.3148,4.3036,4.3089,4.4369,4.5335,4.6136,4.7245,4.8151,4.8907,4.9192,4.9317,4.9317,4.9317,4.9317,4.9281,4.8996,4.8889,4.8734,4.7791,4.7429,4.734,4.657,4.6363,4.6297,4.5953,4.6102,4.6403,4.6495,4.6742,4.6969,4.688,4.7227,4.7919,4.8812,4.9264,4.947,4.947,4.9629,4.9879,5.0028,5.0272,5.0422,5.0422,5.0714,5.0946,5.0803,5.0893,5.0946,5.0803,5.0567,5.0422,5.0422,5.0964,5.1367,5.1367,5.1367,5.1367,5.1367,5.0785,5.055,5.0875,5.0404,5.0107,4.9879,4.918,4.8601,4.8113,4.7836,4.7668,4.7733,4.7626,4.7815,4.4895,4.4895,4.4895,4.4895,4.4895,4.4895,4.4895,4.4895,4.4895,4.4895,4.4895,4.4895,4.4895,4.5393,4.5607,4.499,4.5393,4.5588,4.4971,4.4895,4.4895,4.4895,4.4895,4.4895,4.4895,4.4895,4.4895,4.4895,4.4895,4.4895,4.4895,4.4895,4.48,4.4567,4.4473,4.4372,4.4288,4.3911,4.4044,4.4646,4.4917,4.4741,4.4257,4.561,4.673,4.7793,4.8551,4.9337,5.0066,5.0066,5.0066,5.0066,5.0066,5.0066,5.0031,4.9781,4.9692,4.9549,4.8532,4.8175,4.805,4.7247,4.6998,4.6934,4.659,4.6862,4.7415,4.7563,4.7943,4.8355,4.847,4.867,4.9037,4.9894,5.0124,5.0124,5.0124,5.0293,5.0477,5.0749,5.0964,5.1088,5.1088,5.1418,5.1571,5.114,5.1418,5.1521,5.114,5.1088,5.1088,5.1088,5.147,5.169,5.169,5.169,5.169,5.169,5.1297,5.1245,5.169,5.1158,5.0822,5.0768,5.0332,4.9795,4.9283,4.9253,4.9256,4.9293,4.9207,4.9283,4.4895,4.4895,4.4895,4.4895,4.4895,4.4895,4.4895,4.4895,4.4895,4.4895,4.4895,4.4895,4.4895,4.4895,4.4895,4.4895,4.4895,4.4895,4.4895,4.4895,4.4895,4.4895,4.4895,4.4895,4.4895,4.4895,4.4895,4.4895,4.4895,4.4895,4.4895,4.4895,4.4895,4.4895,4.4781,4.5122,4.6011,4.5546,4.5653,4.6341,4.7673,4.7429,4.5853,4.6698,4.7882,4.9351,5.0175,5.0984,5.169,5.169,5.169,5.169,5.169,5.169,5.1601,5.0816,5.0513,5.0298,4.8728,4.8193,4.805,4.7247,4.6998,4.6998,4.6998,4.7551,4.8193,4.8193,4.9317,5.0513,5.0513,4.9679,4.9167,5.0502,5.0803,5.0803,5.0803,5.1297,5.1521,5.091,5.1297,5.169,5.169,5.169,5.169,5.169,5.169,5.169,5.169,5.169,5.169,5.169,5.169,5.169,5.169,5.169,5.169,5.169,5.169,5.169,5.169,5.169,5.1589,5.1298,5.1595,5.1555,5.1194,5.152,5.1713,5.173,5.173,5.1337,4.4933,4.4895,4.4895,4.4895,4.4895,4.4895,4.4895,4.4895,4.4895,4.4895,4.4895,4.4895,4.4895,4.4895,4.4895,4.4895,4.4895,4.4895,4.4895,4.4895,4.4895,4.4895,4.4895,4.4895,4.4895,4.4895,4.4895,4.4895,4.4895,4.4895,4.4895,4.4895,4.4895,4.4895,4.545,4.5816,4.593,4.6758,4.7526,4.8226,4.8827,4.8504,4.7415,4.9354,5.0362,5.0605,5.1371,5.1723,5.169,5.169,5.169,5.169,5.169,5.169,5.1672,5.1422,5.1333,5.1119,4.9531,4.8978,4.8764,4.7426,4.7372,4.7818,4.7818,4.8371,4.9103,4.9656,5.0156,5.0637,5.1191,5.1114,5.0944,5.1365,5.1418,5.1418,5.1418,5.1571,5.164,5.147,5.1589,5.169,5.169,5.169,5.169,5.169,5.169,5.169,5.169,5.169,5.169,5.169,5.169,5.169,5.169,5.169,5.169,5.169,5.169,5.169,5.169,5.169,5.1907,5.2426,5.2518,5.2536,5.2529,5.2527,5.2554,5.2626,5.2484,5.255,4.5038,4.4948,4.4919,4.4991,4.4943,4.4895,4.4895,4.4895,4.4895,4.4895,4.4895,4.4895,4.4895,4.4895,4.4895,4.4895,4.4895,4.4895,4.4895,4.4895,4.4895,4.4895,4.4895,4.4895,4.4895,4.4895,4.4895,4.4895,4.4895,4.4895,4.4895,4.4895,4.5211,4.5868,4.6403,4.711,4.8003,4.8859,4.9599,5.0274,5.0788,5.0657,4.9972,5.1096,5.1663,5.1782,5.2062,5.203,5.169,5.169,5.169,5.169,5.169,5.169,5.169,5.169,5.169,5.1458,4.987,4.9317,4.9121,4.7872,4.7783,4.8229,4.8532,4.9174,4.9888,5.037,5.0727,5.1083,5.1565,5.169,5.169,5.169,5.169,5.169,5.169,5.169,5.169,5.169,5.169,5.169,5.169,5.169,5.169,5.169,5.169,5.169,5.169,5.169,5.1815,5.2118,5.2172,5.2297,5.26,5.2618,5.2618,5.2618,5.2618,5.2618,5.2618,5.2315,5.2529,5.3314,5.3635,5.3851,5.3934,5.4197,5.4284,5.4353,5.4216,5.4261,4.5222,4.509,4.4991,4.5151,4.5084,4.4943,4.4919,4.4919,4.4919,4.4895,4.4895,4.4895,4.4895,4.4895,4.4895,4.4895,4.4919,4.4919,4.4919,4.4943,4.4967,4.4962,4.4938,4.4933,4.4933,4.4914,4.4933,4.5009,4.5028,4.5047,4.5122,4.5198,4.5925,4.7473,4.7673,4.8859,5.1197,5.1348,5.1716,5.2367,5.3126,5.3343,5.3043,5.2204,5.2192,5.2815,5.2391,5.203,5.174,5.169,5.169,5.169,5.169,5.169,5.169,5.169,5.169,5.1476,4.9959,4.9424,4.9299,4.8532,4.8336,4.8514,4.921,4.9977,5.062,5.062,5.1137,5.169,5.169,5.169,5.169,5.169,5.169,5.169,5.169,5.169,5.169,5.169,5.169,5.169,5.169,5.169,5.169,5.169,5.169,5.169,5.169,5.1762,5.2083,5.2796,5.2939,5.326,5.3956,5.4028,5.4028,5.4028,5.4028,5.4045,5.4135,5.3403,5.335,5.4117,5.4848,5.5241,5.5312,5.6044,5.6401,5.6401,5.6401,5.607,4.5381,4.5341,4.5282,4.5341,4.5321,4.526,4.5151,4.5148,4.5103,4.4919,4.4895,4.4895,4.4895,4.4895,4.4895,4.4895,4.5023,4.5135,4.5148,4.5244,4.5285,4.5292,4.5209,4.5147,4.5147,4.499,4.5174,4.5868,4.5925,4.6215,4.6828,4.7522,4.8045,4.8397,4.9721,5.0644,5.1175,5.2492,5.3221,5.3391,5.4018,5.4312,5.4204,5.3773,5.3438,5.3162,5.2509,5.2155,5.206,5.1822,5.169,5.169,5.169,5.169,5.169,5.169,5.169,5.1547,5.0584,5.0245,5.012,4.9335,4.9495,5.0031,5.0191,5.0798,5.144,5.144,5.1565,5.169,5.169,5.169,5.169,5.169,5.169,5.169,5.169,5.169,5.169,5.169,5.169,5.169,5.169,5.169,5.169,5.169,5.169,5.169,5.169,5.2243,5.2689,5.2868,5.3421,5.3849,5.401,5.4028,5.4028,5.4028,5.4028,5.4295,5.4937,5.4188,5.4152,5.4937,5.5116,5.5508,5.6133,5.6311,5.6401,5.6401,5.6401,5.6328,4.6309,4.6124,4.5956,4.5515,4.54,4.5381,4.532,4.53,4.5279,4.5154,4.5084,4.5061,4.5132,4.5154,4.5154,4.5154,4.522,4.5302,4.53,4.5362,4.5534,4.5973,4.5965,4.6088,4.6462,4.6359,4.6426,4.6882,4.6834,4.7143,4.7965,4.8453,4.9239,5.0439,5.1309,5.2149,5.2964,5.3838,5.4284,5.4284,5.4609,5.4698,5.4597,5.4249,5.3851,5.3404,5.2926,5.2617,5.2454,5.2286,5.2209,5.2209,5.2,5.1951,5.1902,5.1772,5.169,5.1583,5.078,5.0513,5.0441,5.0031,5.0174,5.0584,5.0959,5.1369,5.169,5.169,5.169,5.169,5.169,5.169,5.169,5.169,5.169,5.169,5.169,5.169,5.169,5.169,5.169,5.169,5.169,5.169,5.169,5.169,5.169,5.1833,5.2208,5.2618,5.3171,5.392,5.4349,5.4741,5.5134,5.5152,5.5152,5.5152,5.5152,5.5348,5.5758,5.5384,5.5348,5.5776,5.5776,5.599,5.6401,5.6401,5.6401,5.6401,5.6401,5.6401,4.7478,4.7194,4.6868,4.5933,4.5705,4.5648,4.5476,4.5419,4.5419,4.5419,4.5341,4.5258,4.5381,4.54,4.54,4.54,4.5419,4.5477,4.563,4.5687,4.6032,4.6896,4.6973,4.7203,4.789,4.7824,4.7796,4.7888,4.7889,4.8257,4.9083,4.9409,5.0496,5.257,5.2748,5.3505,5.4901,5.4901,5.4901,5.4901,5.4901,5.4822,5.4629,5.4352,5.4017,5.3719,5.3444,5.3217,5.2944,5.2875,5.2857,5.2857,5.2509,5.2353,5.2307,5.203,5.1853,5.1683,5.1021,5.0758,5.0709,5.0709,5.0709,5.0834,5.1494,5.169,5.169,5.169,5.169,5.169,5.169,5.169,5.169,5.169,5.169,5.169,5.169,5.169,5.169,5.169,5.169,5.169,5.169,5.169,5.169,5.169,5.169,5.1976,5.2779,5.2993,5.3617,5.5062,5.533,5.5687,5.6347,5.6401,5.6401,5.6401,5.6401,5.6401,5.6401,5.6401,5.6401,5.6401,5.6401,5.6401,5.6401,5.6401,5.6401,5.6401,5.6401,5.6401,4.8421,4.8334,4.8056,4.7184,4.6917,4.6634,4.577,4.558,4.558,4.558,4.5456,4.5381,4.54,4.54,4.54,4.54,4.5493,4.5849,4.66,4.6796,4.7206,4.8075,4.8075,4.8044,4.8142,4.7991,4.8097,4.8686,4.9401,5.012,5.0827,5.2238,5.3167,5.3518,5.4189,5.4663,5.4901,5.4901,5.4901,5.4901,5.4901,5.4901,5.4852,5.4629,5.4453,5.4287,5.3757,5.3604,5.3626,5.3171,5.3065,5.3212,5.3152,5.3046,5.2877,5.2834,5.2518,5.2137,5.2029,5.179,5.153,5.153,5.153,5.1547,5.1672,5.169,5.169,5.169,5.169,5.169,5.169,5.169,5.169,5.169,5.169,5.169,5.169,5.169,5.169,5.169,5.169,5.169,5.169,5.169,5.169,5.169,5.169,5.1976,5.2779,5.3457,5.4206,5.5116,5.583,5.6276,5.6383,5.6401,5.6401,5.6401,5.6401,5.6401,5.6401,5.6401,5.6401,5.6401,5.6401,5.6401,5.6401,5.6401,5.6401,5.6401,5.6401,5.6401,4.9508,4.898,4.8448,4.808,4.7971,4.7818,4.7391,4.6913,4.6687,4.7129,4.68,4.6236,4.5706,4.5629,4.5783,4.6265,4.641,4.6731,4.7619,4.7781,4.814,4.903,4.908,4.9222,4.9666,4.9565,4.9798,5.0581,5.0765,5.1421,5.265,5.3329,5.3916,5.4371,5.4731,5.4901,5.4901,5.4901,5.4901,5.4901,5.4901,5.4901,5.4901,5.4822,5.468,5.4486,5.4179,5.4089,5.4106,5.387,5.3833,5.3888,5.3664,5.353,5.3413,5.3234,5.2962,5.2634,5.2427,5.2185,5.1951,5.1772,5.169,5.169,5.169,5.169,5.169,5.169,5.169,5.169,5.169,5.169,5.169,5.169,5.169,5.169,5.169,5.169,5.169,5.169,5.169,5.169,5.169,5.169,5.169,5.169,5.2065,5.2636,5.3421,5.4206,5.4991,5.5794,5.6186,5.6401,5.6401,5.6401,5.6401,5.6401,5.6401,5.6401,5.6401,5.6401,5.6401,5.6401,5.6401,5.6401,5.6401,5.6401,5.6401,5.6401,5.6401,5.6401,5.049,4.981,4.9215,4.9011,4.8932,4.8882,4.866,4.8097,4.7814,4.8398,4.8005,4.7352,4.6629,4.6472,4.6593,4.7018,4.7289,4.7734,4.8604,4.874,4.9049,4.99,4.9997,5.0248,5.0848,5.1001,5.1335,5.1953,5.2132,5.2671,5.3856,5.4011,5.4334,5.4882,5.4901,5.4901,5.4901,5.4901,5.4901,5.4901,5.4901,5.4901,5.4901,5.4901,5.4822,5.468,5.4505,5.4491,5.4524,5.4491,5.4491,5.4491,5.4193,5.405,5.396,5.3721,5.3434,5.3171,5.292,5.2634,5.2353,5.2108,5.2,5.1969,5.1871,5.1822,5.1822,5.174,5.169,5.169,5.169,5.169,5.169,5.169,5.169,5.169,5.169,5.169,5.169,5.169,5.169,5.169,5.169,5.169,5.1762,5.1958,5.2511,5.3225,5.4188,5.4848,5.5508,5.6311,5.6401,5.6401,5.6401,5.6401,5.6401,5.6401,5.6401,5.6401,5.6401,5.6401,5.6401,5.6401,5.6401,5.6401,5.6401,5.6401,5.6401,5.6401,5.6401,5.6401,5.1242,5.1152,5.0879,5.0127,4.9868,4.9629,4.8778,4.8555,4.8525,4.8591,4.8572,4.8491,4.838,4.8313,4.8005,4.7231,4.7792,4.8643,4.9513,4.9629,4.9939,5.0751,5.0848,5.0848,5.0906,5.1641,5.2078,5.2011,5.3455,5.4213,5.3913,5.4688,5.5056,5.4901,5.4901,5.4901,5.4901,5.4901,5.4901,5.4901,5.4901,5.4901,5.4901,5.4901,5.4901,5.4871,5.468,5.4711,5.4871,5.468,5.4711,5.4871,5.4852,5.4711,5.4546,5.4546,5.419,5.3777,5.374,5.3413,5.2962,5.292,5.2864,5.2654,5.2297,5.2185,5.2108,5.1772,5.169,5.169,5.169,5.169,5.169,5.169,5.169,5.169,5.169,5.169,5.169,5.169,5.169,5.169,5.169,5.169,5.1958,5.2707,5.285,5.3421,5.4955,5.5187,5.5508,5.6311,5.6401,5.6401,5.6401,5.6401,5.6401,5.6401,5.6401,5.6401,5.6401,5.6401,5.6401,5.6401,5.6401,5.6401,5.6401,5.6401,5.6401,5.6401,5.6401,5.6401,5.13,5.1284,5.1198,5.0903,5.0828,5.0724,5.0391,4.9904,4.9642,5.016,4.9819,4.9439,4.9404,4.8884,4.8526,4.8754,4.903,4.9513,5.0345,5.048,5.0577,5.0867,5.0906,5.1119,5.1679,5.2008,5.263,5.372,5.4246,5.4685,5.5097,5.5167,5.5176,5.5094,5.4971,5.4901,5.4901,5.4901,5.4901,5.4901,5.4901,5.4901,5.4901,5.4901,5.4901,5.4901,5.4822,5.4822,5.4901,5.4822,5.4822,5.4901,5.4901,5.4871,5.4791,5.4791,5.4597,5.4277,5.4067,5.3795,5.3452,5.313,5.2981,5.2907,5.268,5.2389,5.2185,5.206,5.1871,5.169,5.169,5.169,5.169,5.169,5.169,5.169,5.169,5.169,5.169,5.169,5.169,5.1851,5.2368,5.2457,5.2725,5.3492,5.4045,5.4581,5.5134,5.5651,5.6079,5.6365,5.6401,5.6401,5.6401,5.6401,5.6401,5.6401,5.6401,5.6401,5.6401,5.6401,5.6401,5.6401,5.6401,5.6401,5.6401,5.6401,5.6401,5.6401,5.6401,5.6401,5.13,5.13,5.13,5.13,5.13,5.13,5.13,5.0852,5.0591,5.1122,5.0772,5.0364,5.0333,4.9823,4.9472,4.9708,4.9964,5.0317,5.0828,5.0906,5.0906,5.0906,5.0906,5.1235,5.2124,5.2453,5.3246,5.4697,5.4938,5.5249,5.5767,5.5551,5.5364,5.5288,5.5094,5.5,5.5,5.4912,5.4901,5.4901,5.4901,5.4901,5.4901,5.4901,5.4901,5.4901,5.4901,5.4901,5.4901,5.4901,5.4901,5.4901,5.4901,5.4901,5.4901,5.4901,5.4822,5.4661,5.4463,5.4225,5.3996,5.3645,5.3452,5.333,5.3138,5.2839,5.2572,5.2435,5.2239,5.2066,5.2066,5.1969,5.1822,5.174,5.1904,5.2083,5.2083,5.1886,5.1779,5.2047,5.2083,5.2332,5.3118,5.326,5.3528,5.4313,5.4866,5.5312,5.558,5.6062,5.6401,5.6401,5.6401,5.6401,5.6401,5.6401,5.6401,5.6401,5.6401,5.6401,5.6401,5.6401,5.6401,5.6401,5.6401,5.6401,5.6401,5.6401,5.6401,5.6401,5.6401,5.6401,0.0,0.0,0.0,5.13,5.13,5.13,5.13,5.13,5.13,5.13,5.13,5.1284,5.1201,5.1191,5.0908,4.9983,5.048,5.0976,5.0921,5.0906,5.0906,5.0906,5.0925,5.1293,5.2144,5.3033,5.3904,5.4774,5.5567,5.5922,5.5807,5.5787,5.5703,5.5504,5.5288,5.5183,5.5183,5.5,5.4901,5.4901,5.4901,5.4901,5.4901,5.4901,5.4901,5.4901,5.4901,5.4901,5.4901,5.4901,5.4901,5.4901,5.4901,5.4901,5.4901,5.4901,5.4901,5.4901,5.4901,5.4773,5.4597,5.4597,5.4368,5.4036,5.3719,5.3484,5.3217,5.2937,5.2806,5.2806,5.2806,5.2518,5.2144,5.1858,5.2383,5.2955,5.2955,5.2365,5.1993,5.2761,5.2921,5.3153,5.392,5.4063,5.4331,5.5116,5.5241,5.5526,5.6294,5.6401,5.6401,5.6401,5.6401,5.6401,5.6401,5.6401,5.6401,5.6401,5.6401,5.6401,5.6401,5.6401,5.6401,5.6401,5.6401,5.6401,5.6401,5.6401,5.6401,5.6401,5.6401,5.6401,5.13,0.0,0.0,0.0,0.0,0.0,5.13,5.13,5.13,5.13,5.13,5.1292,5.1284,5.1265,5.1161,5.0869,5.0914,5.099,5.0976,5.0937,5.0906,5.0906,5.1467,5.2182,5.3053,5.3923,5.4774,5.5606,5.5877,5.5975,5.5959,5.5847,5.5703,5.5504,5.5288,5.5183,5.5183,5.5,5.4901,5.4901,5.4901,5.4901,5.4901,5.4901,5.4901,5.4901,5.4901,5.4901,5.4901,5.4901,5.4901,5.4901,5.4901,5.4901,5.4901,5.4901,5.4901,5.4901,5.4901,5.4852,5.4791,5.4629,5.4533,5.4434,5.4233,5.387,5.3484,5.3385,5.3072,5.2806,5.2806,5.2953,5.3135,5.3305,5.3749,5.4129,5.4129,5.395,5.3778,5.3705,5.3706,5.3956,5.4741,5.4884,5.5152,5.5955,5.6062,5.6151,5.6365,5.6401,5.6401,5.6401,5.6401,5.6401,5.6401,5.6401,5.6401,5.6401,5.6401,5.6401,5.6401,5.6401,5.6401,5.6401,5.6401,5.6401,5.6401,5.6401,5.6401,5.6401,5.6401,5.6704,5.13,5.13,5.13,5.13,0.0,0.0,5.13,5.13,5.13,5.13,5.13,5.13,5.13,5.13,5.1292,5.1248,5.115,5.1069,5.1004,5.0961,5.0937,5.0906,5.166,5.2531,5.342,5.4291,5.5122,5.5935,5.6012,5.6012,5.6012,5.5941,5.5827,5.5707,5.5531,5.5413,5.5333,5.5121,5.4971,5.4901,5.4901,5.4901,5.4901,5.4901,5.4901,5.4901,5.4901,5.4901,5.4901,5.4901,5.4901,5.4901,5.4901,5.4901,5.4901,5.4901,5.4901,5.4901,5.4901,5.4901,5.4871,5.4742,5.4661,5.4597,5.4486,5.4214,5.3907,5.3907,5.3882,5.387,5.3964,5.4164,5.4355,5.4492,5.4927,5.5335,5.5335,5.5509,5.5404,5.4616,5.4509,5.4777,5.5562,5.5705,5.5865,5.6329,5.6401,5.6401,5.6401,5.6401,5.6401,5.6401,5.6401,5.6401,5.6401,5.6401,5.6401,5.6401,5.6401,5.6401,5.6401,5.6401,5.6561,5.6882,5.6882,5.7043,5.7364,5.7043,5.7061,5.7364,5.7364,5.7614,5.13,5.13,5.13,5.13,5.13,0.0,5.13,5.13,5.13,5.13,5.13,5.13,5.13,5.13,5.13,5.13,5.1248,5.1161,5.103,5.1004,5.0976,5.0906,5.1757,5.2647,5.342,5.4368,5.5238,5.5954,5.6012,5.6012,5.6012,5.6012,5.6012,5.6012,5.5866,5.5724,5.5527,5.5339,5.5149,5.499,5.499,5.4941,5.4912,5.4912,5.4931,5.4901,5.4901,5.4901,5.4901,5.4901,5.4901,5.4901,5.4901,5.4901,5.4901,5.4901,5.4901,5.4901,5.4901,5.4901,5.4901,5.4901,5.4791,5.4629,5.4629,5.4519,5.4443,5.4503,5.4999,5.5529,5.5761,5.5834,5.5779,5.5495,5.6045,5.6601,5.6601,5.6879,5.6768,5.5668,5.5384,5.5562,5.633,5.6437,5.6492,5.6546,5.6492,5.6437,5.6437,5.6455,5.6401,5.6401,5.6401,5.6401,5.6401,5.6401,5.6401,5.6401,5.6401,5.6436,5.6525,5.6525,5.69,5.7703,5.7703,5.8096,5.8845,5.8096,5.806,5.872,5.872,5.8774,5.13,5.13,5.13,5.13,5.13,0.0,5.13,5.13,5.13,5.13,5.13,5.13,5.13,5.13,5.13,5.13,5.1292,5.1239,5.1105,5.103,5.0976,5.0906,5.2298,5.3304,5.3478,5.4871,5.5838,5.5993,5.6012,5.6012,5.6012,5.6012,5.6012,5.6012,5.5866,5.5787,5.5745,5.5551,5.5432,5.5383,5.5383,5.5307,5.5149,5.5149,5.5038,5.4901,5.4901,5.4901,5.4901,5.4901,5.4901,5.4901,5.4901,5.4901,5.4901,5.4901,5.4901,5.4901,5.4901,5.4901,5.4901,5.4901,5.4871,5.4822,5.4822,5.4711,5.4684,5.5194,5.5967,5.6572,5.6462,5.6651,5.6908,5.7006,5.7401,5.7794,5.7794,5.7813,5.7747,5.7237,5.6613,5.6313,5.6829,5.6899,5.7003,5.7307,5.7087,5.6899,5.6899,5.66,5.6401,5.6401,5.6401,5.6401,5.6401,5.6401,5.6401,5.6401,5.6401,5.6686,5.7328,5.7346,5.7721,5.8488,5.8506,5.8881,5.9666,5.8881,5.8577,5.872,5.872,5.9077,5.13,5.13,5.13,5.13,5.13,0.0,0.0,5.13,5.13,5.13,5.13,5.13,5.13,5.13,5.13,5.13,5.13,5.1256,5.1161,5.1093,5.103,5.0947,5.2465,5.3498,5.3498,5.5026,5.6012,5.6012,5.6012,5.6012,5.6012,5.6012,5.6012,5.6012,5.5922,5.5866,5.5787,5.5703,5.5596,5.5504,5.5504,5.5456,5.5358,5.5255,5.5149,5.5038,5.4941,5.4901,5.4901,5.4901,5.4901,5.4901,5.4901,5.4901,5.4901,5.4901,5.4901,5.4901,5.4901,5.4901,5.4901,5.4901,5.4901,5.4977,5.5413,5.575,5.6128,5.6832,5.731,5.7689,5.7903,5.8089,5.8271,5.8229,5.8405,5.8516,5.8406,5.8257,5.806,5.7895,5.737,5.7036,5.7239,5.7289,5.7356,5.7553,5.7455,5.7289,5.7289,5.6951,5.6689,5.6689,5.6492,5.6401,5.6401,5.6401,5.6561,5.6954,5.6989,5.7328,5.8113,5.8149,5.8524,5.9291,5.9701,6.0112,6.0504,6.0094,5.9916,5.9916,5.9916,6.0112,5.13,5.13,5.13,5.13,5.13,5.13,0.0,0.0,0.0,5.13,5.13,5.13,5.13,5.13,5.13,5.13,5.13,5.1284,5.123,5.1161,5.1093,5.103,5.2511,5.353,5.353,5.5006,5.6012,5.6012,5.6012,5.6012,5.6012,5.6012,5.6012,5.6012,5.6012,5.5959,5.5847,5.5847,5.5766,5.5618,5.5618,5.5596,5.5551,5.5339,5.5255,5.5203,5.5,5.4901,5.4901,5.4901,5.4901,5.4901,5.4901,5.4901,5.4901,5.4901,5.4901,5.4901,5.4901,5.4901,5.4901,5.4901,5.5015,5.5318,5.6171,5.7005,5.775,5.832,5.8555,5.8786,5.925,5.9383,5.9309,5.9101,5.9063,5.8984,5.8821,5.8492,5.8238,5.8213,5.8006,5.7774,5.7726,5.7679,5.7726,5.7774,5.7726,5.7679,5.7679,5.7338,5.7105,5.7105,5.6847,5.6707,5.685,5.6868,5.7209,5.7998,5.8052,5.841,5.9181,5.9248,5.9584,6.0228,6.0831,6.1093,6.1093,6.1093,6.1093,6.1093,6.1093,6.1093,5.13,5.13,5.13,5.13,5.13,5.13,5.13,0.0,5.13,5.13,0.0,5.13,5.13,0.0,0.0,5.13,5.13,5.13,5.1292,5.123,5.1161,5.1093,5.2563,5.3587,5.3587,5.5056,5.6012,5.6012,5.6012,5.6012,5.6012,5.6012,5.6012,5.6012,5.6012,5.5975,5.5977,5.5977,5.5977,5.594,5.594,5.5866,5.5766,5.5551,5.5383,5.5203,5.5,5.4901,5.4901,5.4901,5.4901,5.4901,5.4901,5.4901,5.4901,5.4901,5.4901,5.4901,5.4901,5.4901,5.4901,5.4901,5.5413,5.619,5.7024,5.7858,5.8559,5.8621,5.9171,5.9706,5.9578,5.9581,5.9526,5.929,5.9272,5.9215,5.8984,5.8945,5.8825,5.8656,5.8614,5.8468,5.8123,5.8015,5.8168,5.8511,5.8275,5.8015,5.8015,5.7755,5.7553,5.7553,5.7486,5.7728,5.8487,5.8542,5.8869,5.967,5.9725,6.0071,6.089,6.1172,6.1384,6.1474,6.1275,6.1093,6.1093,6.1093,6.1093,6.1093,6.1093,6.1093,5.13,5.13,5.13,5.13,5.13,5.13,5.13,5.13,5.13,5.13,0.0,0.0,0.0,0.0,0.0,0.0,5.13,5.13,5.13,5.1284,5.123,5.1161,5.264,5.4012,5.4958,5.5636,5.6012,5.6012,5.6012,5.6012,5.6012,5.6012,5.6012,5.6012,5.6012,5.6012,5.6012,5.6012,5.6012,5.6012,5.6012,5.5977,5.5923,5.5747,5.5573,5.5364,5.5176,5.5,5.4901,5.4901,5.4901,5.4901,5.4901,5.4901,5.4901,5.4901,5.4901,5.4901,5.4901,5.5223,5.5735,5.6209,5.6929,5.7706,5.8047,5.8729,5.9393,5.9393,5.9639,5.9885,5.9786,5.9786,5.97,5.9526,5.9491,5.9419,5.9215,5.9063,5.9003,5.8884,5.8781,5.8656,5.8468,5.8468,5.8511,5.8656,5.8553,5.8468,5.8468,5.8123,5.8079,5.8592,5.8439,5.8604,5.9438,5.9511,5.9857,6.066,6.1153,6.1554,6.185,6.2038,6.2113,6.2113,6.1951,6.173,6.1466,6.1466,6.131,6.1093,6.1093,6.1093,5.13,5.13,5.13,5.13,5.13,5.13,5.13,5.13,5.13,5.13,5.13,0.0,0.0,0.0,5.13,5.13,0.0,5.13,5.13,5.13,5.1284,5.123,5.2697,5.4368,5.5971,5.6075,5.6026,5.6026,5.601,5.6012,5.6012,5.6012,5.6012,5.6012,5.6012,5.6012,5.6012,5.6012,5.6012,5.6012,5.6012,5.6012,5.6012,5.5866,5.5724,5.5573,5.5364,5.5203,5.5057,5.5,5.4971,5.4971,5.4931,5.4901,5.4901,5.4901,5.4901,5.4939,5.5166,5.5811,5.6664,5.7479,5.818,5.8729,5.8957,5.943,5.9885,5.9885,5.9885,5.9885,5.9885,5.9885,5.9853,5.9719,5.9685,5.965,5.9419,5.9272,5.914,5.9101,5.8964,5.8937,5.906,5.8888,5.8716,5.8716,5.8902,5.9032,5.9032,5.8986,5.9179,5.9807,5.9614,5.9784,6.0573,6.0646,6.0995,6.1801,6.2425,6.2737,6.2737,6.2636,6.2585,6.2585,6.243,6.222,6.1878,6.1768,6.1561,6.1252,6.1152,6.1093,5.13,5.13,5.13,5.13,5.13,5.13,5.13,5.13,5.13,5.13,5.13,5.13,5.13,5.13,5.13,5.13,5.13,0.0,0.0,5.13,5.13,5.13,5.2767,5.4427,5.6039,5.6146,5.6102,5.6102,5.6043,5.6012,5.6012,5.6012,5.6012,5.6012,5.6012,5.6012,5.6012,5.6012,5.6012,5.6012,5.6012,5.6012,5.6012,5.5866,5.5806,5.5766,5.5573,5.548,5.548,5.5262,5.5183,5.5176,5.4971,5.4901,5.4901,5.4901,5.4901,5.5015,5.5868,5.6683,5.7497,5.8369,5.8672,5.8843,5.962,5.9866,5.9885,5.9885,5.9885,5.9885,5.9885,5.9885,5.9885,5.9885,5.9885,5.982,5.9631,5.9581,5.9526,5.9346,5.9309,5.9478,6.007,5.9324,5.8716,5.8716,5.9367,5.9868,5.9868,6.0611,6.1088,6.115,6.1106,6.144,6.2239,6.2313,6.2666,6.3464,6.3557,6.3557,6.3557,6.3194,6.3002,6.3002,6.2585,6.2378,6.2378,6.1933,6.1712,6.1656,6.131,6.1093,0.0,0.0,5.13,5.13,0.0,0.0,5.13,5.13,5.13,5.13,5.13,5.13,5.13,5.13,5.13,5.13,5.13,5.13,0.0,5.13,5.1515,5.2099,5.3127,5.4449,5.6111,5.6174,5.6102,5.6102,5.6043,5.6012,5.6012,5.6012,5.6012,5.6012,5.6012,5.6012,5.6012,5.6012,5.6012,5.6012,5.6012,5.6012,5.6012,5.594,5.5885,5.5806,5.5724,5.5618,5.5504,5.5432,5.5314,5.5183,5.5121,5.5028,5.4901,5.4901,5.5261,5.5962,5.7365,5.8028,5.8388,5.9222,5.9487,5.9525,5.9809,5.9885,5.9885,5.9885,5.9885,5.9885,5.9885,5.9885,5.9885,5.9885,5.9885,5.9885,5.982,5.9685,5.9731,6.0261,6.0265,6.036,6.0949,6.0774,6.0501,6.0351,6.0593,6.076,6.076,6.102,6.141,6.1949,6.2004,6.232,6.3137,6.3193,6.3323,6.3583,6.3602,6.3602,6.3602,6.3465,6.34,6.34,6.326,6.3051,6.2787,6.2636,6.2412,6.2167,6.2005,6.1636,5.13,5.13,0.0,5.13,5.13,0.0,5.13,0.0,5.13,5.13,5.13,5.13,5.13,5.13,5.13,5.13,5.13,5.13,0.0,5.13,5.1749,5.2918,5.3506,5.4363,5.5744,5.6045,5.6141,5.6102,5.6075,5.6026,5.5993,5.6012,5.6012,5.6012,5.6012,5.6012,5.6012,5.6012,5.6012,5.6012,5.6012,5.6012,5.6012,5.6012,5.594,5.5866,5.5866,5.5788,5.5665,5.5618,5.5527,5.5389,5.5262,5.5293,5.5436,5.5386,5.6095,5.7232,5.8331,5.8881,5.9203,5.9715,5.9885,5.9885,5.9885,5.9885,5.9942,6.0245,6.0113,5.9961,6.0245,6.0094,5.9885,5.9885,5.9885,5.998,6.0245,6.0203,6.0399,6.1269,6.1314,6.1412,6.203,6.2141,6.1927,6.1267,6.1447,6.1633,6.1633,6.1893,6.2264,6.2784,6.284,6.3044,6.3565,6.3602,6.3602,6.3602,6.3602,6.3602,6.3602,6.3602,6.3602,6.3602,6.3602,6.3465,6.3194,6.3051,6.2855,6.2585,6.2482,6.2113]},{"header":{"parameterUnit":"m.s-1","parameterCategory":1,"la1":30.6,"la2":29.2853,"lo1":-89.7004,"lo2":-87.6739,"dy":0.0162,"dx":0.0183,"nx":112,"ny":82,"refTime":"2024-03-22T06:00:00:Z","depth":0,"parameterNumber":3,"parameterNumberName":"V-component_of_WINDS"},"data":[0.0,0.0,0.0,0.0,0.0,0.0,0.0,0.0,0.0,0.0,0.0,0.0,0.0,0.0,0.0,0.0,0.0,0.0,0.0,0.0,0.0,0.0,0.0,0.0,0.0,0.0,0.0,0.0,0.0,0.0,0.0,0.0,0.0,0.0,0.0,0.0,0.0,0.0,0.0,0.0,0.0,0.0,0.0,0.0,0.0,0.0,0.0,0.0,0.0,0.0,0.0,0.0,0.0,0.0,0.0,0.0,0.0,0.0,0.0,0.0,0.0,0.0,0.0,0.0,0.0,0.0,0.0,0.0,0.0,0.0,0.0,0.0,0.0,0.0,0.0,0.0,0.0,0.0,0.0,0.0,0.0,0.0,0.0,0.0,0.0,0.0,0.0,0.0,0.0,0.0,-2.4152,-2.4152,-2.4152,-2.4152,-2.4152,-2.4152,-2.4152,-2.4152,0.0,0.0,0.0,0.0,0.0,0.0,0.0,0.0,0.0,0.0,0.0,0.0,0.0,0.0,0.0,0.0,0.0,0.0,0.0,0.0,0.0,0.0,0.0,0.0,0.0,0.0,0.0,0.0,0.0,0.0,0.0,0.0,0.0,0.0,0.0,0.0,0.0,0.0,0.0,0.0,0.0,0.0,0.0,0.0,0.0,0.0,0.0,0.0,0.0,0.0,0.0,0.0,0.0,0.0,0.0,0.0,0.0,0.0,0.0,0.0,0.0,0.0,0.0,0.0,0.0,0.0,0.0,0.0,0.0,0.0,0.0,0.0,0.0,0.0,0.0,0.0,0.0,0.0,0.0,0.0,0.0,0.0,0.0,0.0,0.0,0.0,0.0,0.0,0.0,0.0,0.0,0.0,0.0,0.0,0.0,0.0,0.0,0.0,0.0,0.0,0.0,0.0,0.0,0.0,-2.4152,-2.4152,-2.4152,-2.4152,-2.4152,-2.4152,-2.4152,-2.4152,0.0,0.0,0.0,0.0,0.0,0.0,0.0,0.0,0.0,0.0,0.0,0.0,0.0,0.0,0.0,0.0,0.0,0.0,0.0,0.0,0.0,0.0,0.0,0.0,0.0,0.0,0.0,0.0,0.0,0.0,0.0,0.0,0.0,0.0,0.0,0.0,0.0,0.0,0.0,0.0,0.0,0.0,0.0,0.0,0.0,0.0,0.0,0.0,0.0,0.0,0.0,0.0,0.0,0.0,0.0,0.0,0.0,0.0,0.0,0.0,0.0,0.0,0.0,0.0,0.0,0.0,0.0,0.0,0.0,0.0,0.0,0.0,0.0,0.0,0.0,0.0,0.0,0.0,0.0,0.0,0.0,0.0,0.0,0.0,0.0,0.0,0.0,0.0,0.0,0.0,0.0,0.0,0.0,0.0,0.0,0.0,0.0,0.0,0.0,0.0,0.0,0.0,0.0,-2.4044,-2.4152,-2.4152,-2.4152,-2.4152,-2.4152,-2.4152,-2.4152,-2.4152,-2.4152,0.0,0.0,0.0,0.0,0.0,0.0,0.0,0.0,0.0,0.0,0.0,0.0,0.0,0.0,0.0,0.0,0.0,0.0,0.0,0.0,0.0,0.0,0.0,0.0,0.0,0.0,0.0,0.0,0.0,0.0,0.0,0.0,0.0,0.0,0.0,0.0,0.0,0.0,0.0,0.0,0.0,0.0,0.0,0.0,0.0,0.0,0.0,0.0,0.0,0.0,0.0,0.0,0.0,0.0,0.0,0.0,0.0,0.0,0.0,0.0,0.0,0.0,0.0,0.0,0.0,0.0,0.0,0.0,0.0,0.0,0.0,0.0,0.0,0.0,0.0,0.0,0.0,0.0,0.0,0.0,0.0,0.0,0.0,0.0,0.0,0.0,0.0,0.0,0.0,0.0,0.0,0.0,0.0,0.0,0.0,0.0,0.0,0.0,0.0,0.0,0.0,0.0,-2.3945,-2.4152,-2.4152,-2.4152,-2.4152,-2.4152,-2.4152,-2.4152,-2.4152,-2.4152,0.0,0.0,0.0,0.0,0.0,0.0,0.0,0.0,0.0,0.0,0.0,0.0,0.0,0.0,0.0,0.0,0.0,0.0,0.0,0.0,0.0,0.0,0.0,0.0,0.0,0.0,0.0,0.0,0.0,0.0,0.0,0.0,0.0,0.0,0.0,0.0,0.0,0.0,0.0,0.0,0.0,0.0,0.0,0.0,0.0,0.0,0.0,0.0,0.0,0.0,0.0,0.0,0.0,0.0,0.0,0.0,0.0,0.0,0.0,0.0,0.0,0.0,0.0,0.0,0.0,0.0,0.0,0.0,0.0,0.0,0.0,0.0,0.0,0.0,0.0,0.0,0.0,0.0,0.0,0.0,0.0,0.0,0.0,0.0,0.0,0.0,0.0,0.0,0.0,0.0,0.0,0.0,0.0,0.0,0.0,0.0,0.0,0.0,0.0,0.0,0.0,0.0,-2.4152,-2.4152,-2.4152,-2.4152,-2.4152,-2.4152,-2.4152,-2.4152,-2.4152,-2.4152,0.0,0.0,0.0,0.0,0.0,0.0,0.0,0.0,0.0,0.0,0.0,0.0,0.0,0.0,0.0,0.0,0.0,0.0,0.0,0.0,0.0,0.0,0.0,0.0,0.0,0.0,0.0,0.0,0.0,0.0,0.0,0.0,0.0,0.0,0.0,0.0,0.0,0.0,0.0,0.0,0.0,0.0,0.0,0.0,0.0,0.0,0.0,0.0,0.0,0.0,0.0,0.0,0.0,0.0,0.0,0.0,0.0,0.0,0.0,0.0,0.0,0.0,0.0,0.0,0.0,0.0,0.0,0.0,0.0,0.0,0.0,0.0,0.0,0.0,0.0,0.0,0.0,0.0,0.0,0.0,0.0,0.0,0.0,0.0,0.0,0.0,0.0,0.0,0.0,0.0,0.0,0.0,0.0,0.0,0.0,0.0,0.0,0.0,0.0,0.0,0.0,0.0,-2.3945,-2.4152,-2.4152,-2.4152,-2.4152,-2.4152,-2.4152,-2.4152,-2.4152,0.0,0.0,0.0,0.0,0.0,0.0,0.0,0.0,0.0,0.0,0.0,0.0,0.0,0.0,0.0,0.0,0.0,0.0,0.0,0.0,0.0,0.0,0.0,0.0,0.0,0.0,0.0,0.0,0.0,0.0,0.0,0.0,0.0,0.0,0.0,0.0,0.0,0.0,0.0,0.0,0.0,0.0,0.0,0.0,0.0,0.0,0.0,0.0,0.0,0.0,0.0,0.0,0.0,0.0,0.0,0.0,0.0,0.0,0.0,0.0,0.0,0.0,0.0,0.0,0.0,0.0,0.0,0.0,0.0,0.0,0.0,0.0,0.0,0.0,0.0,0.0,0.0,0.0,0.0,0.0,0.0,0.0,0.0,0.0,0.0,0.0,0.0,0.0,0.0,0.0,0.0,0.0,0.0,0.0,0.0,0.0,0.0,0.0,0.0,0.0,0.0,0.0,-2.3538,-2.3945,-2.4152,-2.4152,-2.4152,-2.4152,-2.4152,-2.4152,-2.4152,-2.4152,0.0,0.0,0.0,0.0,0.0,0.0,0.0,0.0,0.0,0.0,0.0,0.0,0.0,0.0,0.0,0.0,0.0,0.0,0.0,0.0,0.0,0.0,0.0,0.0,0.0,0.0,0.0,0.0,0.0,0.0,0.0,0.0,0.0,0.0,0.0,0.0,0.0,0.0,0.0,0.0,0.0,0.0,0.0,0.0,0.0,0.0,0.0,0.0,0.0,0.0,0.0,0.0,0.0,0.0,0.0,0.0,0.0,0.0,0.0,0.0,0.0,0.0,0.0,0.0,0.0,0.0,0.0,0.0,0.0,0.0,0.0,0.0,0.0,0.0,0.0,0.0,0.0,0.0,0.0,0.0,0.0,0.0,0.0,0.0,0.0,0.0,0.0,0.0,0.0,0.0,0.0,0.0,0.0,0.0,0.0,0.0,0.0,0.0,0.0,0.0,0.0,0.0,-2.4152,-2.4152,-2.4152,-2.4251,-2.4251,-2.4251,-2.4251,-2.4251,-2.4251,0.0,0.0,0.0,0.0,0.0,0.0,0.0,0.0,0.0,0.0,0.0,0.0,0.0,0.0,0.0,0.0,0.0,0.0,0.0,0.0,0.0,0.0,0.0,0.0,0.0,0.0,0.0,0.0,0.0,0.0,0.0,0.0,0.0,0.0,0.0,0.0,0.0,0.0,0.0,0.0,0.0,0.0,0.0,0.0,0.0,0.0,0.0,0.0,0.0,0.0,0.0,0.0,0.0,0.0,0.0,0.0,0.0,0.0,0.0,0.0,0.0,0.0,0.0,0.0,0.0,0.0,0.0,0.0,0.0,0.0,0.0,0.0,0.0,0.0,0.0,0.0,0.0,0.0,0.0,0.0,0.0,0.0,0.0,0.0,0.0,0.0,0.0,0.0,0.0,0.0,0.0,0.0,0.0,0.0,0.0,0.0,0.0,0.0,0.0,0.0,0.0,0.0,0.0,-2.4053,-2.4152,-2.444,-2.4913,-2.5011,-2.5206,-2.5781,-2.5781,-2.5586,-2.5011,0.0,0.0,0.0,0.0,0.0,0.0,0.0,0.0,0.0,0.0,0.0,0.0,0.0,0.0,0.0,0.0,0.0,0.0,0.0,0.0,0.0,0.0,0.0,0.0,0.0,0.0,0.0,0.0,0.0,0.0,0.0,0.0,0.0,0.0,0.0,0.0,0.0,0.0,0.0,0.0,0.0,0.0,0.0,0.0,0.0,0.0,0.0,0.0,0.0,0.0,0.0,0.0,0.0,0.0,0.0,0.0,0.0,0.0,0.0,0.0,0.0,0.0,0.0,0.0,0.0,0.0,0.0,0.0,0.0,0.0,0.0,0.0,0.0,0.0,0.0,0.0,0.0,0.0,0.0,0.0,0.0,0.0,0.0,0.0,0.0,0.0,0.0,0.0,0.0,0.0,0.0,0.0,0.0,0.0,0.0,0.0,0.0,0.0,0.0,0.0,0.0,0.0,-2.3395,-2.3984,-2.4588,-2.4967,-2.5083,-2.5236,-2.5714,-2.622,-2.6264,-2.5771,0.0,0.0,0.0,0.0,0.0,0.0,0.0,0.0,0.0,0.0,0.0,0.0,0.0,0.0,0.0,0.0,0.0,0.0,0.0,0.0,0.0,0.0,0.0,0.0,0.0,0.0,0.0,0.0,0.0,0.0,0.0,0.0,0.0,0.0,0.0,0.0,0.0,0.0,0.0,0.0,0.0,0.0,0.0,0.0,0.0,0.0,0.0,0.0,0.0,0.0,0.0,0.0,0.0,0.0,0.0,0.0,0.0,0.0,0.0,0.0,0.0,0.0,0.0,0.0,0.0,0.0,0.0,0.0,0.0,0.0,0.0,0.0,0.0,0.0,0.0,0.0,0.0,0.0,0.0,0.0,0.0,0.0,0.0,0.0,0.0,0.0,0.0,0.0,0.0,0.0,0.0,0.0,0.0,0.0,0.0,0.0,0.0,0.0,0.0,0.0,0.0,0.0,-2.2567,-2.3734,-2.464,-2.4726,-2.475,-2.4839,-2.5066,-2.6074,-2.6713,-2.6723,0.0,0.0,0.0,0.0,0.0,0.0,0.0,0.0,0.0,0.0,0.0,0.0,0.0,0.0,0.0,0.0,0.0,0.0,0.0,0.0,0.0,0.0,0.0,0.0,0.0,0.0,0.0,0.0,0.0,0.0,0.0,0.0,0.0,0.0,0.0,0.0,0.0,0.0,0.0,0.0,0.0,0.0,0.0,0.0,0.0,0.0,0.0,0.0,0.0,0.0,0.0,0.0,0.0,0.0,0.0,0.0,0.0,0.0,0.0,0.0,-2.2509,-2.1725,0.0,0.0,0.0,0.0,0.0,0.0,0.0,0.0,0.0,0.0,0.0,0.0,0.0,0.0,0.0,0.0,0.0,0.0,0.0,0.0,0.0,0.0,0.0,0.0,0.0,0.0,0.0,0.0,0.0,0.0,0.0,0.0,0.0,0.0,0.0,0.0,0.0,0.0,0.0,0.0,-2.3514,-2.4105,-2.4419,-2.4876,-2.4907,-2.5764,-2.7708,-2.8134,-2.8267,-2.8347,-2.8019,0.0,0.0,0.0,0.0,0.0,0.0,0.0,0.0,0.0,0.0,0.0,0.0,0.0,0.0,0.0,0.0,0.0,0.0,0.0,0.0,0.0,0.0,0.0,0.0,0.0,0.0,0.0,0.0,0.0,0.0,0.0,0.0,0.0,0.0,0.0,0.0,0.0,0.0,0.0,0.0,0.0,0.0,0.0,0.0,0.0,0.0,0.0,0.0,0.0,0.0,0.0,0.0,0.0,0.0,0.0,0.0,0.0,0.0,0.0,-2.3872,-2.3384,0.0,0.0,0.0,0.0,0.0,0.0,0.0,0.0,0.0,0.0,0.0,0.0,0.0,0.0,0.0,0.0,0.0,0.0,0.0,0.0,0.0,0.0,0.0,0.0,0.0,0.0,0.0,0.0,0.0,0.0,0.0,0.0,0.0,0.0,0.0,0.0,0.0,0.0,0.0,0.0,-2.152,-2.3343,-2.4846,-2.5331,-2.5425,-2.5929,-2.7272,-2.7424,-2.7771,-2.8704,-2.88,0.0,0.0,0.0,0.0,0.0,0.0,0.0,0.0,0.0,0.0,0.0,0.0,0.0,0.0,0.0,0.0,0.0,0.0,0.0,0.0,0.0,0.0,0.0,0.0,0.0,0.0,0.0,0.0,0.0,0.0,0.0,0.0,0.0,0.0,0.0,0.0,0.0,0.0,0.0,0.0,0.0,0.0,0.0,0.0,0.0,0.0,0.0,0.0,0.0,0.0,0.0,0.0,0.0,-2.6426,-2.6426,-2.5509,-2.6021,-2.6234,-2.6234,-2.5712,-2.5315,-2.5032,-2.4365,0.0,0.0,0.0,0.0,0.0,0.0,0.0,0.0,0.0,0.0,0.0,0.0,0.0,0.0,0.0,0.0,0.0,0.0,0.0,0.0,0.0,0.0,-2.4638,-2.4573,-2.4631,-2.4496,-2.4226,0.0,0.0,0.0,0.0,0.0,0.0,0.0,0.0,0.0,0.0,0.0,-2.0172,-2.3017,-2.5385,-2.5849,-2.5905,-2.5894,-2.5894,-2.5923,-2.6601,-2.8186,-2.8621,-2.8774,0.0,0.0,0.0,0.0,0.0,0.0,0.0,0.0,0.0,0.0,0.0,0.0,0.0,0.0,0.0,0.0,0.0,0.0,0.0,0.0,0.0,0.0,0.0,0.0,0.0,0.0,0.0,0.0,0.0,0.0,0.0,0.0,-2.2929,-2.3945,0.0,0.0,0.0,0.0,0.0,0.0,0.0,0.0,0.0,0.0,0.0,0.0,0.0,-2.5751,-2.6254,-2.701,-2.7295,-2.7189,-2.807,-2.8456,-2.8258,-2.8362,-2.8362,-2.8362,-2.8351,0.0,-2.6244,-2.5654,0.0,0.0,0.0,0.0,0.0,0.0,0.0,0.0,0.0,0.0,0.0,0.0,0.0,0.0,0.0,0.0,0.0,0.0,0.0,0.0,0.0,0.0,-2.6214,-2.6184,-2.6184,-2.5843,-2.4449,-2.425,-2.4228,-2.4228,-2.4211,-2.4136,0.0,0.0,0.0,0.0,0.0,0.0,-2.4674,-2.5466,-2.5818,-2.5847,-2.5899,-2.5888,-2.5888,-2.5937,-2.6012,-2.6303,-2.7865,-2.8765,-2.881,-2.88,0.0,0.0,0.0,0.0,0.0,0.0,0.0,0.0,0.0,0.0,0.0,0.0,0.0,0.0,0.0,0.0,0.0,0.0,0.0,0.0,0.0,0.0,0.0,0.0,0.0,0.0,0.0,0.0,0.0,-2.2137,-2.2487,-2.2982,-2.2241,-2.175,0.0,0.0,0.0,0.0,0.0,0.0,0.0,0.0,0.0,-2.5485,-2.5785,-2.6259,-2.6915,-2.7291,-2.7474,-2.7474,-2.7757,-2.7949,-2.7949,-2.7949,-2.7949,-2.7949,-2.7949,-2.7564,-2.6957,-2.6804,-2.6416,-2.5732,0.0,0.0,0.0,0.0,-2.4543,-2.5334,-2.5809,-2.6098,-2.6406,-2.6406,0.0,0.0,0.0,0.0,0.0,0.0,0.0,-2.4641,-2.4335,-2.4721,-2.5638,-2.7391,-2.7812,-2.7624,-2.6928,-2.59,-2.5482,-2.6568,-2.6796,-2.6445,-2.5348,-2.252,0.0,0.0,0.0,-2.4553,-2.5744,-2.5912,-2.591,-2.5906,-2.5895,-2.5895,-2.5895,-2.5869,-2.5872,-2.5883,-2.6745,-2.764,-2.8721,-2.8778,-2.8757,0.0,0.0,0.0,0.0,0.0,0.0,0.0,0.0,0.0,0.0,0.0,0.0,0.0,0.0,0.0,0.0,0.0,0.0,0.0,0.0,0.0,0.0,0.0,0.0,0.0,0.0,0.0,0.0,-2.2066,-2.2167,-2.2167,-2.1803,-2.1458,0.0,0.0,0.0,0.0,0.0,0.0,-2.3712,-2.4291,-2.4997,-2.5834,-2.6304,-2.6772,-2.7304,-2.7315,-2.7315,-2.7315,-2.7315,-2.7315,-2.7315,-2.7315,-2.7315,-2.7315,-2.7315,-2.7315,-2.7281,-2.743,-2.7139,-2.6556,-2.5894,-2.5398,-2.5102,-2.4996,-2.5398,-2.6178,-2.6744,-2.7222,-2.7522,-2.7522,-2.7533,-2.7554,-2.6733,0.0,0.0,0.0,0.0,-2.6817,-2.5656,-2.5017,-2.5239,-2.7479,-2.8088,-2.8066,-2.8064,-2.69,-2.6306,-2.7771,-2.8061,-2.764,-2.6178,-2.4196,0.0,-2.2766,-2.4557,-2.5926,-2.5871,-2.591,-2.5895,-2.5895,-2.5895,-2.5895,-2.5895,-2.5895,-2.592,-2.5926,-2.5892,-2.6743,-2.8757,-2.884,-2.8762,-2.8757,0.0,0.0,0.0,0.0,0.0,0.0,0.0,0.0,0.0,0.0,0.0,0.0,0.0,0.0,0.0,0.0,0.0,0.0,0.0,0.0,0.0,0.0,0.0,0.0,0.0,0.0,0.0,0.0,0.0,-2.2167,-2.1848,0.0,0.0,0.0,0.0,-2.2334,-2.2176,-2.278,-2.4601,-2.5213,-2.6048,-2.7205,-2.7216,-2.7216,-2.7315,-2.7315,-2.7315,-2.7315,-2.7315,-2.7315,-2.7315,-2.7315,-2.7315,-2.7315,-2.7315,-2.7315,-2.7315,-2.727,-2.6936,-2.6208,-2.5634,-2.5725,-2.6107,-2.5543,-2.6177,-2.7203,-2.7292,-2.7292,-2.7292,-2.7292,-2.7535,-2.7922,-2.8477,-2.8633,0.0,0.0,-2.8633,-2.8711,-2.8577,-2.7238,-2.5847,-2.6045,-2.6055,-2.6059,-2.6033,-2.5937,-2.5936,-2.6013,-2.603,-2.6033,-2.5911,0.0,-2.5733,-2.5722,-2.5829,-2.5871,-2.5939,-2.5906,-2.5895,-2.5895,-2.5895,-2.5895,-2.5895,-2.5895,-2.5906,-2.5928,-2.5904,-2.6759,-2.8754,-2.8768,-2.8818,-2.8839,-2.8757,0.0,0.0,0.0,0.0,0.0,0.0,0.0,0.0,0.0,0.0,0.0,0.0,0.0,0.0,0.0,0.0,0.0,0.0,0.0,0.0,0.0,0.0,0.0,0.0,0.0,0.0,0.0,0.0,-2.1414,-2.1916,0.0,-2.1977,-2.2036,-2.2473,-2.3424,-2.3704,-2.4303,-2.5252,-2.5626,-2.5883,-2.6227,-2.6312,-2.6409,-2.6409,-2.6409,-2.6409,-2.6409,-2.6409,-2.6409,-2.6409,-2.6409,-2.6409,-2.6409,-2.6409,-2.6727,-2.7223,-2.7223,-2.7081,-2.6861,-2.6672,-2.6761,-2.6861,-2.6672,-2.6939,-2.7315,-2.7315,-2.7315,-2.7382,-2.7513,-2.7967,-2.8528,-2.8729,-2.7917,-2.6944,-2.6965,-2.6931,-2.6887,-2.6955,-2.6389,-2.5925,-2.5873,-2.5904,-2.5872,-2.5934,-2.5912,-2.586,-2.5883,-2.5903,-2.5934,-2.5914,-2.5912,-2.591,-2.591,-2.591,-2.5888,-2.5906,-2.5895,-2.5895,-2.5895,-2.5895,-2.5895,-2.5895,-2.5895,-2.5895,-2.5895,-2.5883,-2.6216,-2.6909,-2.8175,-2.8807,-2.8839,-2.8757,-2.8757,0.0,0.0,0.0,0.0,0.0,0.0,0.0,0.0,0.0,0.0,0.0,0.0,0.0,0.0,0.0,0.0,0.0,0.0,0.0,0.0,0.0,0.0,0.0,0.0,0.0,-2.1238,-2.1427,-2.1427,-2.2315,-2.2746,-2.2473,-2.2833,-2.3454,-2.4402,-2.4594,-2.4861,-2.5464,-2.5644,-2.5738,-2.5559,-2.5822,-2.5895,-2.5895,-2.5895,-2.5895,-2.5895,-2.6218,-2.6302,-2.6385,-2.661,-2.6775,-2.6775,-2.6775,-2.7092,-2.7568,-2.7568,-2.7635,-2.7651,-2.7651,-2.7651,-2.7651,-2.7651,-2.7651,-2.7651,-2.7498,-2.739,-2.7346,-2.7172,-2.7467,-2.8033,-2.9153,-2.7824,-2.5888,-2.5925,-2.5883,-2.5916,-2.5881,-2.5903,-2.5925,-2.5877,-2.5895,-2.5895,-2.5895,-2.5895,-2.5895,-2.5895,-2.5895,-2.5895,-2.5895,-2.5895,-2.5895,-2.5895,-2.5895,-2.5895,-2.5895,-2.5895,-2.5895,-2.5895,-2.5895,-2.5895,-2.5895,-2.5895,-2.5895,-2.5895,-2.586,-2.5915,-2.5904,-2.7755,-2.8756,-2.8839,-2.8795,-2.8833,-2.8778,0.0,0.0,0.0,0.0,0.0,0.0,0.0,0.0,0.0,0.0,0.0,0.0,0.0,0.0,0.0,0.0,0.0,0.0,0.0,0.0,0.0,0.0,0.0,-2.2306,-2.2394,-2.2394,-2.2394,-2.2862,-2.3212,-2.3434,-2.329,-2.3744,-2.5115,-2.4594,-2.4509,-2.52,-2.5475,-2.5559,-2.557,-2.5812,-2.5895,-2.5895,-2.5895,-2.5895,-2.5979,-2.6787,-2.7185,-2.7255,-2.8028,-2.8414,-2.8414,-2.8426,-2.8414,-2.8414,-2.8414,-2.8414,-2.8505,-2.8426,-2.8426,-2.8414,-2.8414,-2.8426,-2.8323,-2.7802,-2.7561,-2.7387,-2.6291,-2.5939,-2.6655,-2.9978,-2.8681,-2.6064,-2.6075,-2.6062,-2.6043,-2.5928,-2.5892,-2.5874,-2.5884,-2.5884,-2.5884,-2.5895,-2.5895,-2.5895,-2.5895,-2.5895,-2.5895,-2.5895,-2.5895,-2.5895,-2.5895,-2.5895,0.0,-2.5895,-2.5895,-2.5895,-2.5895,-2.5895,-2.5895,-2.5895,-2.5895,-2.5895,-2.5895,-2.5895,-2.5936,-2.5893,-2.7785,-2.8765,-2.8828,-2.8789,-2.8829,-2.8867,0.0,0.0,0.0,0.0,0.0,0.0,0.0,0.0,0.0,0.0,0.0,0.0,0.0,0.0,0.0,0.0,0.0,0.0,0.0,0.0,0.0,-2.2561,-2.2482,-2.1961,-2.2482,-2.2921,-2.2921,-2.381,-2.4423,-2.4509,-2.4594,-2.4765,-2.52,-2.502,-2.4935,-2.4946,-2.5391,-2.5475,-2.5295,-2.5728,-2.5895,-2.5895,-2.5895,-2.6229,-2.6857,-2.7103,-2.7499,-2.8028,-2.7873,-2.7814,-2.7814,-2.8195,-2.8373,-2.8378,-2.8378,-2.9158,-3.0177,-2.89,-2.8171,-2.7814,-2.7814,-2.8056,-2.8414,-2.8195,-2.7415,-2.6294,-2.6023,-2.7609,-2.9783,-3.0727,-3.034,-2.9621,-2.9621,-2.9585,-2.904,-2.6531,-2.5891,-2.5934,-2.5924,-2.5898,-2.5881,-2.5935,-2.5895,-2.5895,-2.5895,-2.5895,-2.5895,-2.5895,-2.5895,-2.5895,-2.5895,-2.5895,-2.5895,-2.5895,-2.5895,-2.5895,-2.5895,-2.5895,-2.5895,-2.5895,-2.5895,-2.5895,-2.5895,-2.5895,-2.5936,-2.5893,-2.7734,-2.8813,-2.8839,-2.8789,-2.9498,0.0,0.0,0.0,0.0,0.0,0.0,0.0,0.0,0.0,0.0,0.0,0.0,0.0,0.0,0.0,0.0,0.0,0.0,0.0,0.0,0.0,0.0,-2.3454,-2.3464,-2.294,-2.3377,-2.3724,-2.3724,-2.4348,-2.47,-2.47,-2.4871,-2.4871,-2.4871,-2.4871,-2.4871,-2.47,-2.5211,-2.538,-2.52,-2.5644,-2.5895,-2.5895,-2.5895,-2.6302,-2.7185,-2.7325,-2.7853,-2.876,-2.8922,-2.904,-2.9052,-2.9332,-2.9514,-2.9491,-2.9491,-3.0087,-3.0911,0.0,0.0,0.0,0.0,-2.9192,-2.9459,-2.9459,-2.8855,-2.8056,-2.8056,-2.9391,-3.1026,-3.0981,-3.097,-3.1008,-3.0971,-3.0969,-3.0567,-2.8518,-2.8028,-2.8024,-2.8042,-2.6979,-2.5864,-2.5891,-2.5924,-2.5886,-2.5937,-2.5876,0.0,-2.5874,-2.5895,-2.5895,-2.5895,-2.5895,-2.5895,-2.5895,-2.5895,-2.5895,-2.5895,-2.5895,-2.5895,-2.5895,-2.5895,0.0,0.0,0.0,-2.6281,-2.7041,-2.8221,0.0,0.0,0.0,-2.9772,-3.166,-3.1675,0.0,0.0,-3.1661,-3.1661,0.0,0.0,0.0,0.0,0.0,0.0,0.0,0.0,0.0,0.0,0.0,0.0,0.0,0.0,0.0,0.0,-2.3993,-2.454,-2.454,-2.454,-2.454,-2.454,-2.454,-2.454,-2.454,-2.454,-2.454,-2.454,-2.454,-2.454,-2.454,-2.4956,0.0,0.0,0.0,-2.5884,-2.5935,-2.5935,-2.6295,-2.7024,-2.7449,-2.8331,-2.9566,-3.0545,-3.0986,-3.0986,-3.0986,-3.0986,-3.0986,-3.0986,-3.0986,-3.0986,-3.0986,-3.0986,-3.0986,-3.0986,-3.0986,-3.0986,-3.0986,0.0,0.0,-3.0986,-3.0986,-3.0986,-3.0986,-3.0986,-3.0986,-3.0986,-3.0968,-3.0971,-3.0971,-3.1035,-3.1029,-3.0988,-2.8712,-2.6495,-2.645,-2.6462,-2.6462,-2.6506,-2.6125,-2.5891,-2.592,-2.5935,-2.5895,-2.5895,-2.5895,-2.5895,-2.5895,-2.5895,-2.5895,-2.5895,-2.5895,0.0,-2.5895,-2.5895,-2.5917,-2.5877,-2.6119,-2.6988,-2.8711,-2.8796,-2.8811,-2.881,-2.8807,-2.9624,-3.136,-3.1615,-3.1651,-3.1661,-3.1661,-3.1737,0.0,0.0,0.0,0.0,0.0,0.0,0.0,0.0,0.0,0.0,0.0,0.0,0.0,0.0,0.0,-2.4262,-2.4368,-2.454,-2.454,-2.454,-2.454,-2.454,-2.454,-2.454,-2.454,-2.454,-2.454,-2.454,-2.454,-2.454,-2.454,-2.4956,-2.5179,-2.5062,-2.5622,-2.5859,-2.5864,-2.5935,-2.6004,-2.6138,-2.7598,0.0,-3.0709,-3.0898,-3.0986,-3.0986,-3.0986,-3.0986,-3.0986,-3.0986,-3.0986,-3.0986,-3.0986,-3.0986,-3.0986,-3.0986,-3.0986,-3.0986,-3.0986,-3.0986,-3.0986,-3.0986,-3.0986,-3.0986,-3.0986,-3.0986,0.0,-3.0986,-3.1026,-3.1003,-3.1003,-3.0979,-3.102,-3.0984,-3.0508,-2.9993,-3.0032,-3.0002,-3.0027,-3.001,-2.7806,-2.5893,-2.5869,-2.5898,-2.5895,-2.5895,-2.5895,-2.5895,-2.5895,-2.5895,-2.5895,-2.5895,-2.5895,-2.5895,-2.5895,-2.5895,-2.5931,-2.5873,-2.7326,-2.8364,-2.8824,-2.8837,-2.8817,-2.8762,-2.8818,-2.9025,-2.9387,-3.0968,-3.1697,-3.1661,-3.1661,-3.1728,0.0,0.0,0.0,0.0,0.0,0.0,0.0,0.0,0.0,0.0,0.0,-2.5475,-2.5115,0.0,-2.4786,-2.454,-2.454,-2.454,-2.454,-2.454,-2.454,-2.454,-2.454,-2.454,-2.454,-2.454,-2.454,-2.454,-2.454,-2.454,-2.454,-2.4882,-2.5115,-2.5084,-2.5654,-2.5863,-2.5915,-2.7567,-2.8042,-2.7172,-2.7162,-2.8507,-3.0986,-3.0986,-3.0986,-3.0986,-3.0986,-3.0986,-3.0986,-3.0986,-3.0986,-3.0986,-3.0986,-3.0986,-3.0986,-3.0986,-3.0986,-3.0986,-3.0986,-3.0986,-3.0986,-3.0986,-3.0986,-3.0986,-3.0986,-3.0986,-3.0986,-3.0986,-3.0986,-3.0986,-3.0986,-3.0986,-3.1026,-3.0968,-3.1007,-3.097,-3.0997,-3.1023,-3.0997,-3.1008,-2.9605,-2.8415,-2.8414,-2.8474,-2.7883,-2.6146,-2.5891,-2.5895,-2.5895,-2.5895,-2.5895,-2.5895,-2.5895,-2.5895,-2.5895,-2.589,-2.6324,-2.7304,-2.8298,-2.8821,-2.8793,-2.8762,-2.8757,-2.8757,-2.8804,-2.9261,-3.0239,-3.1222,-3.1668,-3.1661,-3.1661,-3.1704,0.0,0.0,0.0,0.0,0.0,0.0,0.0,-2.5895,-2.5895,-2.5895,-2.5738,-2.5559,-2.5285,-2.5031,-2.4871,-2.454,-2.454,-2.454,-2.454,-2.454,-2.454,-2.454,-2.454,-2.454,-2.454,-2.454,-2.454,-2.454,-2.454,-2.454,-2.454,-2.4786,-2.4935,-2.5094,-2.5613,-2.5877,-2.5935,-2.8598,-2.9633,-2.8852,-2.7526,-2.8295,-3.0986,-3.0986,-3.0986,-3.0986,-3.0986,-3.0986,-3.0986,-3.0986,-3.0986,-3.0986,-3.0986,-3.0986,-3.0986,-3.0986,-3.0986,-3.0986,-3.0986,-3.0986,-3.0986,-3.0986,-3.0986,-3.0986,-3.0986,-3.0986,-3.0986,-3.0986,-3.0986,-3.0986,-3.0986,-3.0986,-3.0986,-3.0986,-3.0986,-3.0986,-3.0986,-3.0986,-3.0989,-3.1034,-3.1009,-3.101,-3.0968,-3.0991,-2.9819,-2.6447,-2.5903,-2.5913,-2.5895,-2.5895,-2.5895,-2.5895,-2.5895,-2.5928,-2.591,-2.6217,-2.7118,-2.8688,-2.881,-2.8771,-2.8839,-2.8757,-2.8757,-2.8757,-2.8756,-2.9738,-3.166,-3.1729,-3.1704,-3.1677,-3.1677,-3.1707,-2.5895,-2.5895,-2.5895,-2.5895,-2.5895,-2.5895,0.0,-2.5895,-2.5895,-2.5895,-2.5895,-2.5728,-2.5285,-2.52,-2.5031,-2.454,-2.454,-2.454,-2.454,-2.454,-2.454,-2.454,-2.454,-2.454,-2.454,-2.454,-2.454,-2.454,-2.454,-2.454,-2.454,-2.4553,-2.4586,-2.4586,-2.5466,-2.5939,-2.5903,-2.6312,-2.7894,-3.0726,-3.0483,-3.0631,-3.0986,-3.0986,-3.0986,-3.0986,-3.0986,-3.0986,-3.0986,-3.0986,-3.0986,-3.0986,-3.0986,-3.0986,-3.0986,-3.0986,-3.0986,-3.0986,-3.0986,-3.0986,-3.0986,-3.0986,-3.0986,-3.0986,-3.0986,-3.0986,-3.0986,-3.0986,-3.0986,-3.0986,-3.0986,-3.0986,-3.0986,-3.0986,-3.0986,-3.0986,-3.0986,-3.0986,-3.0999,-3.1039,-3.0963,-3.0976,-3.1016,-3.0958,-2.9874,-2.6413,-2.588,-2.592,-2.5863,-2.5895,-2.5895,-2.5895,-2.5895,-2.5942,-2.5905,-2.7502,-2.8599,-2.8834,-2.8826,-2.8806,-2.8757,-2.8757,-2.8757,-2.8757,-2.884,-2.9716,-3.166,-3.1675,-3.1741,-3.1673,-3.1673,-3.1687,-2.5895,-2.5895,-2.5895,-2.5895,-2.5895,-2.5895,-2.5895,-2.5895,-2.5895,-2.5895,-2.5812,-2.5644,-2.5285,-2.5115,-2.4946,-2.454,-2.454,-2.454,-2.454,-2.454,-2.454,-2.454,-2.454,-2.454,-2.454,-2.454,-2.454,-2.454,-2.454,-2.454,-2.454,-2.4509,-2.4457,-2.449,-2.4914,-2.5052,-2.5061,-2.5087,-2.7091,-3.1016,-3.097,-3.0986,-3.0986,-3.0986,-3.0986,-3.0986,-3.0986,-3.0986,-3.0986,-3.0986,-3.0986,-3.0986,-3.0986,-3.0986,-3.0986,-3.0986,-3.0986,-3.0986,-3.0986,-3.0986,-3.0986,-3.0986,-3.0986,-3.0986,-3.0986,-3.0986,-3.0986,-3.0986,-3.0986,-3.0986,-3.0986,-3.0986,-3.0986,-3.0986,-3.0986,-3.0986,-3.0986,-3.0986,-3.0986,-3.0986,-3.0986,-3.0986,-3.0986,-3.1029,-3.0535,-2.9089,-2.7174,-2.5875,-2.5863,-2.5895,-2.5888,-2.5925,-2.5937,-2.64,-2.7446,-2.8353,-2.8832,-2.8826,-2.8773,-2.8757,-2.8757,-2.8757,-2.8757,-2.8757,-2.8818,-2.9795,-3.166,-3.1663,-3.1689,-3.178,-3.3295,-3.4063,-2.5895,-2.5895,-2.5895,-2.5895,-2.5895,-2.5895,-2.5895,-2.5895,-2.5895,-2.5895,-2.5812,-2.5559,-2.5285,-2.5115,-2.4861,-2.454,-2.454,-2.454,-2.454,-2.454,-2.454,-2.454,-2.454,-2.454,-2.454,-2.454,-2.454,-2.454,-2.454,-2.454,-2.454,-2.454,-2.4509,-2.4532,-2.4532,-2.4511,-2.447,-2.4463,-2.668,-3.1006,-3.0996,-3.1013,-3.0986,-3.0986,-3.0986,-3.0986,-3.0986,-3.0986,-3.0986,-3.0986,-3.0986,-3.0986,-3.0986,-3.0986,-3.0986,-3.0986,-3.0986,-3.0986,-3.0986,-3.0986,-3.0986,-3.0986,-3.0986,-3.0986,-3.0986,-3.0986,-3.0986,-3.0986,-3.0986,-3.0986,-3.0986,-3.0986,-3.0986,-3.0986,-3.0986,-3.0986,-3.0986,-3.0986,-3.0986,-3.0986,-3.0986,-3.0986,-3.0986,-3.0986,-3.0979,-3.1022,-2.8911,-2.6985,-2.599,-2.589,-2.6076,-2.6661,-2.6724,-2.7277,-2.8688,-2.8832,-2.8793,-2.8839,-2.8757,-2.8757,-2.8757,-2.8757,-2.8757,-2.8757,-2.8818,-2.9795,-3.166,-3.1663,-3.1677,-3.1719,-3.3692,-3.4992,-2.5895,-2.5895,-2.5895,-2.5895,-2.5895,-2.5895,-2.5895,-2.5895,-2.5895,-2.5895,-2.5895,-2.5728,-2.5285,-2.52,-2.5031,-2.454,-2.454,-2.454,-2.454,-2.454,-2.454,-2.454,-2.454,-2.454,-2.454,-2.454,-2.454,-2.454,-2.454,-2.454,-2.454,-2.454,-2.454,-2.454,-2.454,-2.454,-2.4529,-2.4458,-2.6645,-3.1002,-3.101,-3.1003,-3.0986,-3.0986,-3.0986,-3.0986,-3.0986,-3.0986,-3.0986,-3.0986,-3.0986,-3.0986,-3.0986,-3.0986,-3.0986,-3.0986,-3.0986,-3.0986,-3.0986,-3.0986,-3.0986,-3.0986,-3.0986,-3.0986,-3.0986,-3.0986,-3.0986,-3.0986,-3.0986,-3.0986,-3.0986,-3.0986,-3.0986,-3.0986,-3.0986,-3.0986,-3.0986,-3.0986,-3.0986,-3.0986,-3.0986,-3.0986,-3.0986,-3.0986,-3.0981,-3.1016,-3.0916,-2.9627,-2.6289,-2.5872,-2.6635,-2.8487,-2.8679,-2.8721,-2.8743,-2.8756,-2.8839,-2.8757,-2.8757,-2.8757,-2.8757,-2.8757,-2.8757,-2.8757,-2.8818,-2.9795,-3.166,-3.1663,-3.1734,-3.1722,-3.1746,-3.32,-2.5895,-2.5895,-2.5895,-2.5895,-2.5895,-2.5895,-2.5895,-2.5895,-2.5895,-2.5895,-2.5812,-2.5559,-2.5285,-2.5115,-2.4861,-2.454,-2.454,-2.454,-2.454,-2.454,-2.454,-2.454,-2.454,-2.454,-2.454,-2.454,-2.454,-2.454,-2.454,-2.454,-2.454,-2.454,-2.454,-2.454,-2.454,-2.454,-2.454,-2.4503,-2.6397,-3.0214,-3.0739,-3.1031,-3.1005,-3.1005,-3.1005,-3.1005,-3.1029,-3.1016,-3.1003,-3.1013,-3.0986,-3.0986,-3.0986,-3.0986,-3.0986,-3.0986,-3.0986,-3.0986,-3.0986,-3.0986,-3.0986,-3.0986,-3.0986,-3.0986,-3.0986,-3.0986,-3.0986,-3.0986,-3.0986,-3.0986,-3.0986,-3.0986,-3.0986,-3.0986,-3.0986,-3.0986,-3.0986,-3.0986,-3.0976,-3.097,-3.1008,-3.0996,-3.0971,-3.0966,-3.0245,-2.7934,-2.7595,-2.7629,-2.7816,-2.7811,-2.8074,-2.8735,-2.8774,-2.8778,-2.8778,-2.8805,-2.8812,-2.8812,-2.8827,-2.8764,-2.8764,-2.8764,-2.8753,-2.8812,-2.8794,-2.9721,-3.1722,-3.1679,-3.168,-3.1735,-3.3563,-3.4874,-2.5895,-2.5895,-2.5895,-2.5895,-2.5895,-2.5895,-2.5895,-2.5895,-2.5895,-2.5895,-2.5738,-2.5559,-2.5285,-2.5031,-2.4786,-2.454,-2.454,-2.454,-2.454,-2.454,-2.454,-2.454,-2.454,-2.454,-2.454,-2.454,-2.454,-2.454,-2.454,-2.454,-2.454,-2.454,-2.454,-2.454,-2.454,-2.454,-2.454,-2.4546,-2.6251,-2.978,-3.0337,-3.0535,-3.0535,-3.0573,-3.0585,-3.0585,-3.0546,-3.075,-3.1018,-3.1003,-3.0963,-3.1039,-3.0999,-3.0986,-3.0986,-3.0986,-3.0986,-3.0986,-3.0986,-3.0986,-3.0999,-3.0979,-3.1018,-3.1031,-3.0983,-3.1021,-3.1021,-3.1021,-3.1021,-3.1021,-3.1021,-3.1021,-3.1021,-3.1021,-3.1021,-3.1021,-3.1021,-3.1021,-3.1009,-3.0983,-3.163,-3.2241,-3.2201,-3.1122,-2.9475,-2.7269,-2.6922,-2.7382,-2.8612,-2.88,-2.8829,-2.8829,-2.8839,-2.8838,-2.8838,-2.8774,-2.9053,-2.9751,-2.9775,-2.9797,-2.9797,-2.9797,-2.9786,-2.9762,-2.9115,-2.9426,-3.0709,-3.0641,-3.0636,-3.0719,-3.4161,-3.5712,-2.5895,-2.5895,-2.5895,-2.5895,-2.5895,-2.5895,-2.5895,-2.5895,-2.5895,-2.5906,-2.5728,-2.5475,-2.52,-2.5031,-2.4786,-2.454,-2.454,-2.454,-2.454,-2.454,-2.454,-2.454,-2.454,-2.454,-2.454,-2.454,-2.454,-2.454,-2.454,-2.454,-2.454,-2.454,-2.454,-2.454,-2.454,-2.454,-2.454,-2.4503,-2.6191,-2.9545,-2.9554,-2.9642,-2.9783,-2.9781,-2.9783,-2.977,-2.9758,-3.0241,-3.0905,-3.0916,-3.0966,-3.0979,-3.1039,-3.0999,-3.0999,-3.1013,-3.1013,-3.1013,-3.1026,-3.1026,-3.0989,-3.1022,-3.1087,-3.1177,-3.1146,-3.1156,-3.1156,-3.1156,-3.1156,-3.1156,-3.1156,-3.1156,-3.1156,-3.1156,-3.1156,-3.1156,-3.1156,-3.1156,-3.1156,-3.1169,-3.2803,-3.4286,-3.422,-3.119,-2.8773,-2.8765,-2.8757,-2.8776,-2.8776,-2.8756,-2.8757,-2.8779,-2.8791,-2.8817,-2.8955,-2.8978,-2.9688,-3.1532,-3.1566,-3.1566,-3.1566,-3.1555,-3.163,-3.1608,-2.984,-2.8935,-2.8969,-2.8816,-2.8807,-2.8908,-3.3379,-3.5481,-2.5895,-2.5895,-2.5895,-2.5895,-2.5895,-2.5895,-2.5895,-2.5895,-2.5822,-2.5738,-2.5475,-2.52,-2.5031,-2.4786,-2.4625,-2.454,-2.454,-2.454,-2.454,-2.454,-2.454,-2.454,-2.454,-2.454,-2.454,-2.454,-2.454,-2.454,-2.454,-2.454,-2.454,-2.454,-2.454,-2.454,-2.454,-2.454,-2.454,-2.4503,-2.4933,-2.5865,-2.5884,-2.7256,-2.9824,-2.9819,-2.9806,-2.9808,-2.9836,-2.9892,-3.0114,-3.0101,-3.0444,-3.0981,-3.1031,-3.1018,-3.0968,-3.0984,-3.0971,-3.0997,-3.1009,-3.101,-3.1022,-3.1021,-3.2176,-3.3528,-3.3516,-3.3542,-3.3542,-3.3542,-3.3542,-3.3542,-3.3542,-3.3542,-3.3542,-3.3542,-3.3542,-3.3542,-3.3542,-3.3542,-3.3542,-3.3553,-3.2893,-3.2331,-3.2338,-3.0366,-2.8835,-2.8818,-2.8778,-2.8822,-2.8822,-2.8795,-2.8762,-2.8823,-2.8836,-2.9352,-3.0729,-3.0888,-3.1142,-3.1595,-3.1595,-3.1595,-3.1595,-3.1569,-3.1615,-3.1643,-3.1151,-3.088,-3.0903,-2.9448,-2.8784,-2.8854,-3.1519,-3.2675,-2.5895,-2.5895,-2.5895,-2.5895,-2.5895,-2.5906,-2.5812,-2.5738,-2.5728,-2.5464,-2.52,-2.5031,-2.4946,-2.47,-2.454,-2.454,-2.454,-2.454,-2.454,-2.454,-2.454,-2.454,-2.454,-2.454,-2.454,-2.454,-2.454,-2.454,-2.454,-2.454,-2.454,-2.454,-2.454,-2.454,-2.454,-2.454,-2.454,-2.4459,-2.4461,-2.4535,-2.4502,-2.5502,-2.7461,-2.7498,-2.7499,-2.7601,-2.9126,-2.9762,-2.9791,-2.9789,-3.0047,-3.0444,-3.0471,-3.0458,-3.0471,-3.0482,-3.1357,-3.2502,-3.2499,-3.2473,-3.2515,-3.2525,-3.3369,-3.4433,-3.4405,-3.4445,-3.4445,-3.4445,-3.4445,-3.4445,-3.4445,-3.4445,-3.4445,-3.4445,-3.4445,-3.4445,-3.4445,-3.3786,-3.3173,-3.3186,-3.2569,-3.1662,-3.0543,-2.9827,-2.925,-2.8817,-2.8757,-2.8937,-2.9168,-2.9327,-2.9288,-2.888,-2.9558,-3.0482,-3.1504,-3.1551,-3.1572,-3.1628,-3.1617,-3.1241,-3.0438,-3.0362,-3.034,-3.0383,-3.0383,-3.0381,-3.0385,-2.9279,-2.9203,-3.0097,-3.1134,-3.1665,-2.5895,-2.5822,-2.5812,-2.5812,-2.5812,-2.5728,-2.5559,-2.5559,-2.5464,-2.52,-2.5031,-2.4861,-2.4861,-2.4615,-2.454,-2.454,-2.454,-2.454,-2.454,-2.454,-2.454,-2.454,-2.454,-2.454,-2.454,-2.454,-2.454,-2.454,-2.454,-2.454,-2.454,-2.454,-2.454,-2.454,-2.454,-2.454,-2.454,-2.454,-2.454,-2.454,-2.4535,-2.4483,-2.4483,-2.449,-2.4527,-2.4691,-2.7787,-2.9375,-2.9727,-2.9285,-2.9065,-2.9157,-2.9633,-2.9774,-2.9853,-3.0152,-3.1976,-3.4433,-3.4376,-3.4429,-3.4415,-3.4415,-3.4415,-3.4386,-3.4402,-3.4397,-3.4397,-3.4397,-3.4397,-3.4397,-3.4397,-3.4397,-3.4397,-3.4397,-3.4178,-3.4069,-3.4384,-3.2997,-3.1736,-3.1604,-3.193,-3.1523,-2.9331,-2.9534,-2.9726,-2.8932,-2.8811,-2.9113,-2.9573,-3.0013,-2.9929,-2.9106,-3.0559,-3.1495,-3.1462,-3.1425,-3.1458,-3.1418,-3.1318,-3.0537,-2.8845,-2.8771,-2.8789,-2.8807,-2.9079,-2.9221,-2.9221,-2.9153,-3.0012,-3.1603,-3.1572,-3.1589,-2.5738,-2.5654,-2.5559,-2.538,-2.5285,-2.5285,-2.5285,-2.5285,-2.52,-2.5031,-2.4946,-2.4861,-2.4625,-2.454,-2.454,-2.454,-2.454,-2.454,-2.454,-2.454,-2.454,-2.454,-2.454,-2.454,-2.454,-2.454,-2.454,-2.454,-2.454,-2.454,-2.454,-2.454,-2.454,-2.454,-2.454,-2.454,-2.454,-2.454,-2.454,-2.454,-2.4488,-2.4467,-2.4457,-2.4501,-2.4514,-2.4534,-2.5161,-2.7065,-2.9597,-2.6585,-2.5429,-2.5713,-2.8633,-2.9844,-3.0024,-3.1838,-3.3334,-3.4373,-3.4379,-3.4384,-3.4402,-3.4402,-3.4402,-3.4415,-3.4384,-3.4397,-3.4397,-3.4397,-3.4397,-3.4397,-3.4397,-3.4397,-3.4397,-3.4397,-3.3191,-3.2519,-3.4056,-3.3551,-3.2562,-3.1741,-3.1033,-3.0473,-2.9999,-2.9429,-2.9024,-2.885,-2.9095,-2.939,-2.9478,-2.9906,-3.0215,-3.0406,-3.1086,-3.1318,-3.0478,-3.041,-3.0402,-3.0482,-2.9677,-2.916,-2.8803,-2.8828,-2.8839,-2.8789,-3.033,-3.1074,-3.1074,-3.1131,-3.1274,-3.1606,-3.157,-3.1583,-2.3953,-2.4317,-2.4594,-2.4498,-2.485,-2.52,-2.5031,-2.5031,-2.4946,-2.47,-2.47,-2.4615,-2.454,-2.454,-2.454,-2.454,-2.454,-2.454,-2.454,-2.454,-2.454,-2.454,-2.454,-2.454,-2.454,-2.454,-2.454,-2.454,-2.454,-2.454,-2.454,-2.454,-2.454,-2.454,-2.454,-2.454,-2.454,-2.454,-2.454,-2.454,-2.454,-2.454,-2.454,-2.454,-2.4457,-2.4482,-2.4493,-2.5481,-2.6875,-2.5171,-2.4479,-2.4647,-2.6348,-2.7657,-2.8618,-2.9664,-3.1598,-3.3446,-3.1402,-3.0718,-3.0927,-3.2093,-3.3407,-3.4397,-3.4397,-3.4397,-3.4397,-3.4397,-3.4397,-3.4397,-3.4397,-3.4397,-3.4204,-3.3597,-3.245,-3.1721,-3.2153,-3.2277,-3.184,-3.0429,-3.017,-3.0079,-2.9555,-2.9117,-2.8757,-2.8757,-2.9172,-2.9489,-2.9489,-2.9869,-3.0187,-3.0198,-3.0756,-3.0921,-3.0263,-2.9706,-2.9719,-3.0209,-2.9732,-2.9537,-2.9515,-2.9991,-3.023,-3.0274,-3.1141,-3.1584,-3.1562,-3.1616,-3.1581,-3.1581,-3.1553,-3.1625,-2.2356,-2.2814,-2.3444,-2.3357,-2.4059,-2.4669,-2.4327,-2.4337,-2.4423,-2.4262,-2.4166,-2.4166,-2.4454,-2.454,-2.454,-2.454,-2.454,-2.454,-2.454,-2.454,-2.454,-2.454,-2.454,-2.454,-2.454,-2.454,-2.454,-2.454,-2.454,-2.454,-2.454,-2.454,-2.454,-2.454,-2.454,-2.454,-2.454,-2.454,-2.454,-2.454,-2.454,-2.454,-2.454,-2.454,-2.454,-2.4529,-2.4461,-2.4492,-2.4519,-2.4535,-2.4483,-2.4502,-2.4951,-2.6043,-2.7316,-2.7337,-2.9251,-3.1459,-2.8355,-2.7334,-2.7699,-2.9846,-3.1993,-3.372,-3.35,-3.3636,-3.3869,-3.3687,-3.359,-3.3674,-3.3687,-3.3687,-3.3395,-3.2241,-3.1768,-3.1311,-3.017,-3.0609,-3.0789,-2.9106,-2.9371,-2.9646,-2.8932,-2.8757,-2.8757,-2.8757,-2.9172,-2.9489,-2.9489,-3.0002,-3.0188,-2.9818,-3.035,-3.058,-3.0253,-2.9601,-2.9481,-3.0209,-3.0209,-3.0253,-3.0341,-3.1062,-3.1461,-3.1617,-3.1628,-3.1559,-3.1618,-3.1618,-3.1618,-3.1618,-3.1618,-3.1567,-2.211,-2.212,-2.2129,-2.1961,-2.257,-2.3096,-2.2217,-2.2658,-2.327,-2.327,-2.296,-2.3104,-2.4262,-2.454,-2.454,-2.454,-2.454,-2.454,-2.454,-2.454,-2.454,-2.454,-2.454,-2.454,-2.454,-2.454,-2.454,-2.454,-2.454,-2.454,-2.454,-2.454,-2.454,-2.454,-2.454,-2.454,-2.454,-2.454,-2.454,-2.454,-2.454,-2.454,-2.454,-2.454,-2.454,-2.454,-2.4509,-2.4519,-2.454,-2.4509,-2.4502,-2.4676,-2.6351,-2.7163,-2.7299,-2.7342,-2.7487,-2.7753,-2.7414,-2.7298,-2.7577,-2.9171,-3.0702,-3.1586,-3.0379,-3.1161,-3.2289,-3.1364,-3.1163,-3.1175,-3.1476,-3.1476,-3.13,-3.0598,-3.1045,-3.1146,-2.929,-2.9646,-3.0,-2.9024,-2.885,-2.8932,-2.885,-2.8757,-2.8757,-2.8757,-2.9172,-2.9489,-2.9489,-3.0275,-3.0668,-3.0242,-3.0614,-3.0712,-3.0253,-3.0471,-3.0525,-3.0242,-3.0209,-3.0384,-3.0656,-3.07,-3.105,-3.1564,-3.1575,-3.1597,-3.1618,-3.1618,-3.1618,-3.1618,-3.1618,-3.1607,-2.0076,-2.052,-2.0962,-2.0881,-2.1596,-2.2138,-2.1784,-2.1952,-2.2334,-2.2685,-2.2675,-2.2988,-2.4291,-2.4506,-2.4517,-2.4537,-2.4537,-2.4459,-2.45,-2.45,-2.449,-2.4537,-2.4537,-2.4537,-2.4517,-2.4506,-2.4506,-2.4506,-2.4506,-2.4506,-2.4506,-2.4512,-2.454,-2.454,-2.454,-2.454,-2.454,-2.454,-2.454,-2.454,-2.454,-2.454,-2.454,-2.454,-2.454,-2.454,-2.454,-2.454,-2.454,-2.454,-2.5183,-2.6275,-2.6986,-2.7302,-2.7262,-2.7285,-2.7338,-2.7296,-2.7253,-2.7273,-2.7366,-2.8021,-2.8929,-2.9953,-3.0221,-3.0826,-3.1276,-3.0909,-3.0808,-3.0819,-3.092,-3.0676,-3.0339,-3.026,-3.0079,-2.9726,-2.8932,-2.9106,-2.929,-2.8839,-2.8757,-2.8757,-2.8757,-2.8757,-2.8757,-2.8757,-2.9423,-2.9816,-2.9521,-3.0308,-3.0723,-3.0264,-3.0624,-3.0712,-3.0253,-3.0373,-3.0526,-3.0614,-3.0624,-3.0832,-3.1189,-3.1211,-3.1309,-3.1618,-3.1618,-3.1618,-3.1618,-3.1618,-3.1618,-3.1618,-3.1618,-3.1618,-1.8827,-1.9363,-1.9903,-1.9903,-2.0619,-2.1248,-2.0889,-2.1168,-2.1562,-2.1931,-2.1715,-2.2147,-2.4177,-2.3584,-2.2796,-2.2815,-2.2579,-2.2372,-2.241,-2.2329,-2.24,-2.2363,-2.2598,-2.2805,-2.2767,-2.2847,-2.2837,-2.2837,-2.2837,-2.2837,-2.2837,-2.2814,-2.3355,-2.445,-2.4461,-2.4516,-2.454,-2.454,-2.454,-2.454,-2.454,-2.454,-2.454,-2.454,-2.454,-2.454,-2.454,-2.454,-2.4464,-2.4481,-2.563,-2.7347,-2.7312,-2.7268,-2.7316,-2.7274,-2.7262,-2.7262,-2.7262,-2.7262,-2.7262,-2.7262,-2.7715,-2.8445,-2.9487,-2.9931,-3.0112,-2.9841,-2.9841,-2.9841,-2.9841,-2.9601,-2.936,-2.9635,-2.9198,-2.8664,-2.8757,-2.8757,-2.8757,-2.8757,-2.8757,-2.8757,-2.8664,-2.8784,-2.8882,-2.8882,-2.9482,-2.9884,-2.974,-3.0308,-3.0578,-3.0351,-3.0643,-3.073,-3.045,-3.0548,-3.0766,-3.1094,-3.1116,-3.1269,-3.1607,-3.1618,-3.1618,-3.1618,-3.1618,-3.1618,-3.1618,-3.1618,-3.1618,-3.1618,-3.1618,-3.1618,-1.8827,-1.8827,-1.8827,-1.8827,-1.9538,-2.0076,-1.9096,-1.9853,-2.0689,-2.0689,-1.9728,-2.0025,-2.3791,-2.1454,-1.884,-1.884,-1.7987,-1.7348,-1.7348,-1.7348,-1.7348,-1.7348,-1.8287,-1.8824,-1.8856,-1.8831,-1.8815,-1.8815,-1.8815,-1.8815,-1.8815,-1.8904,-2.0554,-2.4395,-2.4502,-2.4497,-2.454,-2.454,-2.454,-2.454,-2.454,-2.454,-2.454,-2.454,-2.454,-2.454,-2.454,-2.454,-2.4485,-2.4466,-2.5612,-2.7312,-2.7278,-2.7337,-2.7251,-2.7262,-2.7262,-2.7262,-2.7262,-2.7262,-2.7262,-2.7262,-2.7262,-2.7357,-2.7357,-2.7998,-2.8538,-2.7631,-2.7452,-2.7631,-2.7631,-2.7809,-2.8092,-2.8395,-2.8395,-2.8488,-2.8757,-2.8757,-2.8757,-2.8757,-2.8757,-2.8757,-2.8488,-2.8793,-2.9106,-2.9106,-2.931,-2.961,-3.0112,-3.0127,-3.0216,-3.0507,-3.0632,-3.0831,-3.093,-3.1334,-3.1607,-3.1618,-3.1618,-3.1618,-3.1618,-3.1618,-3.1618,-3.1618,-3.1618,-3.1618,-3.1618,-3.1618,-3.1618,-3.1618,-3.1618,-3.1618,-1.8827,-1.8827,-1.8827,-1.8827,-1.9004,-1.918,-1.8827,-1.9104,-1.9396,-1.9428,-1.912,-1.9004,-1.9504,-1.8624,-1.7781,-1.7727,-1.7505,-1.7298,-1.7313,-1.7313,-1.7305,-1.7291,-1.7582,-1.8087,-1.8732,-1.8824,-1.8808,-1.88,-1.8792,-1.8776,-1.8835,-1.8835,-1.9323,-2.0563,-2.3163,-2.4462,-2.448,-2.448,-2.448,-2.448,-2.4482,-2.4497,-2.4497,-2.4526,-2.454,-2.454,-2.454,-2.454,-2.4592,-2.5911,-2.6751,-2.7312,-2.7289,-2.7348,-2.7262,-2.7262,-2.7262,-2.7262,-2.7262,-2.7262,-2.7262,-2.7262,-2.7262,-2.7262,-2.7262,-2.7536,-2.7726,-2.7347,-2.7357,-2.7452,-2.7536,-2.7631,-2.782,-2.8092,-2.8102,-2.8186,-2.8488,-2.8488,-2.8571,-2.8757,-2.8936,-2.8986,-2.889,-2.9085,-2.9298,-2.9298,-2.9593,-2.9902,-3.0103,-3.0419,-3.0604,-3.0707,-3.0742,-3.0867,-3.1116,-3.1235,-3.1424,-3.1629,-3.1618,-3.1618,-3.1618,-3.1618,-3.1618,-3.1618,-3.1618,-3.1618,-3.1618,-3.1618,-3.1618,-3.1618,-3.1618,-3.1618,-1.8735,-1.8827,-1.8827,-1.8827,-1.8843,-1.8767,-1.8767,-1.8775,-1.879,-1.8814,-1.8512,-1.7994,-1.7453,-1.726,-1.7274,-1.7304,-1.7311,-1.7311,-1.7326,-1.7326,-1.7318,-1.7311,-1.7274,-1.7569,-1.8125,-1.821,-1.8187,-1.8272,-1.8605,-1.8806,-1.8767,-1.8767,-1.8832,-1.8765,-2.1096,-2.2363,-2.2377,-2.2377,-2.2377,-2.2377,-2.2325,-2.3135,-2.4459,-2.4512,-2.4538,-2.4528,-2.4522,-2.4467,0.0,-2.6569,-2.7273,-2.7323,-2.7294,-2.7264,-2.7262,-2.7262,-2.7262,-2.7262,-2.7262,-2.7262,-2.7262,-2.7262,-2.7262,-2.7262,-2.7262,-2.7262,-2.7262,-2.7262,-2.7262,-2.7357,-2.7452,-2.7452,-2.7536,-2.782,-2.7809,-2.7904,-2.8196,-2.843,-2.8559,-2.8748,-2.9041,-2.9182,-2.9095,-2.9282,-2.9479,-2.9468,-2.988,-3.0187,-3.0391,-3.044,-3.0516,-3.062,-3.0516,-3.062,-3.092,-3.1116,-3.123,-3.1424,-3.1516,-3.1618,-3.1618,-3.1618,-3.1618,-3.1618,-3.1618,-3.1618,-3.1618,-3.1618,-3.1618,-3.1618,-3.1618,-3.1618,0.0,-1.8743,-1.8735,-1.8835,-1.8775,-1.8814,-1.8814,-1.883,0.0,-1.8745,-1.7916,-1.7296,-1.7296,-1.7311,-1.7326,-1.7326,-1.7347,-1.7261,-1.7333,-1.7326,-1.7326,-1.7326,-1.7311,-1.7296,-1.7296,-1.7252,-1.7323,-1.7323,-1.8195,-1.8729,-1.8698,-1.8806,-1.879,-1.8827,-1.8835,-1.8839,-1.8759,-1.8759,-1.8759,-1.8759,-1.8831,-2.0695,-2.4068,-2.4058,-2.4049,-2.4128,-2.4085,-2.4293,-2.4696,-2.6494,-2.7313,-2.7262,-2.7316,-2.7262,-2.7262,-2.7262,-2.7262,-2.7262,-2.7262,-2.7262,-2.7262,-2.7262,-2.7262,-2.7262,-2.7262,-2.7262,-2.7262,-2.7262,-2.7262,-2.7262,-2.7262,-2.7262,-2.7357,-2.7536,-2.7568,-2.7683,-2.7946,-2.8423,-2.8753,-2.8753,-2.9136,-2.9367,-2.909,-2.9377,-2.967,-2.9751,-2.9922,-3.0203,-3.0734,-3.0308,-3.0099,-3.0287,-3.0193,-3.0088,-3.0391,-3.0806,-3.1127,-3.123,-3.1424,-3.1618,-3.1618,-3.1618,-3.1618,-3.1618,-3.1618,-3.1618,-3.1618,-3.1618,-3.1618,-3.1618,-3.1618,-3.1618,-1.8021,0.0,-1.8489,-1.8721,-1.883,-1.8838,0.0,-1.8846,-1.8543,-1.7807,-1.7498,-1.7304,-1.7318,-1.7326,-1.7326,-1.7326,-1.7319,-1.7289,-1.7268,-1.7326,-1.7326,-1.7326,-1.7326,-1.7318,-1.7318,-1.7311,-1.7296,-1.7282,-1.749,-1.7677,-1.7617,-1.8373,-1.879,-1.8827,-1.878,-1.8832,-1.8792,-1.8792,-1.8792,-1.8784,-1.8814,-1.9274,-2.0155,-2.0099,-2.0128,-2.0119,-2.0164,-2.1802,-2.4616,-2.649,-2.7278,-2.7262,-2.7316,-2.7262,-2.7262,-2.7262,-2.7262,-2.7262,-2.7262,-2.7262,-2.7262,-2.7262,-2.7262,-2.7262,-2.7262,-2.7262,-2.7262,-2.7262,-2.7262,-2.7262,-2.7262,-2.7262,-2.7357,-2.7357,-2.7617,-2.7866,-2.8166,-2.8631,-2.8968,-2.9253,-2.9437,-2.9572,-2.9572,-2.9745,-2.9943,-2.9933,-2.9922,-3.0099,-3.0203,-3.0099,-2.9994,-3.0099,-2.9994,-2.9994,-3.0099,-3.062,-3.1034,-3.123,-3.1424,-3.1618,-3.1618,-3.1618,-3.1618,-3.1618,-3.1618,-3.1618,-3.1618,-3.1618,-3.1618,-3.1618,-3.1618,-3.1618,-1.726,-1.798,-1.8295,-1.873,-1.8762,-1.8676,-1.8199,-1.8104,-1.8003,-1.7385,-1.7276,-1.7269,-1.7319,-1.7261,-1.7261,-1.7347,-1.728,-1.7272,-1.7266,-1.7261,-1.7326,-1.7326,-1.7326,-1.7326,-1.7326,-1.7326,-1.7318,-1.7311,-1.7311,-1.7289,-1.7331,-1.8288,-1.8806,-1.8775,-1.8835,-1.8827,-1.8827,-1.8827,-1.8827,-1.8827,-1.8808,-1.876,-1.8752,-1.8838,-1.8797,-1.8814,-1.9513,-2.0915,-2.3,-2.4643,-2.5307,-2.5312,-2.5673,-2.6167,-2.6572,-2.6572,-2.687,-2.7262,-2.7262,-2.7262,-2.7262,-2.7262,-2.7262,-2.7262,-2.7262,-2.7262,-2.7262,-2.7262,-2.7262,-2.7262,-2.7262,-2.7262,-2.7314,-2.751,-2.7748,-2.7986,-2.84,-2.8817,-2.914,-2.9342,-2.9617,-2.9839,-2.9839,-2.9943,-2.9994,-2.9994,-2.9994,-2.9994,-2.9994,-2.9994,-2.9994,-2.9994,-2.9994,-2.9994,-2.9994,-3.0412,-3.0713,-3.0817,-3.1219,-3.1424,-3.1424,-3.1527,-3.1618,-3.1618,-3.1618,-3.1618,-3.1618,-3.1618,-3.1618,-3.1618,-3.1618,-3.1618,-1.5903,-1.6742,-1.7276,-1.8346,-1.8055,-1.745,-1.6573,-1.6395,-1.6409,-1.6409,-1.6409,-1.6382,-1.6381,-1.6887,-1.7106,-1.6459,-1.6505,-1.6701,-1.7197,-1.7347,-1.7283,-1.7283,-1.7276,-1.7268,-1.7283,-1.7276,-1.7268,-1.7283,-1.7276,-1.7347,-1.7318,-1.8132,-1.8629,-1.8806,-1.8767,-1.8835,-1.8827,-1.8827,-1.8827,-1.8827,-1.8827,-1.8827,-1.8827,-1.8827,-1.8827,-1.8851,-2.0247,-2.0942,-2.1024,-2.2399,-2.3019,-2.3081,-2.3826,-2.4688,-2.5489,-2.5489,-2.6081,-2.686,-2.6965,-2.7061,-2.7061,-2.7262,-2.7262,-2.7262,-2.7262,-2.7262,-2.7262,-2.7262,-2.7262,-2.7262,-2.7262,-2.7314,-2.7458,-2.7831,-2.8028,-2.8245,-2.8628,-2.9083,-2.9415,-2.9415,-2.9725,-2.9994,-2.9994,-2.9994,-2.9994,-2.9774,-2.9879,-2.9889,-2.9774,-2.9889,-2.9994,-2.9994,-2.9879,-2.9774,-2.9774,-2.9963,-3.0068,-3.0068,-3.0703,-3.1127,-3.123,-3.1424,-3.1527,-3.1618,-3.1618,-3.1618,-3.1618,-3.1618,-3.1618,-3.1618,-3.1618,-3.1618,-1.2007,-1.2174,-1.3075,-1.6621,-1.4968,-1.2358,-1.2167,-1.2172,-1.2172,-1.2172,-1.2172,-1.2167,-1.2156,-1.4994,-1.6184,-1.2655,-1.2704,-1.4087,-1.6918,-1.7334,-1.734,-1.734,-1.7348,-1.7326,-1.7325,-1.7341,-1.7326,-1.7332,-1.7341,-1.7276,-1.7254,-1.7456,-1.79,-1.8806,-1.8798,-1.8775,-1.8827,-1.8827,-1.8827,-1.8827,-1.8827,-1.8827,-1.8827,-1.8827,-1.8827,-1.8859,-2.0304,-2.0889,-2.1033,-2.2461,-2.2957,-2.3081,-2.3826,-2.4187,-2.4393,-2.4393,-2.4492,-2.4679,-2.5586,-2.5984,-2.6091,-2.6965,-2.7262,-2.7262,-2.7262,-2.7262,-2.7262,-2.7262,-2.7262,-2.7262,-2.7262,-2.7541,-2.7841,-2.7903,-2.8524,-2.9104,-2.9187,-2.9559,-2.9891,-2.9891,-2.9942,-2.9994,-2.9994,-2.9994,-2.9659,-2.8668,-2.9333,-2.9659,-2.8562,-2.9333,-2.9994,-2.9994,-2.9112,-2.8445,-2.8445,-2.8552,-2.8552,-2.8552,-2.9963,-3.0931,-3.123,-3.123,-3.1322,-3.1618,-3.1618,-3.1618,-3.1618,-3.1618,-3.1618,-3.1618,-3.1618,-3.1618,-1.1249,-1.1239,-1.1648,-1.3494,-1.2598,-1.1231,-1.1172,-1.1182,-1.1182,-1.1182,-1.1182,-1.1172,-1.1226,-1.2711,-1.3419,-1.155,-1.1492,-1.2314,-1.376,-1.4037,-1.4046,-1.4046,-1.4005,-1.4848,-1.7074,-1.5287,-1.3999,-1.4046,-1.4005,-1.493,-1.7187,-1.7326,-1.7465,-1.7999,-1.8512,-1.8769,-1.8775,-1.8843,-1.8827,-1.8827,-1.8827,-1.8827,-1.8827,-1.8827,-1.9265,-1.9939,-2.0284,-2.058,-2.0958,-2.1578,-2.1879,-2.1921,-2.2282,-2.271,-2.3311,-2.3899,-2.4088,-2.4187,-2.4688,-2.4796,-2.4894,-2.5382,-2.5577,-2.5674,-2.6274,-2.6071,-2.5674,-2.6274,-2.687,-2.7314,-2.7552,-2.7769,-2.8048,-2.8556,-2.9001,-2.9373,-2.9622,-2.9849,-2.9774,-2.9112,-2.9006,-2.9006,-2.9006,-2.8562,-2.8126,-2.8223,-2.8126,-2.8126,-2.8223,-2.8668,-2.9006,-2.9006,-2.8552,-2.7902,-2.7356,-2.7248,-2.7571,-2.8436,-2.9197,-2.9513,-2.9061,-2.9817,-3.0349,-3.0442,-3.1197,-3.1618,-3.1618,-3.1618,-3.1618,-3.1618,-3.1618,-3.1618,-1.1194,-1.1194,-1.1194,-1.1194,-1.1249,-1.1215,-1.1179,-1.1194,-1.1194,-1.1194,-1.1194,-1.1175,-1.121,-1.1156,-1.125,-1.142,-1.1335,-1.1171,-1.1231,-1.1151,-1.1207,-1.1207,-1.1192,-1.2422,-1.5525,-1.3052,-1.1187,-1.1207,-1.1192,-1.2523,-1.5698,-1.587,-1.5899,-1.5906,-1.7566,-1.8574,-1.8792,-1.8806,-1.8759,-1.8827,-1.8827,-1.8827,-1.8827,-1.8806,-1.9593,-2.0895,-2.0516,-2.0659,-2.103,-2.1139,-2.1163,-2.1163,-2.1163,-2.1672,-2.2469,-2.3169,-2.3435,-2.3518,-2.3628,-2.3701,-2.38,-2.3998,-2.4088,-2.4285,-2.5089,-2.4786,-2.4285,-2.5089,-2.5956,-2.6794,-2.7441,-2.7801,-2.8188,-2.8788,-2.8952,-2.9125,-2.9482,-2.9333,-2.9006,-2.8339,-2.7999,-2.7785,-2.7785,-2.7023,-2.6707,-2.7365,-2.6924,-2.6707,-2.7365,-2.7688,-2.7785,-2.7785,-2.758,-2.7032,-2.6164,-2.6054,-2.6599,-2.7678,-2.7999,-2.7883,-2.722,-2.83,-2.8956,-2.9167,-3.0442,-3.1197,-3.1322,-3.1516,-3.1618,-3.1618,-3.1618,-3.1618,-1.1194,-1.1194,-1.1194,-1.1194,-1.1189,-1.1189,-1.1194,-1.1194,-1.1194,-1.1194,-1.1194,-1.1194,-1.1189,-1.1189,-1.1409,-1.216,-1.1727,-1.1203,-1.1208,-1.1189,-1.1179,-1.1179,-1.121,-1.1298,-1.159,-1.1414,-1.1196,-1.117,-1.1206,-1.1366,-1.1579,-1.1601,-1.1647,-1.1627,-1.5425,-1.7873,-1.8839,-1.8769,-1.883,-1.8827,-1.8827,-1.8827,-1.8835,-1.8832,-1.9614,-2.0923,-2.1535,-2.1672,-2.1401,-2.1743,-2.1878,-2.1878,-2.1878,-2.1993,-2.1953,-2.1731,-2.1611,-2.1667,-2.2342,-2.2627,-2.282,-2.38,-2.4088,-2.4088,-2.4187,-2.4187,-2.4088,-2.4187,-2.4463,-2.5069,-2.6229,-2.7541,-2.8379,-2.7801,-2.8006,-2.83,-2.8329,-2.7463,-2.7032,-2.8009,-2.7356,-2.659,-2.659,-2.659,-2.6164,-2.5212,-2.5845,-2.6164,-2.5212,-2.5954,-2.659,-2.659,-2.5634,-2.5,-2.4889,-2.4889,-2.5,-2.511,-2.6063,-2.6698,-2.6924,-2.7032,-2.7463,-2.8329,-2.9167,-2.9922,-3.0495,-3.1208,-3.1618,-3.1618,-3.1618,-3.1618,-1.1194,-1.1194,-1.1194,-1.1194,-1.1194,-1.1194,-1.1194,-1.1194,-1.1194,-1.1194,-1.1194,-1.1194,-1.1194,-1.1199,-1.135,-1.1634,-1.1411,-1.1241,-1.1212,-1.1194,-1.1194,-1.1194,-1.117,-1.1161,-1.1194,-1.117,-1.1161,-1.1194,-1.1165,-1.1249,-1.1249,-1.122,-1.1177,-1.1221,-1.2737,-1.4345,-1.6028,-1.6001,-1.6943,-1.8816,-1.8761,-1.8824,-1.8848,-2.0572,-2.1502,-2.1636,-2.2031,-2.2071,-2.1775,-2.1902,-2.1957,-2.1957,-2.1957,-2.1957,-2.1941,-2.1814,-2.1767,-2.1825,-2.1779,-2.1865,-2.1824,-2.2088,-2.2114,-2.2207,-2.2911,-2.261,-2.2257,-2.3181,-2.356,-2.3932,-2.5321,-2.6313,-2.6836,-2.6918,-2.7027,-2.714,-2.714,-2.6806,-2.6381,-2.6182,-2.5753,-2.5415,-2.5415,-2.4872,-2.4437,-2.4778,-2.4548,-2.4437,-2.4778,-2.5212,-2.5415,-2.5415,-2.4445,-2.368,-2.368,-2.368,-2.368,-2.368,-2.477,-2.5203,-2.4539,-2.5406,-2.5945,-2.6381,-2.7542,-2.8628,-2.9628,-3.0037,-3.0809,-3.1743,-3.1973,-3.2252,-1.1194,-1.1194,-1.1194,-1.1194,-1.1194,-1.1194,-1.1194,-1.1194,-1.1194,-1.1194,-1.1194,-1.1194,-1.1194,-1.1213,-1.116,-1.1217,-1.1213,-1.1155,-1.1212,-1.1194,-1.1194,-1.1194,-1.1194,-1.1194,-1.1194,-1.1194,-1.1194,-1.1194,-1.1194,-1.1194,-1.1194,-1.1194,-1.117,-1.1215,-1.1191,-1.1889,-1.3329,-1.3951,-1.5813,-1.8836,-1.8491,-1.8761,-1.9589,-2.1877,-2.2792,-2.2286,-2.2511,-2.2484,-2.2291,-2.2291,-2.2291,-2.2291,-2.2291,-2.2291,-2.2275,-2.2164,-2.2124,-2.2061,-2.1608,-2.1449,-2.1393,-2.1036,-2.0925,-2.1019,-2.1725,-2.1603,-2.1235,-2.2179,-2.2611,-2.3064,-2.4166,-2.5067,-2.58,-2.5973,-2.5954,-2.5954,-2.5954,-2.5626,-2.5305,-2.4889,-2.4445,-2.4231,-2.4231,-2.3568,-2.3231,-2.4119,-2.3568,-2.3344,-2.4119,-2.4231,-2.4231,-2.4231,-2.3456,-2.3014,-2.3014,-2.3014,-2.3014,-2.3014,-2.3784,-2.3896,-2.3014,-2.3991,-2.465,-2.4761,-2.6062,-2.7319,-2.831,-2.8868,-2.9742,-3.0801,-3.1048,-3.1548,-1.1194,-1.1194,-1.1194,-1.1194,-1.1194,-1.1194,-1.1194,-1.1194,-1.1194,-1.1194,-1.1194,-1.1194,-1.1194,-1.1194,-1.1194,-1.1194,-1.1194,-1.1194,-1.1194,-1.1194,-1.1194,-1.1194,-1.1194,-1.1194,-1.1194,-1.1194,-1.1194,-1.1194,-1.1194,-1.1194,-1.1194,-1.1194,-1.1194,-1.1194,-1.1165,-1.125,-1.1153,-1.3275,-1.5831,-1.8723,-1.7943,-1.8683,-2.0897,-2.2274,-2.2967,-2.3013,-2.2999,-2.2967,-2.3014,-2.3014,-2.3014,-2.3014,-2.3014,-2.3014,-2.2974,-2.2625,-2.249,-2.2394,-2.1695,-2.1457,-2.1393,-2.1036,-2.0925,-2.0925,-2.0925,-2.1171,-2.1457,-2.1457,-2.1957,-2.249,-2.249,-2.4096,-2.5595,-2.4905,-2.4778,-2.4778,-2.4778,-2.3784,-2.3344,-2.4556,-2.3784,-2.3014,-2.3014,-2.3014,-2.3014,-2.3014,-2.3014,-2.3014,-2.3014,-2.3014,-2.3014,-2.3014,-2.3014,-2.3014,-2.3014,-2.3014,-2.3014,-2.3014,-2.3014,-2.3014,-2.3014,-2.3014,-2.3239,-2.3921,-2.5025,-2.5986,-2.665,-2.7827,-2.8371,-2.838,-2.838,-2.9045,-1.1203,-1.1194,-1.1194,-1.1194,-1.1194,-1.1194,-1.1194,-1.1194,-1.1194,-1.1194,-1.1194,-1.1194,-1.1194,-1.1194,-1.1194,-1.1194,-1.1194,-1.1194,-1.1194,-1.1194,-1.1194,-1.1194,-1.1194,-1.1194,-1.1194,-1.1194,-1.1194,-1.1194,-1.1194,-1.1194,-1.1194,-1.1194,-1.1194,-1.1194,-1.1227,-1.1211,-1.1239,-1.2419,-1.374,-1.5206,-1.6813,-1.7894,-1.8558,-1.9815,-2.0861,-2.1742,-2.1938,-2.2356,-2.3014,-2.3014,-2.3014,-2.3014,-2.3014,-2.3014,-2.3006,-2.2895,-2.2855,-2.276,-2.2053,-2.1806,-2.1711,-2.1115,-2.1091,-2.129,-2.129,-2.1536,-2.1862,-2.2108,-2.2331,-2.2545,-2.2791,-2.3294,-2.3756,-2.3544,-2.3568,-2.3568,-2.3568,-2.3231,-2.3127,-2.3456,-2.3239,-2.3014,-2.3014,-2.3014,-2.3014,-2.3014,-2.3014,-2.3014,-2.3014,-2.3014,-2.3014,-2.3014,-2.3014,-2.3014,-2.3014,-2.3014,-2.3014,-2.3014,-2.3014,-2.3014,-2.3014,-2.3014,-2.3246,-2.3616,-2.3934,-2.4778,-2.6047,-2.6619,-2.7504,-2.8574,-2.8794,-2.9279,-1.0605,-1.0895,-1.1096,-1.0801,-1.0998,-1.1194,-1.1194,-1.1194,-1.1194,-1.1194,-1.1194,-1.1194,-1.1194,-1.1194,-1.1194,-1.1194,-1.1194,-1.1194,-1.1194,-1.1194,-1.1194,-1.1194,-1.1194,-1.1194,-1.1194,-1.1194,-1.1194,-1.1194,-1.1194,-1.1194,-1.1194,-1.1194,-1.1377,-1.1649,-1.2001,-1.2074,-1.1968,-1.2409,-1.3058,-1.3706,-1.5649,-1.6704,-1.7085,-1.8597,-1.9703,-2.0528,-2.1299,-2.2085,-2.3014,-2.3014,-2.3014,-2.3014,-2.3014,-2.3014,-2.3014,-2.3014,-2.3014,-2.2911,-2.2204,-2.1957,-2.187,-2.1314,-2.1274,-2.1473,-2.1608,-2.1894,-2.2212,-2.2426,-2.2585,-2.2744,-2.2958,-2.3014,-2.3014,-2.3014,-2.3014,-2.3014,-2.3014,-2.3014,-2.3014,-2.3014,-2.3014,-2.3014,-2.3014,-2.3014,-2.3014,-2.3014,-2.3014,-2.3014,-2.3014,-2.3014,-2.307,-2.3205,-2.3228,-2.3284,-2.3419,-2.3427,-2.3427,-2.3427,-2.3427,-2.3427,-2.3427,-2.3292,-2.3387,-2.3737,-2.388,-2.44,-2.5293,-2.5561,-2.6329,-2.7248,-2.7476,-2.7946,-0.9509,-1.0203,-1.0801,-1.0113,-1.0408,-1.0998,-1.1096,-1.1096,-1.1096,-1.1194,-1.1194,-1.1194,-1.1194,-1.1194,-1.1194,-1.1194,-1.1096,-1.1096,-1.1096,-1.0998,-1.09,-1.1002,-1.11,-1.1203,-1.1203,-1.1198,-1.1203,-1.1222,-1.1227,-1.1231,-1.125,-1.1269,-1.1663,-1.2388,-1.3221,-1.355,-1.3121,-1.316,-1.3375,-1.3665,-1.4608,-1.5422,-1.609,-1.8103,-1.9125,-1.9354,-2.0902,-2.2085,-2.2901,-2.3014,-2.3014,-2.3014,-2.3014,-2.3014,-2.3014,-2.3014,-2.3014,-2.2919,-2.2243,-2.2005,-2.1949,-2.1608,-2.152,-2.16,-2.191,-2.2251,-2.2537,-2.2537,-2.2768,-2.3014,-2.3014,-2.3014,-2.3014,-2.3014,-2.3014,-2.3014,-2.3014,-2.3014,-2.3014,-2.3014,-2.3014,-2.3014,-2.3014,-2.3014,-2.3014,-2.3014,-2.3014,-2.3014,-2.3014,-2.3046,-2.3189,-2.3506,-2.357,-2.3713,-2.4023,-2.4055,-2.4055,-2.4055,-2.4055,-2.4063,-2.4102,-2.3777,-2.3753,-2.4094,-2.442,-2.4595,-2.4627,-2.4952,-2.5111,-2.5111,-2.5111,-2.57,-0.8821,-0.9122,-0.9316,-0.9122,-0.9221,-0.9517,-1.0113,-1.0216,-1.0413,-1.1096,-1.1194,-1.1194,-1.1194,-1.1194,-1.1194,-1.1194,-1.0498,-1.0006,-1.0216,-0.9308,-0.9008,-0.9834,-1.0645,-1.1152,-1.1152,-1.1217,-1.1368,-1.1649,-1.1663,-1.163,-1.1676,-1.1959,-1.2202,-1.2404,-1.3207,-1.3688,-1.3593,-1.3575,-1.364,-1.3684,-1.4601,-1.4935,-1.5032,-1.644,-1.775,-1.9087,-2.0816,-2.1737,-2.1964,-2.2667,-2.3014,-2.3014,-2.3014,-2.3014,-2.3014,-2.3014,-2.3014,-2.295,-2.2521,-2.237,-2.2315,-2.1965,-2.2037,-2.2275,-2.2347,-2.2617,-2.2903,-2.2903,-2.2958,-2.3014,-2.3014,-2.3014,-2.3014,-2.3014,-2.3014,-2.3014,-2.3014,-2.3014,-2.3014,-2.3014,-2.3014,-2.3014,-2.3014,-2.3014,-2.3014,-2.3014,-2.3014,-2.3014,-2.3014,-2.326,-2.3459,-2.3538,-2.3785,-2.3975,-2.4047,-2.4055,-2.4055,-2.4055,-2.4055,-2.4174,-2.446,-2.4126,-2.411,-2.446,-2.4539,-2.4714,-2.4992,-2.5071,-2.5111,-2.5111,-2.5111,-2.5226,-0.7749,-0.8133,-0.8517,-0.8744,-0.8825,-0.8924,-0.9324,-0.9422,-0.9521,-1.001,-1.0408,-1.0507,-1.0109,-1.001,-1.001,-1.001,-0.9612,-0.9217,-0.9422,-0.8817,-0.8645,-0.9249,-0.977,-1.0217,-1.0513,-1.0703,-1.0932,-1.1039,-1.1569,-1.1863,-1.1959,-1.2418,-1.2734,-1.2693,-1.3389,-1.373,-1.3698,-1.3673,-1.366,-1.366,-1.4123,-1.4401,-1.4629,-1.5941,-1.7238,-1.8519,-1.9788,-2.0594,-2.106,-2.1524,-2.1759,-2.1759,-2.2207,-2.232,-2.2433,-2.278,-2.3014,-2.2966,-2.2609,-2.249,-2.2458,-2.2275,-2.2339,-2.2521,-2.2688,-2.2871,-2.3014,-2.3014,-2.3014,-2.3014,-2.3014,-2.3014,-2.3014,-2.3014,-2.3014,-2.3014,-2.3014,-2.3014,-2.3014,-2.3014,-2.3014,-2.3014,-2.3014,-2.3014,-2.3014,-2.3014,-2.3014,-2.3077,-2.3244,-2.3427,-2.3673,-2.4007,-2.4198,-2.4372,-2.4547,-2.4555,-2.4555,-2.4555,-2.4555,-2.4642,-2.4825,-2.4658,-2.4642,-2.4833,-2.4833,-2.4928,-2.5111,-2.5111,-2.5111,-2.5111,-2.5111,-2.5111,-0.6567,-0.7159,-0.7843,-0.8203,-0.8368,-0.846,-0.8531,-0.8623,-0.8623,-0.8623,-0.9225,-0.962,-0.8924,-0.8825,-0.8825,-0.8825,-0.8726,-0.8634,-0.8663,-0.8468,-0.8428,-0.8586,-0.8706,-0.9069,-0.9526,-0.9947,-1.0268,-1.0398,-1.1276,-1.192,-1.2238,-1.2778,-1.3177,-1.3107,-1.3519,-1.3713,-1.3688,-1.3688,-1.3688,-1.3688,-1.3688,-1.3923,-1.451,-1.5585,-1.6644,-1.7584,-1.8402,-1.9107,-1.9795,-2.0033,-2.0026,-2.0026,-2.0816,-2.1152,-2.1266,-2.2085,-2.2546,-2.2741,-2.245,-2.2466,-2.2577,-2.2577,-2.2577,-2.2633,-2.2927,-2.3014,-2.3014,-2.3014,-2.3014,-2.3014,-2.3014,-2.3014,-2.3014,-2.3014,-2.3014,-2.3014,-2.3014,-2.3014,-2.3014,-2.3014,-2.3014,-2.3014,-2.3014,-2.3014,-2.3014,-2.3014,-2.3014,-2.3141,-2.3499,-2.3594,-2.3872,-2.4515,-2.4635,-2.4793,-2.5087,-2.5111,-2.5111,-2.5111,-2.5111,-2.5111,-2.5111,-2.5111,-2.5111,-2.5111,-2.5111,-2.5111,-2.5111,-2.5111,-2.5111,-2.5111,-2.5111,-2.5111,-0.5303,-0.5721,-0.622,-0.6107,-0.6489,-0.7074,-0.7659,-0.773,-0.773,-0.773,-0.8425,-0.8924,-0.8825,-0.8825,-0.8825,-0.8825,-0.8226,-0.7775,-0.7903,-0.7307,-0.695,-0.7078,-0.7722,-0.8148,-0.8272,-0.8895,-0.9785,-1.0682,-1.1065,-1.1686,-1.2673,-1.3146,-1.3379,-1.3343,-1.3637,-1.3756,-1.3688,-1.3688,-1.3688,-1.3688,-1.3688,-1.3688,-1.3803,-1.451,-1.5229,-1.5952,-1.7467,-1.7806,-1.7554,-1.8829,-1.9183,-1.8713,-1.8822,-1.9176,-1.9639,-1.9754,-2.0687,-2.1729,-2.1684,-2.2251,-2.2942,-2.2942,-2.2942,-2.295,-2.3006,-2.3014,-2.3014,-2.3014,-2.3014,-2.3014,-2.3014,-2.3014,-2.3014,-2.3014,-2.3014,-2.3014,-2.3014,-2.3014,-2.3014,-2.3014,-2.3014,-2.3014,-2.3014,-2.3014,-2.3014,-2.3014,-2.3014,-2.3141,-2.3499,-2.38,-2.4134,-2.4539,-2.4857,-2.5056,-2.5103,-2.5111,-2.5111,-2.5111,-2.5111,-2.5111,-2.5111,-2.5111,-2.5111,-2.5111,-2.5111,-2.5111,-2.5111,-2.5111,-2.5111,-2.5111,-2.5111,-2.5111,-0.4658,-0.504,-0.5413,-0.5372,-0.5466,-0.5765,-0.6029,-0.6072,-0.6146,-0.6519,-0.689,-0.722,-0.7444,-0.7431,-0.7456,-0.7535,-0.7247,-0.7088,-0.7223,-0.6928,-0.6766,-0.6891,-0.7226,-0.7466,-0.7533,-0.8294,-0.9005,-0.9603,-1.0675,-1.1518,-1.2276,-1.3049,-1.3443,-1.3556,-1.3646,-1.3688,-1.3688,-1.3688,-1.3688,-1.3688,-1.3688,-1.3688,-1.3688,-1.3923,-1.4396,-1.511,-1.6177,-1.6408,-1.6284,-1.6985,-1.7103,-1.6862,-1.7436,-1.7781,-1.8131,-1.859,-1.9408,-2.0336,-2.0916,-2.1616,-2.232,-2.278,-2.3014,-2.3014,-2.3014,-2.3014,-2.3014,-2.3014,-2.3014,-2.3014,-2.3014,-2.3014,-2.3014,-2.3014,-2.3014,-2.3014,-2.3014,-2.3014,-2.3014,-2.3014,-2.3014,-2.3014,-2.3014,-2.3014,-2.3014,-2.3014,-2.3181,-2.3435,-2.3785,-2.4134,-2.4484,-2.4841,-2.5016,-2.5111,-2.5111,-2.5111,-2.5111,-2.5111,-2.5111,-2.5111,-2.5111,-2.5111,-2.5111,-2.5111,-2.5111,-2.5111,-2.5111,-2.5111,-2.5111,-2.5111,-2.5111,-2.5111,-0.4195,-0.4577,-0.4847,-0.4719,-0.4927,-0.503,-0.49,-0.4843,-0.492,-0.5514,-0.5682,-0.5709,-0.6139,-0.6428,-0.6548,-0.6608,-0.6646,-0.6709,-0.6831,-0.685,-0.6893,-0.7013,-0.7027,-0.7062,-0.7146,-0.785,-0.836,-0.8694,-1.0016,-1.1196,-1.1816,-1.2718,-1.3296,-1.3684,-1.3688,-1.3688,-1.3688,-1.3688,-1.3688,-1.3688,-1.3688,-1.3688,-1.3688,-1.3688,-1.3923,-1.4396,-1.5116,-1.524,-1.5121,-1.524,-1.524,-1.524,-1.5924,-1.6267,-1.6497,-1.7196,-1.8008,-1.8829,-1.9523,-2.0336,-2.1152,-2.1851,-2.2207,-2.2328,-2.2554,-2.2667,-2.2667,-2.2901,-2.3014,-2.3014,-2.3014,-2.3014,-2.3014,-2.3014,-2.3014,-2.3014,-2.3014,-2.3014,-2.3014,-2.3014,-2.3014,-2.3014,-2.3014,-2.3014,-2.3046,-2.3133,-2.3379,-2.3697,-2.4126,-2.442,-2.4714,-2.5071,-2.5111,-2.5111,-2.5111,-2.5111,-2.5111,-2.5111,-2.5111,-2.5111,-2.5111,-2.5111,-2.5111,-2.5111,-2.5111,-2.5111,-2.5111,-2.5111,-2.5111,-2.5111,-2.5111,-2.5111,-0.3583,-0.425,-0.4675,-0.3835,-0.4582,-0.5216,-0.4697,-0.4568,-0.4672,-0.5,-0.4998,-0.5204,-0.5833,-0.6361,-0.6747,-0.6638,-0.6717,-0.6836,-0.6959,-0.6975,-0.7018,-0.7133,-0.7146,-0.7146,-0.7154,-0.7258,-0.7783,-0.8587,-0.9065,-1.0048,-1.1829,-1.2124,-1.2711,-1.3688,-1.3688,-1.3688,-1.3688,-1.3688,-1.3688,-1.3688,-1.3688,-1.3688,-1.3688,-1.3688,-1.3688,-1.3808,-1.4396,-1.4277,-1.3808,-1.4396,-1.4277,-1.3808,-1.3803,-1.4277,-1.4743,-1.4743,-1.5795,-1.7085,-1.7202,-1.8131,-1.9408,-1.9523,-1.9897,-2.0608,-2.1395,-2.1616,-2.1851,-2.278,-2.3014,-2.3014,-2.3014,-2.3014,-2.3014,-2.3014,-2.3014,-2.3014,-2.3014,-2.3014,-2.3014,-2.3014,-2.3014,-2.3014,-2.3014,-2.3014,-2.3133,-2.3467,-2.353,-2.3785,-2.4468,-2.4571,-2.4714,-2.5071,-2.5111,-2.5111,-2.5111,-2.5111,-2.5111,-2.5111,-2.5111,-2.5111,-2.5111,-2.5111,-2.5111,-2.5111,-2.5111,-2.5111,-2.5111,-2.5111,-2.5111,-2.5111,-2.5111,-2.5111,-0.3587,-0.3811,-0.3917,-0.3671,-0.3889,-0.4215,-0.3966,-0.3928,-0.4016,-0.4609,-0.4687,-0.476,-0.5302,-0.5894,-0.6389,-0.6744,-0.6891,-0.6959,-0.7076,-0.7095,-0.7108,-0.7149,-0.7154,-0.7184,-0.7263,-0.7309,-0.7514,-0.8028,-0.8713,-0.952,-1.0212,-1.1475,-1.2359,-1.2719,-1.3324,-1.3688,-1.3688,-1.3688,-1.3688,-1.3688,-1.3688,-1.3688,-1.3688,-1.3688,-1.3688,-1.3688,-1.3923,-1.3923,-1.3688,-1.3923,-1.3923,-1.3688,-1.3688,-1.3808,-1.4043,-1.4043,-1.4629,-1.5564,-1.6144,-1.6962,-1.8015,-1.8945,-1.9414,-1.9781,-2.0486,-2.1167,-2.1616,-2.1964,-2.2554,-2.3014,-2.3014,-2.3014,-2.3014,-2.3014,-2.3014,-2.3014,-2.3014,-2.3014,-2.3014,-2.3014,-2.3014,-2.3085,-2.3316,-2.3356,-2.3475,-2.3816,-2.4063,-2.4301,-2.4547,-2.4778,-2.4968,-2.5095,-2.5111,-2.5111,-2.5111,-2.5111,-2.5111,-2.5111,-2.5111,-2.5111,-2.5111,-2.5111,-2.5111,-2.5111,-2.5111,-2.5111,-2.5111,-2.5111,-2.5111,-2.5111,-2.5111,-2.5111,-0.3587,-0.3587,-0.3587,-0.3587,-0.3587,-0.3587,-0.3587,-0.3556,-0.3649,-0.4136,-0.4107,-0.4296,-0.4847,-0.5237,-0.5746,-0.6544,-0.6689,-0.6848,-0.7143,-0.7154,-0.7154,-0.7154,-0.7154,-0.7201,-0.7326,-0.7372,-0.7483,-0.7687,-0.8333,-0.8874,-0.9332,-1.0547,-1.139,-1.1752,-1.2719,-1.3204,-1.3204,-1.3564,-1.3688,-1.3688,-1.3688,-1.3688,-1.3688,-1.3688,-1.3688,-1.3688,-1.3688,-1.3688,-1.3688,-1.3688,-1.3688,-1.3688,-1.3688,-1.3688,-1.3688,-1.3688,-1.3923,-1.4391,-1.4976,-1.5677,-1.638,-1.743,-1.8015,-1.8493,-1.921,-2.0019,-2.0709,-2.1052,-2.1638,-2.2101,-2.2101,-2.2328,-2.2667,-2.2901,-2.3109,-2.3189,-2.3189,-2.3101,-2.3054,-2.3173,-2.3189,-2.33,-2.3649,-2.3713,-2.3832,-2.4182,-2.4428,-2.4627,-2.4746,-2.496,-2.5111,-2.5111,-2.5111,-2.5111,-2.5111,-2.5111,-2.5111,-2.5111,-2.5111,-2.5111,-2.5111,-2.5111,-2.5111,-2.5111,-2.5111,-2.5111,-2.5111,-2.5111,-2.5111,-2.5111,-2.5111,-2.5111,0.0,0.0,0.0,-0.3587,-0.3587,-0.3587,-0.3587,-0.3587,-0.3587,-0.3587,-0.3587,-0.3811,-0.4367,-0.4479,-0.479,-0.5916,-0.6198,-0.6485,-0.7043,-0.7154,-0.7154,-0.7154,-0.7157,-0.7209,-0.7328,-0.7453,-0.7576,-0.7698,-0.7809,-0.8358,-0.9214,-0.9335,-0.9822,-1.0789,-1.1752,-1.2234,-1.2234,-1.3204,-1.3688,-1.3688,-1.3688,-1.3688,-1.3688,-1.3688,-1.3688,-1.3688,-1.3688,-1.3688,-1.3688,-1.3688,-1.3688,-1.3688,-1.3688,-1.3688,-1.3688,-1.3688,-1.3688,-1.3688,-1.3688,-1.4038,-1.4629,-1.4629,-1.5461,-1.6649,-1.7584,-1.8286,-1.9107,-1.9924,-2.027,-2.027,-2.027,-2.0952,-2.1866,-2.2683,-2.3186,-2.3439,-2.3439,-2.3178,-2.3149,-2.3491,-2.3562,-2.3665,-2.4007,-2.407,-2.419,-2.4539,-2.4595,-2.4722,-2.5063,-2.5111,-2.5111,-2.5111,-2.5111,-2.5111,-2.5111,-2.5111,-2.5111,-2.5111,-2.5111,-2.5111,-2.5111,-2.5111,-2.5111,-2.5111,-2.5111,-2.5111,-2.5111,-2.5111,-2.5111,-2.5111,-2.5111,-2.5111,-0.3587,0.0,0.0,0.0,0.0,0.0,-0.3587,-0.3587,-0.3587,-0.3587,-0.3587,-0.3699,-0.3811,-0.381,-0.4139,-0.4786,-0.5688,-0.6374,-0.6485,-0.6932,-0.7154,-0.7154,-0.7233,-0.7334,-0.7456,-0.7578,-0.7698,-0.7815,-0.7853,-0.7991,-0.8238,-0.897,-0.9822,-1.0789,-1.1752,-1.2234,-1.2234,-1.3204,-1.3688,-1.3688,-1.3688,-1.3688,-1.3688,-1.3688,-1.3688,-1.3688,-1.3688,-1.3688,-1.3688,-1.3688,-1.3688,-1.3688,-1.3688,-1.3688,-1.3688,-1.3688,-1.3688,-1.3688,-1.3688,-1.3803,-1.4043,-1.451,-1.4867,-1.5224,-1.6065,-1.7114,-1.8286,-1.8512,-1.9448,-2.027,-2.027,-2.1126,-2.1873,-2.1402,-2.2126,-2.2837,-2.2837,-2.2761,-2.2966,-2.3771,-2.3912,-2.4023,-2.4372,-2.4436,-2.4555,-2.4913,-2.496,-2.5,-2.5095,-2.5111,-2.5111,-2.5111,-2.5111,-2.5111,-2.5111,-2.5111,-2.5111,-2.5111,-2.5111,-2.5111,-2.5111,-2.5111,-2.5111,-2.5111,-2.5111,-2.5111,-2.5111,-2.5111,-2.5111,-2.5111,-2.5111,-2.5246,-0.3587,-0.3587,-0.3587,-0.3587,0.0,0.0,-0.3587,-0.3587,-0.3587,-0.3587,-0.3587,-0.3587,-0.3587,-0.3587,-0.3699,-0.4033,-0.4925,-0.5706,-0.6262,-0.6596,-0.6932,-0.7154,-0.726,-0.7383,-0.7508,-0.763,-0.7747,-0.7861,-0.7872,-0.7872,-0.7872,-0.836,-0.8967,-0.9572,-1.0543,-1.1148,-1.1635,-1.2599,-1.3324,-1.3688,-1.3688,-1.3688,-1.3688,-1.3688,-1.3688,-1.3688,-1.3688,-1.3688,-1.3688,-1.3688,-1.3688,-1.3688,-1.3688,-1.3688,-1.3688,-1.3688,-1.3688,-1.3688,-1.3688,-1.3688,-1.3808,-1.4157,-1.4391,-1.4629,-1.511,-1.6059,-1.6997,-1.6997,-1.7898,-1.9076,-1.9908,-2.0656,-2.1137,-2.0781,-2.1498,-2.2217,-2.2217,-2.2568,-2.3233,-2.4174,-2.4269,-2.4388,-2.4738,-2.4801,-2.4873,-2.5079,-2.5111,-2.5111,-2.5111,-2.5111,-2.5111,-2.5111,-2.5111,-2.5111,-2.5111,-2.5111,-2.5111,-2.5111,-2.5111,-2.5111,-2.5111,-2.5111,-2.5183,-2.5326,-2.5326,-2.5397,-2.554,-2.5397,-2.5405,-2.554,-2.554,-2.5651,-0.3587,-0.3587,-0.3587,-0.3587,-0.3587,0.0,-0.3587,-0.3587,-0.3587,-0.3587,-0.3587,-0.3587,-0.3587,-0.3587,-0.3587,-0.3587,-0.4033,-0.4814,-0.604,-0.6262,-0.6485,-0.7154,-0.7274,-0.7399,-0.7508,-0.7641,-0.7763,-0.7864,-0.7872,-0.7872,-0.7872,-0.7872,-0.7872,-0.7872,-0.8848,-0.97,-1.0668,-1.1511,-1.2479,-1.3329,-1.3329,-1.3444,-1.3564,-1.3564,-1.3569,-1.3688,-1.3688,-1.3688,-1.3688,-1.3688,-1.3688,-1.3688,-1.3688,-1.3688,-1.3688,-1.3688,-1.3688,-1.3688,-1.3688,-1.3688,-1.3688,-1.3688,-1.4043,-1.451,-1.451,-1.4992,-1.5483,-1.5628,-1.6161,-1.7242,-1.8928,-1.9498,-1.9889,-2.0611,-2.1094,-2.1444,-2.1444,-2.2405,-2.3514,-2.4205,-2.4514,-2.4738,-2.4933,-2.498,-2.4857,-2.4734,-2.4857,-2.498,-2.498,-2.4988,-2.5111,-2.5111,-2.5111,-2.5111,-2.5111,-2.5111,-2.5111,-2.5111,-2.5111,-2.5127,-2.5167,-2.5167,-2.5334,-2.5691,-2.5691,-2.5866,-2.6199,-2.5866,-2.585,-2.6144,-2.6144,-2.6168,-0.3587,-0.3587,-0.3587,-0.3587,-0.3587,0.0,-0.3587,-0.3587,-0.3587,-0.3587,-0.3587,-0.3587,-0.3587,-0.3587,-0.3587,-0.3587,-0.3699,-0.4145,-0.5371,-0.604,-0.6485,-0.7154,-0.735,-0.7491,-0.7516,-0.7712,-0.7847,-0.7869,-0.7872,-0.7872,-0.7872,-0.7872,-0.7872,-0.7872,-0.8848,-0.9335,-0.9579,-1.0547,-1.1152,-1.1394,-1.1394,-1.1756,-1.2479,-1.2479,-1.296,-1.3688,-1.3688,-1.3688,-1.3688,-1.3688,-1.3688,-1.3688,-1.3688,-1.3688,-1.3688,-1.3688,-1.3688,-1.3688,-1.3688,-1.3688,-1.3688,-1.3688,-1.3808,-1.3923,-1.3923,-1.4277,-1.4908,-1.5696,-1.6048,-1.6489,-1.7397,-1.8544,-1.9318,-1.9212,-2.0045,-2.075,-2.075,-2.1042,-2.1447,-2.2402,-2.3885,-2.4778,-2.3976,-2.386,-2.3611,-2.2863,-2.3355,-2.386,-2.386,-2.461,-2.5111,-2.5111,-2.5111,-2.5111,-2.5111,-2.5111,-2.5111,-2.5111,-2.5111,-2.5238,-2.5524,-2.5532,-2.5699,-2.6041,-2.6049,-2.6215,-2.6565,-2.6215,-2.608,-2.6144,-2.6144,-2.6303,-0.3587,-0.3587,-0.3587,-0.3587,-0.3587,0.0,0.0,-0.3587,-0.3587,-0.3587,-0.3587,-0.3587,-0.3587,-0.3587,-0.3587,-0.3587,-0.3587,-0.3921,-0.4814,-0.5483,-0.604,-0.6707,-0.714,-0.7519,-0.7519,-0.7733,-0.7872,-0.7872,-0.7872,-0.7872,-0.7872,-0.7872,-0.7872,-0.7872,-0.8358,-0.8848,-0.9335,-0.9822,-1.0304,-1.0789,-1.0789,-1.1031,-1.1514,-1.1997,-1.2479,-1.296,-1.3444,-1.3688,-1.3688,-1.3688,-1.3688,-1.3688,-1.3688,-1.3688,-1.3688,-1.3688,-1.3688,-1.3688,-1.3688,-1.3688,-1.3688,-1.3688,-1.3688,-1.3707,-1.3816,-1.4159,-1.4646,-1.5494,-1.5893,-1.6134,-1.6877,-1.7621,-1.8094,-1.8359,-1.8836,-1.9437,-1.9826,-2.0202,-2.0703,-2.1215,-2.2598,-2.3479,-2.2981,-2.2856,-2.2738,-2.2237,-2.2487,-2.2856,-2.2856,-2.3736,-2.4355,-2.4355,-2.4857,-2.5111,-2.5111,-2.5111,-2.5183,-2.5357,-2.5373,-2.5524,-2.5874,-2.589,-2.6057,-2.6398,-2.6581,-2.6764,-2.6938,-2.6756,-2.6676,-2.6676,-2.6676,-2.6764,-0.3587,-0.3587,-0.3587,-0.3587,-0.3587,-0.3587,0.0,0.0,0.0,-0.3587,-0.3587,-0.3587,-0.3587,-0.3587,-0.3587,-0.3587,-0.3587,-0.3811,-0.4257,-0.4814,-0.5483,-0.604,-0.6797,-0.7285,-0.7285,-0.7731,-0.7872,-0.7872,-0.7872,-0.7872,-0.7872,-0.7872,-0.7872,-0.7872,-0.7872,-0.8238,-0.897,-0.897,-0.9457,-1.0183,-1.0183,-1.0304,-1.0547,-1.1511,-1.1997,-1.2238,-1.3204,-1.3688,-1.3688,-1.3688,-1.3688,-1.3688,-1.3688,-1.3688,-1.3688,-1.3688,-1.3688,-1.3688,-1.3688,-1.3688,-1.3688,-1.3688,-1.3717,-1.3792,-1.4005,-1.4213,-1.4533,-1.5219,-1.5553,-1.5752,-1.6571,-1.6748,-1.7007,-1.7647,-1.7776,-1.8033,-1.8688,-1.9571,-2.0195,-2.0329,-2.0969,-2.1601,-2.1727,-2.1853,-2.1727,-2.1601,-2.1727,-2.1853,-2.1853,-2.2731,-2.3362,-2.3362,-2.3984,-2.451,-2.4572,-2.458,-2.4727,-2.5068,-2.5091,-2.5246,-2.5579,-2.5916,-2.6218,-2.6501,-2.6925,-2.72,-2.72,-2.72,-2.72,-2.72,-2.72,-2.72,-0.3587,-0.3587,-0.3587,-0.3587,-0.3587,-0.3587,-0.3587,0.0,-0.3587,-0.3587,0.0,-0.3587,-0.3587,0.0,0.0,-0.3587,-0.3587,-0.3587,-0.3699,-0.4257,-0.4814,-0.5483,-0.6221,-0.6698,-0.6698,-0.737,-0.7872,-0.7872,-0.7872,-0.7872,-0.7872,-0.7872,-0.7872,-0.7872,-0.7872,-0.7991,-0.8116,-0.8116,-0.8116,-0.8236,-0.8236,-0.8723,-0.9457,-1.0547,-1.1394,-1.2238,-1.3204,-1.3688,-1.3688,-1.3688,-1.3688,-1.3688,-1.3688,-1.3688,-1.3688,-1.3688,-1.3688,-1.3688,-1.3688,-1.3688,-1.3688,-1.3688,-1.3816,-1.401,-1.4218,-1.4426,-1.46,-1.4752,-1.489,-1.5163,-1.5964,-1.6104,-1.6229,-1.7001,-1.7136,-1.726,-1.8033,-1.8162,-1.8547,-1.92,-1.9328,-1.9705,-2.0583,-2.0829,-2.0456,-1.9577,-2.0208,-2.0829,-2.0829,-2.1594,-2.2237,-2.2237,-2.2355,-2.2594,-2.2744,-2.2766,-2.2893,-2.3204,-2.3226,-2.336,-2.3679,-2.5026,-2.574,-2.5778,-2.6643,-2.72,-2.72,-2.72,-2.72,-2.72,-2.72,-2.72,-0.3587,-0.3587,-0.3587,-0.3587,-0.3587,-0.3587,-0.3587,-0.3587,-0.3587,-0.3587,0.0,0.0,0.0,0.0,0.0,0.0,-0.3587,-0.3587,-0.3587,-0.3811,-0.4257,-0.4814,-0.5533,-0.6273,-0.6748,-0.7448,-0.7872,-0.7872,-0.7872,-0.7872,-0.7872,-0.7872,-0.7872,-0.7872,-0.7872,-0.7872,-0.7872,-0.7872,-0.7872,-0.7872,-0.7872,-0.8116,-0.8482,-0.9454,-1.0425,-1.139,-1.2359,-1.3204,-1.3688,-1.3688,-1.3688,-1.3688,-1.3688,-1.3688,-1.3688,-1.3688,-1.3688,-1.3688,-1.3688,-1.3769,-1.3896,-1.4014,-1.4194,-1.4388,-1.4473,-1.4643,-1.4808,-1.4808,-1.487,-1.4931,-1.5323,-1.5323,-1.5578,-1.6229,-1.6359,-1.6618,-1.726,-1.7776,-1.8039,-1.8425,-1.8816,-1.92,-1.9705,-1.9705,-1.9577,-1.92,-1.945,-1.9705,-1.9705,-2.0583,-2.1283,-2.1471,-2.1995,-2.2496,-2.2667,-2.2695,-2.2827,-2.3134,-2.3321,-2.3475,-2.3742,-2.4281,-2.4624,-2.4624,-2.503,-2.5569,-2.6249,-2.6249,-2.6658,-2.72,-2.72,-2.72,-0.3587,-0.3587,-0.3587,-0.3587,-0.3587,-0.3587,-0.3587,-0.3587,-0.3587,-0.3587,-0.3587,0.0,0.0,0.0,-0.3587,-0.3587,0.0,-0.3587,-0.3587,-0.3587,-0.3811,-0.4257,-0.4958,-0.5714,-0.6501,-0.7258,-0.7625,-0.7625,-0.7747,-0.7872,-0.7872,-0.7872,-0.7872,-0.7872,-0.7872,-0.7872,-0.7872,-0.7872,-0.7872,-0.7872,-0.7872,-0.7872,-0.7872,-0.8848,-0.97,-1.0425,-1.139,-1.2238,-1.2964,-1.3204,-1.3324,-1.3324,-1.3569,-1.3688,-1.3688,-1.3688,-1.3688,-1.3698,-1.3755,-1.3915,-1.4128,-1.4331,-1.4506,-1.4643,-1.47,-1.4818,-1.4931,-1.4931,-1.4931,-1.4931,-1.4931,-1.4931,-1.5062,-1.5583,-1.5714,-1.5844,-1.6618,-1.7136,-1.7518,-1.7647,-1.8168,-1.8583,-1.8905,-1.8992,-1.9078,-1.9078,-1.9138,-1.9181,-1.9181,-1.988,-2.0522,-2.0739,-2.1404,-2.1907,-2.2196,-2.2223,-2.2351,-2.2647,-2.2875,-2.2989,-2.2989,-2.3263,-2.34,-2.34,-2.3809,-2.4353,-2.5158,-2.5427,-2.5973,-2.6792,-2.7067,-2.72,-0.3587,-0.3587,-0.3587,-0.3587,-0.3587,-0.3587,-0.3587,-0.3587,-0.3587,-0.3587,-0.3587,-0.3587,-0.3587,-0.3587,-0.3587,-0.3587,-0.3587,0.0,0.0,-0.3587,-0.3587,-0.3587,-0.4385,-0.5121,-0.589,-0.6521,-0.6888,-0.6888,-0.7503,-0.7872,-0.7872,-0.7872,-0.7872,-0.7872,-0.7872,-0.7872,-0.7872,-0.7872,-0.7872,-0.7872,-0.7872,-0.7872,-0.7872,-0.8848,-0.9339,-0.9457,-1.0425,-1.091,-1.091,-1.1872,-1.2234,-1.2359,-1.3324,-1.3688,-1.3688,-1.3688,-1.3688,-1.3717,-1.3929,-1.4133,-1.4336,-1.4553,-1.4629,-1.4671,-1.4865,-1.4926,-1.4931,-1.4931,-1.4931,-1.4931,-1.4931,-1.4931,-1.4931,-1.4931,-1.4931,-1.5192,-1.5839,-1.6104,-1.6229,-1.6877,-1.7007,-1.7336,-1.8222,-1.8847,-1.9078,-1.9078,-1.9289,-1.9452,-1.9452,-1.9694,-1.9996,-1.9869,-2.0002,-2.0112,-2.0373,-2.0397,-2.0513,-2.0774,-2.0804,-2.0804,-2.0804,-2.176,-2.231,-2.231,-2.34,-2.3945,-2.3945,-2.5022,-2.5562,-2.5697,-2.6658,-2.72,0.0,0.0,-0.3587,-0.3587,0.0,0.0,-0.3587,-0.3587,-0.3587,-0.3587,-0.3587,-0.3587,-0.3587,-0.3587,-0.3587,-0.3587,-0.3587,-0.3587,0.0,-0.3587,-0.3602,-0.3643,-0.4298,-0.4883,-0.5156,-0.6276,-0.6888,-0.6888,-0.7503,-0.7872,-0.7872,-0.7872,-0.7872,-0.7872,-0.7872,-0.7872,-0.7872,-0.7872,-0.7872,-0.7872,-0.7872,-0.7872,-0.7872,-0.8236,-0.8726,-0.9339,-0.97,-1.0183,-1.0789,-1.1152,-1.1631,-1.2234,-1.2599,-1.3084,-1.3688,-1.3688,-1.3778,-1.3953,-1.4303,-1.4468,-1.4558,-1.4766,-1.4832,-1.4841,-1.4912,-1.4931,-1.4931,-1.4931,-1.4931,-1.4931,-1.4931,-1.4931,-1.4931,-1.4931,-1.4931,-1.4931,-1.5192,-1.5714,-1.6145,-1.6429,-1.6855,-1.7451,-1.8489,-1.8726,-1.9076,-1.9609,-1.9688,-1.9742,-1.9742,-1.9827,-1.9953,-2.0128,-2.0146,-2.0249,-2.0515,-2.0533,-2.0575,-2.0659,-2.0665,-2.0665,-2.0665,-2.1081,-2.1214,-2.1214,-2.1628,-2.2173,-2.2853,-2.3263,-2.3802,-2.4488,-2.4895,-2.5846,-0.3587,-0.3587,0.0,-0.3587,-0.3587,0.0,-0.3587,0.0,-0.3587,-0.3587,-0.3587,-0.3587,-0.3587,-0.3587,-0.3587,-0.3587,-0.3587,-0.3587,0.0,-0.3587,-0.3619,-0.37,-0.4211,-0.4517,-0.4877,-0.5643,-0.6396,-0.6888,-0.7258,-0.7625,-0.7869,-0.7872,-0.7872,-0.7872,-0.7872,-0.7872,-0.7872,-0.7872,-0.7872,-0.7872,-0.7872,-0.7872,-0.7872,-0.7872,-0.8236,-0.8848,-0.8848,-0.9211,-0.9815,-1.0183,-1.0668,-1.1269,-1.1872,-1.2638,-1.3309,-1.3681,-1.3986,-1.427,-1.4544,-1.4681,-1.4761,-1.4889,-1.4931,-1.4931,-1.4931,-1.4931,-1.4945,-1.5021,-1.4988,-1.495,-1.5021,-1.4983,-1.4931,-1.4931,-1.4931,-1.4955,-1.5021,-1.5429,-1.5761,-1.5988,-1.6429,-1.7031,-1.7933,-1.8112,-1.8491,-1.9759,-1.9965,-2.0026,-2.0026,-2.011,-2.0231,-2.04,-2.0418,-2.0484,-2.0653,-2.0665,-2.0665,-2.0665,-2.0665,-2.0665,-2.0665,-2.0665,-2.0665,-2.0665,-2.0665,-2.1081,-2.176,-2.2173,-2.2722,-2.34,-2.3672,-2.4624]}]]